<?xml version="1.0" encoding="UTF-8" standalone="no" ?>
<gpx xmlns="http://www.topografix.com/GPX/1/1" xmlns:xsi="http://www.w3.org/2001/XMLSchema-instance" xsi:schemaLocation="http://www.topografix.com/GPX/1/1 http://www.topografix.com/GPX/1/1/gpx.xsd" version="1.1" creator="VisuGPX - https://www.visugpx.com">
  <metadata>
    <name>ROCHER DE ROQUEBRUNE LES TROIX CROIX</name>
    <desc><![CDATA[Petit tour du Rocher de Roquebrune par la draille du facteur et ascension aux trois croix. Départ de la chapelle saint Roch.
]]></desc>
  </metadata>
  <trk>
    <name><![CDATA[Tracé actuel: 27 SEP 2015 08:46]]></name>
    <trkseg>
      <trkpt lat="43.44752" lon="6.63212">
        <ele>-24.38</ele>
        <time>2015-09-27T06:46:52Z</time>
      </trkpt>
      <trkpt lat="43.44761" lon="6.63235">
        <ele>-21.01</ele>
        <time>2015-09-27T06:47:16Z</time>
      </trkpt>
      <trkpt lat="43.44761" lon="6.63236">
        <ele>-17.65</ele>
        <time>2015-09-27T06:47:18Z</time>
      </trkpt>
      <trkpt lat="43.44763" lon="6.63238">
        <ele>-13.8</ele>
        <time>2015-09-27T06:47:20Z</time>
      </trkpt>
      <trkpt lat="43.44766" lon="6.6324">
        <ele>-10.92</ele>
        <time>2015-09-27T06:47:22Z</time>
      </trkpt>
      <trkpt lat="43.44769" lon="6.63242">
        <ele>-7.07</ele>
        <time>2015-09-27T06:47:25Z</time>
      </trkpt>
      <trkpt lat="43.4477" lon="6.63244">
        <ele>-3.23</ele>
        <time>2015-09-27T06:47:28Z</time>
      </trkpt>
      <trkpt lat="43.44771" lon="6.63244">
        <ele>-0.34</ele>
        <time>2015-09-27T06:47:31Z</time>
      </trkpt>
      <trkpt lat="43.44772" lon="6.63245">
        <ele>3.98</ele>
        <time>2015-09-27T06:47:35Z</time>
      </trkpt>
      <trkpt lat="43.44771" lon="6.63246">
        <ele>6.87</ele>
        <time>2015-09-27T06:47:39Z</time>
      </trkpt>
      <trkpt lat="43.44772" lon="6.63248">
        <ele>10.71</ele>
        <time>2015-09-27T06:47:44Z</time>
      </trkpt>
      <trkpt lat="43.44772" lon="6.6325">
        <ele>14.08</ele>
        <time>2015-09-27T06:47:50Z</time>
      </trkpt>
      <trkpt lat="43.44773" lon="6.63251">
        <ele>18.4</ele>
        <time>2015-09-27T06:47:54Z</time>
      </trkpt>
      <trkpt lat="43.44773" lon="6.63251">
        <ele>16.48</ele>
        <time>2015-09-27T06:47:55Z</time>
      </trkpt>
      <trkpt lat="43.44776" lon="6.63254">
        <ele>20.81</ele>
        <time>2015-09-27T06:48:07Z</time>
      </trkpt>
      <trkpt lat="43.44774" lon="6.63257">
        <ele>20.81</ele>
        <time>2015-09-27T06:48:34Z</time>
      </trkpt>
      <trkpt lat="43.44774" lon="6.63262">
        <ele>20.81</ele>
        <time>2015-09-27T06:49:00Z</time>
      </trkpt>
      <trkpt lat="43.44779" lon="6.63275">
        <ele>20.32</ele>
        <time>2015-09-27T06:49:19Z</time>
      </trkpt>
      <trkpt lat="43.44781" lon="6.63276">
        <ele>20.32</ele>
        <time>2015-09-27T06:49:50Z</time>
      </trkpt>
      <trkpt lat="43.4478" lon="6.63275">
        <ele>19.84</ele>
        <time>2015-09-27T06:50:07Z</time>
      </trkpt>
      <trkpt lat="43.4478" lon="6.63276">
        <ele>19.84</ele>
        <time>2015-09-27T06:50:37Z</time>
      </trkpt>
      <trkpt lat="43.4478" lon="6.63276">
        <ele>19.84</ele>
        <time>2015-09-27T06:51:01Z</time>
      </trkpt>
      <trkpt lat="43.44779" lon="6.63276">
        <ele>19.36</ele>
        <time>2015-09-27T06:51:30Z</time>
      </trkpt>
      <trkpt lat="43.44779" lon="6.63275">
        <ele>19.36</ele>
        <time>2015-09-27T06:51:58Z</time>
      </trkpt>
      <trkpt lat="43.44779" lon="6.63275">
        <ele>19.36</ele>
        <time>2015-09-27T06:52:31Z</time>
      </trkpt>
      <trkpt lat="43.44779" lon="6.63273">
        <ele>19.36</ele>
        <time>2015-09-27T06:53:04Z</time>
      </trkpt>
      <trkpt lat="43.44781" lon="6.63271">
        <ele>18.88</ele>
        <time>2015-09-27T06:53:07Z</time>
      </trkpt>
      <trkpt lat="43.44782" lon="6.63267">
        <ele>18.88</ele>
        <time>2015-09-27T06:53:13Z</time>
      </trkpt>
      <trkpt lat="43.44782" lon="6.6325">
        <ele>18.88</ele>
        <time>2015-09-27T06:53:27Z</time>
      </trkpt>
      <trkpt lat="43.44785" lon="6.63237">
        <ele>18.88</ele>
        <time>2015-09-27T06:53:41Z</time>
      </trkpt>
      <trkpt lat="43.44789" lon="6.63233">
        <ele>18.88</ele>
        <time>2015-09-27T06:53:56Z</time>
      </trkpt>
      <trkpt lat="43.44797" lon="6.63216">
        <ele>18.88</ele>
        <time>2015-09-27T06:54:11Z</time>
      </trkpt>
      <trkpt lat="43.44799" lon="6.63209">
        <ele>18.88</ele>
        <time>2015-09-27T06:54:16Z</time>
      </trkpt>
      <trkpt lat="43.44799" lon="6.63204">
        <ele>18.88</ele>
        <time>2015-09-27T06:54:20Z</time>
      </trkpt>
      <trkpt lat="43.448" lon="6.63183">
        <ele>18.88</ele>
        <time>2015-09-27T06:54:35Z</time>
      </trkpt>
      <trkpt lat="43.44806" lon="6.63166">
        <ele>18.88</ele>
        <time>2015-09-27T06:54:49Z</time>
      </trkpt>
      <trkpt lat="43.4481" lon="6.63144">
        <ele>18.4</ele>
        <time>2015-09-27T06:55:04Z</time>
      </trkpt>
      <trkpt lat="43.44814" lon="6.63117">
        <ele>18.88</ele>
        <time>2015-09-27T06:55:21Z</time>
      </trkpt>
      <trkpt lat="43.44819" lon="6.63088">
        <ele>18.88</ele>
        <time>2015-09-27T06:55:40Z</time>
      </trkpt>
      <trkpt lat="43.44824" lon="6.63068">
        <ele>18.88</ele>
        <time>2015-09-27T06:55:53Z</time>
      </trkpt>
      <trkpt lat="43.44825" lon="6.6306">
        <ele>18.88</ele>
        <time>2015-09-27T06:55:58Z</time>
      </trkpt>
      <trkpt lat="43.44827" lon="6.63052">
        <ele>18.88</ele>
        <time>2015-09-27T06:56:04Z</time>
      </trkpt>
      <trkpt lat="43.44832" lon="6.63026">
        <ele>18.4</ele>
        <time>2015-09-27T06:56:20Z</time>
      </trkpt>
      <trkpt lat="43.44836" lon="6.63">
        <ele>18.4</ele>
        <time>2015-09-27T06:56:37Z</time>
      </trkpt>
      <trkpt lat="43.4484" lon="6.62978">
        <ele>18.4</ele>
        <time>2015-09-27T06:56:51Z</time>
      </trkpt>
      <trkpt lat="43.44845" lon="6.62956">
        <ele>18.4</ele>
        <time>2015-09-27T06:57:05Z</time>
      </trkpt>
      <trkpt lat="43.4485" lon="6.62928">
        <ele>18.4</ele>
        <time>2015-09-27T06:57:22Z</time>
      </trkpt>
      <trkpt lat="43.4485" lon="6.62926">
        <ele>18.4</ele>
        <time>2015-09-27T06:57:23Z</time>
      </trkpt>
      <trkpt lat="43.44855" lon="6.62904">
        <ele>18.4</ele>
        <time>2015-09-27T06:57:38Z</time>
      </trkpt>
      <trkpt lat="43.44859" lon="6.62876">
        <ele>18.4</ele>
        <time>2015-09-27T06:57:55Z</time>
      </trkpt>
      <trkpt lat="43.44862" lon="6.62855">
        <ele>18.4</ele>
        <time>2015-09-27T06:58:08Z</time>
      </trkpt>
      <trkpt lat="43.44863" lon="6.62845">
        <ele>18.4</ele>
        <time>2015-09-27T06:58:14Z</time>
      </trkpt>
      <trkpt lat="43.4487" lon="6.62817">
        <ele>18.4</ele>
        <time>2015-09-27T06:58:31Z</time>
      </trkpt>
      <trkpt lat="43.44871" lon="6.62812">
        <ele>18.4</ele>
        <time>2015-09-27T06:58:34Z</time>
      </trkpt>
      <trkpt lat="43.44875" lon="6.6279">
        <ele>18.4</ele>
        <time>2015-09-27T06:58:47Z</time>
      </trkpt>
      <trkpt lat="43.44878" lon="6.62774">
        <ele>18.4</ele>
        <time>2015-09-27T06:58:57Z</time>
      </trkpt>
      <trkpt lat="43.44881" lon="6.62753">
        <ele>18.4</ele>
        <time>2015-09-27T06:59:11Z</time>
      </trkpt>
      <trkpt lat="43.44885" lon="6.62727">
        <ele>18.4</ele>
        <time>2015-09-27T06:59:25Z</time>
      </trkpt>
      <trkpt lat="43.44885" lon="6.62721">
        <ele>18.4</ele>
        <time>2015-09-27T06:59:29Z</time>
      </trkpt>
      <trkpt lat="43.44885" lon="6.62712">
        <ele>18.4</ele>
        <time>2015-09-27T06:59:34Z</time>
      </trkpt>
      <trkpt lat="43.4489" lon="6.6268">
        <ele>18.4</ele>
        <time>2015-09-27T06:59:52Z</time>
      </trkpt>
      <trkpt lat="43.44889" lon="6.62669">
        <ele>18.4</ele>
        <time>2015-09-27T06:59:58Z</time>
      </trkpt>
      <trkpt lat="43.44882" lon="6.62641">
        <ele>18.4</ele>
        <time>2015-09-27T07:00:15Z</time>
      </trkpt>
      <trkpt lat="43.4488" lon="6.62616">
        <ele>18.4</ele>
        <time>2015-09-27T07:00:29Z</time>
      </trkpt>
      <trkpt lat="43.4488" lon="6.62593">
        <ele>18.4</ele>
        <time>2015-09-27T07:00:42Z</time>
      </trkpt>
      <trkpt lat="43.44879" lon="6.62568">
        <ele>17.92</ele>
        <time>2015-09-27T07:00:58Z</time>
      </trkpt>
      <trkpt lat="43.44879" lon="6.62549">
        <ele>17.92</ele>
        <time>2015-09-27T07:01:10Z</time>
      </trkpt>
      <trkpt lat="43.44879" lon="6.62543">
        <ele>17.92</ele>
        <time>2015-09-27T07:01:14Z</time>
      </trkpt>
      <trkpt lat="43.4488" lon="6.62514">
        <ele>18.4</ele>
        <time>2015-09-27T07:01:30Z</time>
      </trkpt>
      <trkpt lat="43.44881" lon="6.62504">
        <ele>18.4</ele>
        <time>2015-09-27T07:01:37Z</time>
      </trkpt>
      <trkpt lat="43.44881" lon="6.62501">
        <ele>17.92</ele>
        <time>2015-09-27T07:01:39Z</time>
      </trkpt>
      <trkpt lat="43.44882" lon="6.6249">
        <ele>18.4</ele>
        <time>2015-09-27T07:01:46Z</time>
      </trkpt>
      <trkpt lat="43.4488" lon="6.6248">
        <ele>18.4</ele>
        <time>2015-09-27T07:01:51Z</time>
      </trkpt>
      <trkpt lat="43.44879" lon="6.62455">
        <ele>18.4</ele>
        <time>2015-09-27T07:02:06Z</time>
      </trkpt>
      <trkpt lat="43.44873" lon="6.62431">
        <ele>18.4</ele>
        <time>2015-09-27T07:02:20Z</time>
      </trkpt>
      <trkpt lat="43.44869" lon="6.62402">
        <ele>18.4</ele>
        <time>2015-09-27T07:02:37Z</time>
      </trkpt>
      <trkpt lat="43.44864" lon="6.62374">
        <ele>18.4</ele>
        <time>2015-09-27T07:02:54Z</time>
      </trkpt>
      <trkpt lat="43.44864" lon="6.62359">
        <ele>18.4</ele>
        <time>2015-09-27T07:03:03Z</time>
      </trkpt>
      <trkpt lat="43.44862" lon="6.62334">
        <ele>18.4</ele>
        <time>2015-09-27T07:03:17Z</time>
      </trkpt>
      <trkpt lat="43.44865" lon="6.62313">
        <ele>18.4</ele>
        <time>2015-09-27T07:03:31Z</time>
      </trkpt>
      <trkpt lat="43.44861" lon="6.62286">
        <ele>18.4</ele>
        <time>2015-09-27T07:03:46Z</time>
      </trkpt>
      <trkpt lat="43.4485" lon="6.62278">
        <ele>18.4</ele>
        <time>2015-09-27T07:03:54Z</time>
      </trkpt>
      <trkpt lat="43.44831" lon="6.62266">
        <ele>18.4</ele>
        <time>2015-09-27T07:04:09Z</time>
      </trkpt>
      <trkpt lat="43.44814" lon="6.62254">
        <ele>18.4</ele>
        <time>2015-09-27T07:04:24Z</time>
      </trkpt>
      <trkpt lat="43.44801" lon="6.62243">
        <ele>18.4</ele>
        <time>2015-09-27T07:04:36Z</time>
      </trkpt>
      <trkpt lat="43.44796" lon="6.62238">
        <ele>18.4</ele>
        <time>2015-09-27T07:04:41Z</time>
      </trkpt>
      <trkpt lat="43.44785" lon="6.62218">
        <ele>18.88</ele>
        <time>2015-09-27T07:04:58Z</time>
      </trkpt>
      <trkpt lat="43.44781" lon="6.62209">
        <ele>18.4</ele>
        <time>2015-09-27T07:05:04Z</time>
      </trkpt>
      <trkpt lat="43.44769" lon="6.62187">
        <ele>18.4</ele>
        <time>2015-09-27T07:05:20Z</time>
      </trkpt>
      <trkpt lat="43.44765" lon="6.62163">
        <ele>17.92</ele>
        <time>2015-09-27T07:05:34Z</time>
      </trkpt>
      <trkpt lat="43.44768" lon="6.62155">
        <ele>17.92</ele>
        <time>2015-09-27T07:05:40Z</time>
      </trkpt>
      <trkpt lat="43.4477" lon="6.6215">
        <ele>17.92</ele>
        <time>2015-09-27T07:05:43Z</time>
      </trkpt>
      <trkpt lat="43.44782" lon="6.62119">
        <ele>18.4</ele>
        <time>2015-09-27T07:06:03Z</time>
      </trkpt>
      <trkpt lat="43.44795" lon="6.6209">
        <ele>17.92</ele>
        <time>2015-09-27T07:06:23Z</time>
      </trkpt>
      <trkpt lat="43.44797" lon="6.62085">
        <ele>17.92</ele>
        <time>2015-09-27T07:06:27Z</time>
      </trkpt>
      <trkpt lat="43.44808" lon="6.62066">
        <ele>17.44</ele>
        <time>2015-09-27T07:06:41Z</time>
      </trkpt>
      <trkpt lat="43.44814" lon="6.62049">
        <ele>17.44</ele>
        <time>2015-09-27T07:06:52Z</time>
      </trkpt>
      <trkpt lat="43.44826" lon="6.62025">
        <ele>17.44</ele>
        <time>2015-09-27T07:07:09Z</time>
      </trkpt>
      <trkpt lat="43.44834" lon="6.62004">
        <ele>17.92</ele>
        <time>2015-09-27T07:07:24Z</time>
      </trkpt>
      <trkpt lat="43.44844" lon="6.61984">
        <ele>18.4</ele>
        <time>2015-09-27T07:07:39Z</time>
      </trkpt>
      <trkpt lat="43.44849" lon="6.61967">
        <ele>18.88</ele>
        <time>2015-09-27T07:07:52Z</time>
      </trkpt>
      <trkpt lat="43.44857" lon="6.61944">
        <ele>18.4</ele>
        <time>2015-09-27T07:08:08Z</time>
      </trkpt>
      <trkpt lat="43.4486" lon="6.61936">
        <ele>18.4</ele>
        <time>2015-09-27T07:08:14Z</time>
      </trkpt>
      <trkpt lat="43.44866" lon="6.61933">
        <ele>17.92</ele>
        <time>2015-09-27T07:08:21Z</time>
      </trkpt>
      <trkpt lat="43.44876" lon="6.61932">
        <ele>17.44</ele>
        <time>2015-09-27T07:08:28Z</time>
      </trkpt>
      <trkpt lat="43.4488" lon="6.61929">
        <ele>17.44</ele>
        <time>2015-09-27T07:08:32Z</time>
      </trkpt>
      <trkpt lat="43.44886" lon="6.61913">
        <ele>16.96</ele>
        <time>2015-09-27T07:08:42Z</time>
      </trkpt>
      <trkpt lat="43.44887" lon="6.61898">
        <ele>16.96</ele>
        <time>2015-09-27T07:08:49Z</time>
      </trkpt>
      <trkpt lat="43.44888" lon="6.61892">
        <ele>16.96</ele>
        <time>2015-09-27T07:08:52Z</time>
      </trkpt>
      <trkpt lat="43.44892" lon="6.61873">
        <ele>16.96</ele>
        <time>2015-09-27T07:09:05Z</time>
      </trkpt>
      <trkpt lat="43.44897" lon="6.61864">
        <ele>16.96</ele>
        <time>2015-09-27T07:09:11Z</time>
      </trkpt>
      <trkpt lat="43.44902" lon="6.6186">
        <ele>17.44</ele>
        <time>2015-09-27T07:09:17Z</time>
      </trkpt>
      <trkpt lat="43.44921" lon="6.61855">
        <ele>16.96</ele>
        <time>2015-09-27T07:09:33Z</time>
      </trkpt>
      <trkpt lat="43.44939" lon="6.6185">
        <ele>16.96</ele>
        <time>2015-09-27T07:09:48Z</time>
      </trkpt>
      <trkpt lat="43.44953" lon="6.61843">
        <ele>16.96</ele>
        <time>2015-09-27T07:10:02Z</time>
      </trkpt>
      <trkpt lat="43.44968" lon="6.61837">
        <ele>16.96</ele>
        <time>2015-09-27T07:10:16Z</time>
      </trkpt>
      <trkpt lat="43.44983" lon="6.61826">
        <ele>16.96</ele>
        <time>2015-09-27T07:10:30Z</time>
      </trkpt>
      <trkpt lat="43.44998" lon="6.61811">
        <ele>16.96</ele>
        <time>2015-09-27T07:10:44Z</time>
      </trkpt>
      <trkpt lat="43.45012" lon="6.61797">
        <ele>16.96</ele>
        <time>2015-09-27T07:10:58Z</time>
      </trkpt>
      <trkpt lat="43.45023" lon="6.61783">
        <ele>16.96</ele>
        <time>2015-09-27T07:11:11Z</time>
      </trkpt>
      <trkpt lat="43.4503" lon="6.61761">
        <ele>16.96</ele>
        <time>2015-09-27T07:11:25Z</time>
      </trkpt>
      <trkpt lat="43.45031" lon="6.61755">
        <ele>16.96</ele>
        <time>2015-09-27T07:11:29Z</time>
      </trkpt>
      <trkpt lat="43.45038" lon="6.61733">
        <ele>17.44</ele>
        <time>2015-09-27T07:11:44Z</time>
      </trkpt>
      <trkpt lat="43.45043" lon="6.61723">
        <ele>17.92</ele>
        <time>2015-09-27T07:11:54Z</time>
      </trkpt>
      <trkpt lat="43.45053" lon="6.61702">
        <ele>17.92</ele>
        <time>2015-09-27T07:12:09Z</time>
      </trkpt>
      <trkpt lat="43.45065" lon="6.61683">
        <ele>18.4</ele>
        <time>2015-09-27T07:12:24Z</time>
      </trkpt>
      <trkpt lat="43.4507" lon="6.61676">
        <ele>18.4</ele>
        <time>2015-09-27T07:12:30Z</time>
      </trkpt>
      <trkpt lat="43.45075" lon="6.61656">
        <ele>17.92</ele>
        <time>2015-09-27T07:12:42Z</time>
      </trkpt>
      <trkpt lat="43.45064" lon="6.61631">
        <ele>17.44</ele>
        <time>2015-09-27T07:12:58Z</time>
      </trkpt>
      <trkpt lat="43.45047" lon="6.61617">
        <ele>16.96</ele>
        <time>2015-09-27T07:13:12Z</time>
      </trkpt>
      <trkpt lat="43.45043" lon="6.61604">
        <ele>16.96</ele>
        <time>2015-09-27T07:13:21Z</time>
      </trkpt>
      <trkpt lat="43.45044" lon="6.61584">
        <ele>16.96</ele>
        <time>2015-09-27T07:13:34Z</time>
      </trkpt>
      <trkpt lat="43.45051" lon="6.61561">
        <ele>16.48</ele>
        <time>2015-09-27T07:13:48Z</time>
      </trkpt>
      <trkpt lat="43.45052" lon="6.61558">
        <ele>16.48</ele>
        <time>2015-09-27T07:13:50Z</time>
      </trkpt>
      <trkpt lat="43.45054" lon="6.61539">
        <ele>16</ele>
        <time>2015-09-27T07:14:01Z</time>
      </trkpt>
      <trkpt lat="43.45055" lon="6.61532">
        <ele>16</ele>
        <time>2015-09-27T07:14:05Z</time>
      </trkpt>
      <trkpt lat="43.45058" lon="6.61523">
        <ele>16</ele>
        <time>2015-09-27T07:14:12Z</time>
      </trkpt>
      <trkpt lat="43.45073" lon="6.61517">
        <ele>16.48</ele>
        <time>2015-09-27T07:14:28Z</time>
      </trkpt>
      <trkpt lat="43.45087" lon="6.61525">
        <ele>16.96</ele>
        <time>2015-09-27T07:14:42Z</time>
      </trkpt>
      <trkpt lat="43.45101" lon="6.61532">
        <ele>17.92</ele>
        <time>2015-09-27T07:14:56Z</time>
      </trkpt>
      <trkpt lat="43.45112" lon="6.61527">
        <ele>17.92</ele>
        <time>2015-09-27T07:15:03Z</time>
      </trkpt>
      <trkpt lat="43.45124" lon="6.61504">
        <ele>17.44</ele>
        <time>2015-09-27T07:15:17Z</time>
      </trkpt>
      <trkpt lat="43.4514" lon="6.61491">
        <ele>16.96</ele>
        <time>2015-09-27T07:15:33Z</time>
      </trkpt>
      <trkpt lat="43.45149" lon="6.61494">
        <ele>16.48</ele>
        <time>2015-09-27T07:15:41Z</time>
      </trkpt>
      <trkpt lat="43.45167" lon="6.61505">
        <ele>16.48</ele>
        <time>2015-09-27T07:15:58Z</time>
      </trkpt>
      <trkpt lat="43.45183" lon="6.615">
        <ele>16</ele>
        <time>2015-09-27T07:16:11Z</time>
      </trkpt>
      <trkpt lat="43.45184" lon="6.615">
        <ele>16</ele>
        <time>2015-09-27T07:16:12Z</time>
      </trkpt>
      <trkpt lat="43.4519" lon="6.61492">
        <ele>16.48</ele>
        <time>2015-09-27T07:16:17Z</time>
      </trkpt>
      <trkpt lat="43.45194" lon="6.6149">
        <ele>16.48</ele>
        <time>2015-09-27T07:16:20Z</time>
      </trkpt>
      <trkpt lat="43.45207" lon="6.61474">
        <ele>16.48</ele>
        <time>2015-09-27T07:16:35Z</time>
      </trkpt>
      <trkpt lat="43.45223" lon="6.61462">
        <ele>16.96</ele>
        <time>2015-09-27T07:16:48Z</time>
      </trkpt>
      <trkpt lat="43.45228" lon="6.61459">
        <ele>14.56</ele>
        <time>2015-09-27T07:16:53Z</time>
      </trkpt>
      <trkpt lat="43.45236" lon="6.61444">
        <ele>17.44</ele>
        <time>2015-09-27T07:17:06Z</time>
      </trkpt>
      <trkpt lat="43.45241" lon="6.61418">
        <ele>17.44</ele>
        <time>2015-09-27T07:17:23Z</time>
      </trkpt>
      <trkpt lat="43.45242" lon="6.61408">
        <ele>17.92</ele>
        <time>2015-09-27T07:17:30Z</time>
      </trkpt>
      <trkpt lat="43.45242" lon="6.61402">
        <ele>17.92</ele>
        <time>2015-09-27T07:17:34Z</time>
      </trkpt>
      <trkpt lat="43.45253" lon="6.61379">
        <ele>18.4</ele>
        <time>2015-09-27T07:17:50Z</time>
      </trkpt>
      <trkpt lat="43.45256" lon="6.61377">
        <ele>18.4</ele>
        <time>2015-09-27T07:17:52Z</time>
      </trkpt>
      <trkpt lat="43.45274" lon="6.61373">
        <ele>17.92</ele>
        <time>2015-09-27T07:18:06Z</time>
      </trkpt>
      <trkpt lat="43.45277" lon="6.6137">
        <ele>17.92</ele>
        <time>2015-09-27T07:18:10Z</time>
      </trkpt>
      <trkpt lat="43.4528" lon="6.61367">
        <ele>17.92</ele>
        <time>2015-09-27T07:18:13Z</time>
      </trkpt>
      <trkpt lat="43.45288" lon="6.61342">
        <ele>17.92</ele>
        <time>2015-09-27T07:18:29Z</time>
      </trkpt>
      <trkpt lat="43.45298" lon="6.61318">
        <ele>17.44</ele>
        <time>2015-09-27T07:18:45Z</time>
      </trkpt>
      <trkpt lat="43.45309" lon="6.61302">
        <ele>16.96</ele>
        <time>2015-09-27T07:18:59Z</time>
      </trkpt>
      <trkpt lat="43.45325" lon="6.61287">
        <ele>16.96</ele>
        <time>2015-09-27T07:19:15Z</time>
      </trkpt>
      <trkpt lat="43.45328" lon="6.61286">
        <ele>16.96</ele>
        <time>2015-09-27T07:19:19Z</time>
      </trkpt>
      <trkpt lat="43.45337" lon="6.61286">
        <ele>16.48</ele>
        <time>2015-09-27T07:19:26Z</time>
      </trkpt>
      <trkpt lat="43.45353" lon="6.61292">
        <ele>16.48</ele>
        <time>2015-09-27T07:19:41Z</time>
      </trkpt>
      <trkpt lat="43.45361" lon="6.61296">
        <ele>16.48</ele>
        <time>2015-09-27T07:19:49Z</time>
      </trkpt>
      <trkpt lat="43.45376" lon="6.61301">
        <ele>16.48</ele>
        <time>2015-09-27T07:20:02Z</time>
      </trkpt>
      <trkpt lat="43.45388" lon="6.61292">
        <ele>16.48</ele>
        <time>2015-09-27T07:20:12Z</time>
      </trkpt>
      <trkpt lat="43.45387" lon="6.61274">
        <ele>16.96</ele>
        <time>2015-09-27T07:20:28Z</time>
      </trkpt>
      <trkpt lat="43.45387" lon="6.61273">
        <ele>16.96</ele>
        <time>2015-09-27T07:20:43Z</time>
      </trkpt>
      <trkpt lat="43.45387" lon="6.61274">
        <ele>17.44</ele>
        <time>2015-09-27T07:21:01Z</time>
      </trkpt>
      <trkpt lat="43.45386" lon="6.61274">
        <ele>17.44</ele>
        <time>2015-09-27T07:21:25Z</time>
      </trkpt>
      <trkpt lat="43.45386" lon="6.61274">
        <ele>17.44</ele>
        <time>2015-09-27T07:21:54Z</time>
      </trkpt>
      <trkpt lat="43.45386" lon="6.61274">
        <ele>17.44</ele>
        <time>2015-09-27T07:22:28Z</time>
      </trkpt>
      <trkpt lat="43.45385" lon="6.61272">
        <ele>18.4</ele>
        <time>2015-09-27T07:22:41Z</time>
      </trkpt>
      <trkpt lat="43.45385" lon="6.61268">
        <ele>18.4</ele>
        <time>2015-09-27T07:22:50Z</time>
      </trkpt>
      <trkpt lat="43.45384" lon="6.61262">
        <ele>18.88</ele>
        <time>2015-09-27T07:22:54Z</time>
      </trkpt>
      <trkpt lat="43.45383" lon="6.61255">
        <ele>19.36</ele>
        <time>2015-09-27T07:22:59Z</time>
      </trkpt>
      <trkpt lat="43.45381" lon="6.61242">
        <ele>21.29</ele>
        <time>2015-09-27T07:23:06Z</time>
      </trkpt>
      <trkpt lat="43.45379" lon="6.61237">
        <ele>21.77</ele>
        <time>2015-09-27T07:23:09Z</time>
      </trkpt>
      <trkpt lat="43.45377" lon="6.61229">
        <ele>22.73</ele>
        <time>2015-09-27T07:23:14Z</time>
      </trkpt>
      <trkpt lat="43.45372" lon="6.61219">
        <ele>24.65</ele>
        <time>2015-09-27T07:23:23Z</time>
      </trkpt>
      <trkpt lat="43.45368" lon="6.61206">
        <ele>26.57</ele>
        <time>2015-09-27T07:23:35Z</time>
      </trkpt>
      <trkpt lat="43.45361" lon="6.61189">
        <ele>28.98</ele>
        <time>2015-09-27T07:23:51Z</time>
      </trkpt>
      <trkpt lat="43.45353" lon="6.61176">
        <ele>31.38</ele>
        <time>2015-09-27T07:24:04Z</time>
      </trkpt>
      <trkpt lat="43.45346" lon="6.6116">
        <ele>33.78</ele>
        <time>2015-09-27T07:24:20Z</time>
      </trkpt>
      <trkpt lat="43.45336" lon="6.61147">
        <ele>35.71</ele>
        <time>2015-09-27T07:24:34Z</time>
      </trkpt>
      <trkpt lat="43.45328" lon="6.61131">
        <ele>38.59</ele>
        <time>2015-09-27T07:24:50Z</time>
      </trkpt>
      <trkpt lat="43.45321" lon="6.6112">
        <ele>40.51</ele>
        <time>2015-09-27T07:25:03Z</time>
      </trkpt>
      <trkpt lat="43.45314" lon="6.61111">
        <ele>42.92</ele>
        <time>2015-09-27T07:25:16Z</time>
      </trkpt>
      <trkpt lat="43.45307" lon="6.61101">
        <ele>45.32</ele>
        <time>2015-09-27T07:25:29Z</time>
      </trkpt>
      <trkpt lat="43.453" lon="6.61092">
        <ele>47.72</ele>
        <time>2015-09-27T07:25:41Z</time>
      </trkpt>
      <trkpt lat="43.45291" lon="6.61083">
        <ele>50.13</ele>
        <time>2015-09-27T07:25:55Z</time>
      </trkpt>
      <trkpt lat="43.45285" lon="6.61073">
        <ele>52.05</ele>
        <time>2015-09-27T07:26:09Z</time>
      </trkpt>
      <trkpt lat="43.4528" lon="6.61066">
        <ele>55.41</ele>
        <time>2015-09-27T07:26:21Z</time>
      </trkpt>
      <trkpt lat="43.45274" lon="6.61059">
        <ele>56.86</ele>
        <time>2015-09-27T07:26:31Z</time>
      </trkpt>
      <trkpt lat="43.45267" lon="6.61049">
        <ele>59.74</ele>
        <time>2015-09-27T07:26:44Z</time>
      </trkpt>
      <trkpt lat="43.45258" lon="6.61039">
        <ele>62.14</ele>
        <time>2015-09-27T07:26:58Z</time>
      </trkpt>
      <trkpt lat="43.45254" lon="6.61034">
        <ele>63.58</ele>
        <time>2015-09-27T07:27:04Z</time>
      </trkpt>
      <trkpt lat="43.45249" lon="6.61027">
        <ele>65.51</ele>
        <time>2015-09-27T07:27:13Z</time>
      </trkpt>
      <trkpt lat="43.45243" lon="6.61014">
        <ele>67.91</ele>
        <time>2015-09-27T07:27:27Z</time>
      </trkpt>
      <trkpt lat="43.45238" lon="6.61005">
        <ele>69.83</ele>
        <time>2015-09-27T07:27:40Z</time>
      </trkpt>
      <trkpt lat="43.45235" lon="6.60997">
        <ele>71.76</ele>
        <time>2015-09-27T07:27:52Z</time>
      </trkpt>
      <trkpt lat="43.45229" lon="6.60992">
        <ele>74.16</ele>
        <time>2015-09-27T07:28:05Z</time>
      </trkpt>
      <trkpt lat="43.45224" lon="6.60983">
        <ele>76.08</ele>
        <time>2015-09-27T07:28:19Z</time>
      </trkpt>
      <trkpt lat="43.45222" lon="6.60977">
        <ele>78</ele>
        <time>2015-09-27T07:28:30Z</time>
      </trkpt>
      <trkpt lat="43.45216" lon="6.60967">
        <ele>80.89</ele>
        <time>2015-09-27T07:28:42Z</time>
      </trkpt>
      <trkpt lat="43.4521" lon="6.60958">
        <ele>82.33</ele>
        <time>2015-09-27T07:28:55Z</time>
      </trkpt>
      <trkpt lat="43.45207" lon="6.60951">
        <ele>83.77</ele>
        <time>2015-09-27T07:29:08Z</time>
      </trkpt>
      <trkpt lat="43.45206" lon="6.60938">
        <ele>86.18</ele>
        <time>2015-09-27T07:29:21Z</time>
      </trkpt>
      <trkpt lat="43.452" lon="6.60926">
        <ele>88.58</ele>
        <time>2015-09-27T07:29:35Z</time>
      </trkpt>
      <trkpt lat="43.45198" lon="6.6092">
        <ele>89.06</ele>
        <time>2015-09-27T07:29:41Z</time>
      </trkpt>
      <trkpt lat="43.45195" lon="6.60901">
        <ele>90.5</ele>
        <time>2015-09-27T07:29:57Z</time>
      </trkpt>
      <trkpt lat="43.45192" lon="6.60893">
        <ele>91.46</ele>
        <time>2015-09-27T07:30:04Z</time>
      </trkpt>
      <trkpt lat="43.45187" lon="6.60882">
        <ele>93.39</ele>
        <time>2015-09-27T07:30:18Z</time>
      </trkpt>
      <trkpt lat="43.45186" lon="6.60874">
        <ele>94.83</ele>
        <time>2015-09-27T07:30:30Z</time>
      </trkpt>
      <trkpt lat="43.45184" lon="6.60868">
        <ele>97.23</ele>
        <time>2015-09-27T07:30:44Z</time>
      </trkpt>
      <trkpt lat="43.45179" lon="6.60862">
        <ele>97.23</ele>
        <time>2015-09-27T07:30:57Z</time>
      </trkpt>
      <trkpt lat="43.45175" lon="6.6086">
        <ele>98.67</ele>
        <time>2015-09-27T07:31:14Z</time>
      </trkpt>
      <trkpt lat="43.45175" lon="6.60858">
        <ele>98.67</ele>
        <time>2015-09-27T07:31:28Z</time>
      </trkpt>
      <trkpt lat="43.45177" lon="6.60857">
        <ele>101.56</ele>
        <time>2015-09-27T07:31:39Z</time>
      </trkpt>
      <trkpt lat="43.45177" lon="6.60856">
        <ele>101.08</ele>
        <time>2015-09-27T07:32:01Z</time>
      </trkpt>
      <trkpt lat="43.45177" lon="6.60857">
        <ele>101.56</ele>
        <time>2015-09-27T07:32:19Z</time>
      </trkpt>
      <trkpt lat="43.45177" lon="6.60857">
        <ele>101.08</ele>
        <time>2015-09-27T07:32:32Z</time>
      </trkpt>
      <trkpt lat="43.45178" lon="6.60857">
        <ele>101.08</ele>
        <time>2015-09-27T07:32:52Z</time>
      </trkpt>
      <trkpt lat="43.45179" lon="6.60858">
        <ele>101.08</ele>
        <time>2015-09-27T07:33:10Z</time>
      </trkpt>
      <trkpt lat="43.45179" lon="6.60858">
        <ele>101.56</ele>
        <time>2015-09-27T07:33:29Z</time>
      </trkpt>
      <trkpt lat="43.4518" lon="6.60859">
        <ele>101.08</ele>
        <time>2015-09-27T07:33:53Z</time>
      </trkpt>
      <trkpt lat="43.4518" lon="6.60859">
        <ele>101.56</ele>
        <time>2015-09-27T07:34:12Z</time>
      </trkpt>
      <trkpt lat="43.45181" lon="6.60859">
        <ele>101.08</ele>
        <time>2015-09-27T07:34:32Z</time>
      </trkpt>
      <trkpt lat="43.45181" lon="6.60858">
        <ele>101.08</ele>
        <time>2015-09-27T07:34:55Z</time>
      </trkpt>
      <trkpt lat="43.45182" lon="6.60857">
        <ele>101.08</ele>
        <time>2015-09-27T07:35:17Z</time>
      </trkpt>
      <trkpt lat="43.45181" lon="6.60856">
        <ele>101.08</ele>
        <time>2015-09-27T07:35:22Z</time>
      </trkpt>
      <trkpt lat="43.45178" lon="6.60847">
        <ele>103</ele>
        <time>2015-09-27T07:35:31Z</time>
      </trkpt>
      <trkpt lat="43.45177" lon="6.60839">
        <ele>104.44</ele>
        <time>2015-09-27T07:35:40Z</time>
      </trkpt>
      <trkpt lat="43.45182" lon="6.60833">
        <ele>106.36</ele>
        <time>2015-09-27T07:35:51Z</time>
      </trkpt>
      <trkpt lat="43.45184" lon="6.60832">
        <ele>106.36</ele>
        <time>2015-09-27T07:36:05Z</time>
      </trkpt>
      <trkpt lat="43.45192" lon="6.60828">
        <ele>107.32</ele>
        <time>2015-09-27T07:36:20Z</time>
      </trkpt>
      <trkpt lat="43.45192" lon="6.60827">
        <ele>107.32</ele>
        <time>2015-09-27T07:36:23Z</time>
      </trkpt>
      <trkpt lat="43.45199" lon="6.6083">
        <ele>107.32</ele>
        <time>2015-09-27T07:36:29Z</time>
      </trkpt>
      <trkpt lat="43.45208" lon="6.60836">
        <ele>108.29</ele>
        <time>2015-09-27T07:36:40Z</time>
      </trkpt>
      <trkpt lat="43.45211" lon="6.60833">
        <ele>108.77</ele>
        <time>2015-09-27T07:36:44Z</time>
      </trkpt>
      <trkpt lat="43.45209" lon="6.60817">
        <ele>110.69</ele>
        <time>2015-09-27T07:37:01Z</time>
      </trkpt>
      <trkpt lat="43.45211" lon="6.60816">
        <ele>110.21</ele>
        <time>2015-09-27T07:37:05Z</time>
      </trkpt>
      <trkpt lat="43.45221" lon="6.60812">
        <ele>109.73</ele>
        <time>2015-09-27T07:37:19Z</time>
      </trkpt>
      <trkpt lat="43.45223" lon="6.60812">
        <ele>110.21</ele>
        <time>2015-09-27T07:37:21Z</time>
      </trkpt>
      <trkpt lat="43.45226" lon="6.60813">
        <ele>110.21</ele>
        <time>2015-09-27T07:37:24Z</time>
      </trkpt>
      <trkpt lat="43.45234" lon="6.60811">
        <ele>109.25</ele>
        <time>2015-09-27T07:37:33Z</time>
      </trkpt>
      <trkpt lat="43.45244" lon="6.60805">
        <ele>107.81</ele>
        <time>2015-09-27T07:37:47Z</time>
      </trkpt>
      <trkpt lat="43.45247" lon="6.60804">
        <ele>106.84</ele>
        <time>2015-09-27T07:37:52Z</time>
      </trkpt>
      <trkpt lat="43.4525" lon="6.60803">
        <ele>105.88</ele>
        <time>2015-09-27T07:37:56Z</time>
      </trkpt>
      <trkpt lat="43.45254" lon="6.60801">
        <ele>105.4</ele>
        <time>2015-09-27T07:38:00Z</time>
      </trkpt>
      <trkpt lat="43.45264" lon="6.60796">
        <ele>103.48</ele>
        <time>2015-09-27T07:38:14Z</time>
      </trkpt>
      <trkpt lat="43.4527" lon="6.60789">
        <ele>102.52</ele>
        <time>2015-09-27T07:38:26Z</time>
      </trkpt>
      <trkpt lat="43.4527" lon="6.60788">
        <ele>102.04</ele>
        <time>2015-09-27T07:38:45Z</time>
      </trkpt>
      <trkpt lat="43.4527" lon="6.60787">
        <ele>102.04</ele>
        <time>2015-09-27T07:39:20Z</time>
      </trkpt>
      <trkpt lat="43.45272" lon="6.60785">
        <ele>102.04</ele>
        <time>2015-09-27T07:39:30Z</time>
      </trkpt>
      <trkpt lat="43.45276" lon="6.60776">
        <ele>103</ele>
        <time>2015-09-27T07:39:42Z</time>
      </trkpt>
      <trkpt lat="43.45277" lon="6.60776">
        <ele>103</ele>
        <time>2015-09-27T07:39:43Z</time>
      </trkpt>
      <trkpt lat="43.45283" lon="6.60771">
        <ele>103.48</ele>
        <time>2015-09-27T07:39:50Z</time>
      </trkpt>
      <trkpt lat="43.45291" lon="6.60757">
        <ele>103.48</ele>
        <time>2015-09-27T07:40:06Z</time>
      </trkpt>
      <trkpt lat="43.45291" lon="6.60735">
        <ele>104.44</ele>
        <time>2015-09-27T07:40:22Z</time>
      </trkpt>
      <trkpt lat="43.45292" lon="6.60733">
        <ele>101.08</ele>
        <time>2015-09-27T07:40:24Z</time>
      </trkpt>
      <trkpt lat="43.45292" lon="6.60731">
        <ele>106.36</ele>
        <time>2015-09-27T07:40:25Z</time>
      </trkpt>
      <trkpt lat="43.45293" lon="6.60727">
        <ele>103.48</ele>
        <time>2015-09-27T07:40:27Z</time>
      </trkpt>
      <trkpt lat="43.453" lon="6.60712">
        <ele>105.4</ele>
        <time>2015-09-27T07:40:42Z</time>
      </trkpt>
      <trkpt lat="43.45305" lon="6.60692">
        <ele>105.4</ele>
        <time>2015-09-27T07:40:57Z</time>
      </trkpt>
      <trkpt lat="43.45306" lon="6.60673">
        <ele>106.84</ele>
        <time>2015-09-27T07:41:11Z</time>
      </trkpt>
      <trkpt lat="43.45304" lon="6.60658">
        <ele>106.84</ele>
        <time>2015-09-27T07:41:26Z</time>
      </trkpt>
      <trkpt lat="43.45301" lon="6.60642">
        <ele>105.4</ele>
        <time>2015-09-27T07:41:40Z</time>
      </trkpt>
      <trkpt lat="43.45302" lon="6.60632">
        <ele>106.84</ele>
        <time>2015-09-27T07:41:56Z</time>
      </trkpt>
      <trkpt lat="43.45307" lon="6.60621">
        <ele>108.77</ele>
        <time>2015-09-27T07:42:11Z</time>
      </trkpt>
      <trkpt lat="43.45313" lon="6.60618">
        <ele>110.21</ele>
        <time>2015-09-27T07:42:26Z</time>
      </trkpt>
      <trkpt lat="43.4532" lon="6.6061">
        <ele>112.61</ele>
        <time>2015-09-27T07:42:44Z</time>
      </trkpt>
      <trkpt lat="43.45321" lon="6.60602">
        <ele>115.01</ele>
        <time>2015-09-27T07:43:01Z</time>
      </trkpt>
      <trkpt lat="43.45321" lon="6.606">
        <ele>117.9</ele>
        <time>2015-09-27T07:43:18Z</time>
      </trkpt>
      <trkpt lat="43.45318" lon="6.60588">
        <ele>119.82</ele>
        <time>2015-09-27T07:43:36Z</time>
      </trkpt>
      <trkpt lat="43.45318" lon="6.60583">
        <ele>122.22</ele>
        <time>2015-09-27T07:43:53Z</time>
      </trkpt>
      <trkpt lat="43.45319" lon="6.60573">
        <ele>125.11</ele>
        <time>2015-09-27T07:44:09Z</time>
      </trkpt>
      <trkpt lat="43.45321" lon="6.60571">
        <ele>127.51</ele>
        <time>2015-09-27T07:44:24Z</time>
      </trkpt>
      <trkpt lat="43.45324" lon="6.60569">
        <ele>128.95</ele>
        <time>2015-09-27T07:44:37Z</time>
      </trkpt>
      <trkpt lat="43.45328" lon="6.60562">
        <ele>130.88</ele>
        <time>2015-09-27T07:44:54Z</time>
      </trkpt>
      <trkpt lat="43.4533" lon="6.60563">
        <ele>132.8</ele>
        <time>2015-09-27T07:45:07Z</time>
      </trkpt>
      <trkpt lat="43.45331" lon="6.60561">
        <ele>136.16</ele>
        <time>2015-09-27T07:45:26Z</time>
      </trkpt>
      <trkpt lat="43.45332" lon="6.6056">
        <ele>138.09</ele>
        <time>2015-09-27T07:45:45Z</time>
      </trkpt>
      <trkpt lat="43.45334" lon="6.60558">
        <ele>140.97</ele>
        <time>2015-09-27T07:46:02Z</time>
      </trkpt>
      <trkpt lat="43.45339" lon="6.60551">
        <ele>143.37</ele>
        <time>2015-09-27T07:46:16Z</time>
      </trkpt>
      <trkpt lat="43.45343" lon="6.60544">
        <ele>145.3</ele>
        <time>2015-09-27T07:46:29Z</time>
      </trkpt>
      <trkpt lat="43.45348" lon="6.60541">
        <ele>148.18</ele>
        <time>2015-09-27T07:46:46Z</time>
      </trkpt>
      <trkpt lat="43.45349" lon="6.60534">
        <ele>149.14</ele>
        <time>2015-09-27T07:47:06Z</time>
      </trkpt>
      <trkpt lat="43.45349" lon="6.60535">
        <ele>149.62</ele>
        <time>2015-09-27T07:47:28Z</time>
      </trkpt>
      <trkpt lat="43.45347" lon="6.60533">
        <ele>151.54</ele>
        <time>2015-09-27T07:47:42Z</time>
      </trkpt>
      <trkpt lat="43.45344" lon="6.60526">
        <ele>153.47</ele>
        <time>2015-09-27T07:47:51Z</time>
      </trkpt>
      <trkpt lat="43.45342" lon="6.60527">
        <ele>152.99</ele>
        <time>2015-09-27T07:47:53Z</time>
      </trkpt>
      <trkpt lat="43.45334" lon="6.60532">
        <ele>153.47</ele>
        <time>2015-09-27T07:48:08Z</time>
      </trkpt>
      <trkpt lat="43.45334" lon="6.6053">
        <ele>153.47</ele>
        <time>2015-09-27T07:48:18Z</time>
      </trkpt>
      <trkpt lat="43.45331" lon="6.60532">
        <ele>153.47</ele>
        <time>2015-09-27T07:48:33Z</time>
      </trkpt>
      <trkpt lat="43.45331" lon="6.60529">
        <ele>153.95</ele>
        <time>2015-09-27T07:48:58Z</time>
      </trkpt>
      <trkpt lat="43.4533" lon="6.60525">
        <ele>153.95</ele>
        <time>2015-09-27T07:49:13Z</time>
      </trkpt>
      <trkpt lat="43.4533" lon="6.60523">
        <ele>153.47</ele>
        <time>2015-09-27T07:49:37Z</time>
      </trkpt>
      <trkpt lat="43.4533" lon="6.60521">
        <ele>153.47</ele>
        <time>2015-09-27T07:50:01Z</time>
      </trkpt>
      <trkpt lat="43.45329" lon="6.60521">
        <ele>153.47</ele>
        <time>2015-09-27T07:50:27Z</time>
      </trkpt>
      <trkpt lat="43.4533" lon="6.6052">
        <ele>153.95</ele>
        <time>2015-09-27T07:50:47Z</time>
      </trkpt>
      <trkpt lat="43.4533" lon="6.6052">
        <ele>153.47</ele>
        <time>2015-09-27T07:51:08Z</time>
      </trkpt>
      <trkpt lat="43.4533" lon="6.60523">
        <ele>153.47</ele>
        <time>2015-09-27T07:51:25Z</time>
      </trkpt>
      <trkpt lat="43.4533" lon="6.60522">
        <ele>153.47</ele>
        <time>2015-09-27T07:51:41Z</time>
      </trkpt>
      <trkpt lat="43.45331" lon="6.60523">
        <ele>152.99</ele>
        <time>2015-09-27T07:51:59Z</time>
      </trkpt>
      <trkpt lat="43.45331" lon="6.6052">
        <ele>152.99</ele>
        <time>2015-09-27T07:52:12Z</time>
      </trkpt>
      <trkpt lat="43.45331" lon="6.60516">
        <ele>152.99</ele>
        <time>2015-09-27T07:52:35Z</time>
      </trkpt>
      <trkpt lat="43.45331" lon="6.60516">
        <ele>152.99</ele>
        <time>2015-09-27T07:52:56Z</time>
      </trkpt>
      <trkpt lat="43.4533" lon="6.60513">
        <ele>152.99</ele>
        <time>2015-09-27T07:53:22Z</time>
      </trkpt>
      <trkpt lat="43.45331" lon="6.60514">
        <ele>152.99</ele>
        <time>2015-09-27T07:53:43Z</time>
      </trkpt>
      <trkpt lat="43.45332" lon="6.60519">
        <ele>152.51</ele>
        <time>2015-09-27T07:54:08Z</time>
      </trkpt>
      <trkpt lat="43.45333" lon="6.60515">
        <ele>152.51</ele>
        <time>2015-09-27T07:54:22Z</time>
      </trkpt>
      <trkpt lat="43.45334" lon="6.60517">
        <ele>152.03</ele>
        <time>2015-09-27T07:54:37Z</time>
      </trkpt>
      <trkpt lat="43.45334" lon="6.60517">
        <ele>152.03</ele>
        <time>2015-09-27T07:54:39Z</time>
      </trkpt>
      <trkpt lat="43.45333" lon="6.60507">
        <ele>152.03</ele>
        <time>2015-09-27T07:54:54Z</time>
      </trkpt>
      <trkpt lat="43.4534" lon="6.60506">
        <ele>151.54</ele>
        <time>2015-09-27T07:55:07Z</time>
      </trkpt>
      <trkpt lat="43.4535" lon="6.60516">
        <ele>151.54</ele>
        <time>2015-09-27T07:55:15Z</time>
      </trkpt>
      <trkpt lat="43.45361" lon="6.60515">
        <ele>148.66</ele>
        <time>2015-09-27T07:55:29Z</time>
      </trkpt>
      <trkpt lat="43.45364" lon="6.60516">
        <ele>147.22</ele>
        <time>2015-09-27T07:55:43Z</time>
      </trkpt>
      <trkpt lat="43.45373" lon="6.60517">
        <ele>144.34</ele>
        <time>2015-09-27T07:55:57Z</time>
      </trkpt>
      <trkpt lat="43.45374" lon="6.60517">
        <ele>143.85</ele>
        <time>2015-09-27T07:55:58Z</time>
      </trkpt>
      <trkpt lat="43.45382" lon="6.60508">
        <ele>141.93</ele>
        <time>2015-09-27T07:56:05Z</time>
      </trkpt>
      <trkpt lat="43.45385" lon="6.60505">
        <ele>140.49</ele>
        <time>2015-09-27T07:56:20Z</time>
      </trkpt>
      <trkpt lat="43.45386" lon="6.60502">
        <ele>140.01</ele>
        <time>2015-09-27T07:56:37Z</time>
      </trkpt>
      <trkpt lat="43.45388" lon="6.60498">
        <ele>139.53</ele>
        <time>2015-09-27T07:56:45Z</time>
      </trkpt>
      <trkpt lat="43.4539" lon="6.60493">
        <ele>139.53</ele>
        <time>2015-09-27T07:56:49Z</time>
      </trkpt>
      <trkpt lat="43.45398" lon="6.6048">
        <ele>138.57</ele>
        <time>2015-09-27T07:57:02Z</time>
      </trkpt>
      <trkpt lat="43.45402" lon="6.60467">
        <ele>139.53</ele>
        <time>2015-09-27T07:57:17Z</time>
      </trkpt>
      <trkpt lat="43.45404" lon="6.60457">
        <ele>140.01</ele>
        <time>2015-09-27T07:57:29Z</time>
      </trkpt>
      <trkpt lat="43.45403" lon="6.60448">
        <ele>141.93</ele>
        <time>2015-09-27T07:57:43Z</time>
      </trkpt>
      <trkpt lat="43.45401" lon="6.60436">
        <ele>144.34</ele>
        <time>2015-09-27T07:57:56Z</time>
      </trkpt>
      <trkpt lat="43.4541" lon="6.60429">
        <ele>142.41</ele>
        <time>2015-09-27T07:58:06Z</time>
      </trkpt>
      <trkpt lat="43.45411" lon="6.60414">
        <ele>141.45</ele>
        <time>2015-09-27T07:58:19Z</time>
      </trkpt>
      <trkpt lat="43.4541" lon="6.60408">
        <ele>141.45</ele>
        <time>2015-09-27T07:58:24Z</time>
      </trkpt>
      <trkpt lat="43.45405" lon="6.60397">
        <ele>141.93</ele>
        <time>2015-09-27T07:58:36Z</time>
      </trkpt>
      <trkpt lat="43.45411" lon="6.60379">
        <ele>140.01</ele>
        <time>2015-09-27T07:58:52Z</time>
      </trkpt>
      <trkpt lat="43.45417" lon="6.60367">
        <ele>141.45</ele>
        <time>2015-09-27T07:59:07Z</time>
      </trkpt>
      <trkpt lat="43.45414" lon="6.60356">
        <ele>143.37</ele>
        <time>2015-09-27T07:59:24Z</time>
      </trkpt>
      <trkpt lat="43.45409" lon="6.60344">
        <ele>144.34</ele>
        <time>2015-09-27T07:59:36Z</time>
      </trkpt>
      <trkpt lat="43.45408" lon="6.60335">
        <ele>145.3</ele>
        <time>2015-09-27T07:59:48Z</time>
      </trkpt>
      <trkpt lat="43.45408" lon="6.60322">
        <ele>144.34</ele>
        <time>2015-09-27T08:00:03Z</time>
      </trkpt>
      <trkpt lat="43.45409" lon="6.60308">
        <ele>145.78</ele>
        <time>2015-09-27T08:00:19Z</time>
      </trkpt>
      <trkpt lat="43.45399" lon="6.60297">
        <ele>148.18</ele>
        <time>2015-09-27T08:00:34Z</time>
      </trkpt>
      <trkpt lat="43.45398" lon="6.60291">
        <ele>148.18</ele>
        <time>2015-09-27T08:00:47Z</time>
      </trkpt>
      <trkpt lat="43.45399" lon="6.60285">
        <ele>147.22</ele>
        <time>2015-09-27T08:00:52Z</time>
      </trkpt>
      <trkpt lat="43.45389" lon="6.60276">
        <ele>149.14</ele>
        <time>2015-09-27T08:01:04Z</time>
      </trkpt>
      <trkpt lat="43.45388" lon="6.60276">
        <ele>150.1</ele>
        <time>2015-09-27T08:01:13Z</time>
      </trkpt>
      <trkpt lat="43.4539" lon="6.60272">
        <ele>150.58</ele>
        <time>2015-09-27T08:01:16Z</time>
      </trkpt>
      <trkpt lat="43.45385" lon="6.6026">
        <ele>151.54</ele>
        <time>2015-09-27T08:01:27Z</time>
      </trkpt>
      <trkpt lat="43.45384" lon="6.60255">
        <ele>152.99</ele>
        <time>2015-09-27T08:01:35Z</time>
      </trkpt>
      <trkpt lat="43.45384" lon="6.60252">
        <ele>152.99</ele>
        <time>2015-09-27T08:01:37Z</time>
      </trkpt>
      <trkpt lat="43.45383" lon="6.60246">
        <ele>153.47</ele>
        <time>2015-09-27T08:01:40Z</time>
      </trkpt>
      <trkpt lat="43.45386" lon="6.60241">
        <ele>153.95</ele>
        <time>2015-09-27T08:01:51Z</time>
      </trkpt>
      <trkpt lat="43.45384" lon="6.60242">
        <ele>151.54</ele>
        <time>2015-09-27T08:02:06Z</time>
      </trkpt>
      <trkpt lat="43.45382" lon="6.60241">
        <ele>150.58</ele>
        <time>2015-09-27T08:02:13Z</time>
      </trkpt>
      <trkpt lat="43.45382" lon="6.60238">
        <ele>148.18</ele>
        <time>2015-09-27T08:02:23Z</time>
      </trkpt>
      <trkpt lat="43.45379" lon="6.60229">
        <ele>149.14</ele>
        <time>2015-09-27T08:02:36Z</time>
      </trkpt>
      <trkpt lat="43.45378" lon="6.60223">
        <ele>150.1</ele>
        <time>2015-09-27T08:02:48Z</time>
      </trkpt>
      <trkpt lat="43.45381" lon="6.60223">
        <ele>150.1</ele>
        <time>2015-09-27T08:03:10Z</time>
      </trkpt>
      <trkpt lat="43.45379" lon="6.60223">
        <ele>150.1</ele>
        <time>2015-09-27T08:03:35Z</time>
      </trkpt>
      <trkpt lat="43.45379" lon="6.60224">
        <ele>150.1</ele>
        <time>2015-09-27T08:04:08Z</time>
      </trkpt>
      <trkpt lat="43.4538" lon="6.60216">
        <ele>151.06</ele>
        <time>2015-09-27T08:04:19Z</time>
      </trkpt>
      <trkpt lat="43.45382" lon="6.60206">
        <ele>149.14</ele>
        <time>2015-09-27T08:04:31Z</time>
      </trkpt>
      <trkpt lat="43.45383" lon="6.60202">
        <ele>146.26</ele>
        <time>2015-09-27T08:04:43Z</time>
      </trkpt>
      <trkpt lat="43.45384" lon="6.602">
        <ele>145.3</ele>
        <time>2015-09-27T08:04:59Z</time>
      </trkpt>
      <trkpt lat="43.4539" lon="6.60195">
        <ele>143.37</ele>
        <time>2015-09-27T08:05:18Z</time>
      </trkpt>
      <trkpt lat="43.45392" lon="6.60191">
        <ele>140.01</ele>
        <time>2015-09-27T08:05:31Z</time>
      </trkpt>
      <trkpt lat="43.45396" lon="6.60187">
        <ele>139.53</ele>
        <time>2015-09-27T08:05:47Z</time>
      </trkpt>
      <trkpt lat="43.45397" lon="6.60185">
        <ele>138.57</ele>
        <time>2015-09-27T08:06:03Z</time>
      </trkpt>
      <trkpt lat="43.45397" lon="6.60183">
        <ele>139.05</ele>
        <time>2015-09-27T08:06:09Z</time>
      </trkpt>
      <trkpt lat="43.45399" lon="6.60177">
        <ele>139.05</ele>
        <time>2015-09-27T08:06:20Z</time>
      </trkpt>
      <trkpt lat="43.45399" lon="6.60172">
        <ele>137.13</ele>
        <time>2015-09-27T08:06:38Z</time>
      </trkpt>
      <trkpt lat="43.45402" lon="6.60165">
        <ele>135.2</ele>
        <time>2015-09-27T08:06:55Z</time>
      </trkpt>
      <trkpt lat="43.45408" lon="6.60161">
        <ele>132.32</ele>
        <time>2015-09-27T08:07:11Z</time>
      </trkpt>
      <trkpt lat="43.45415" lon="6.60156">
        <ele>129.43</ele>
        <time>2015-09-27T08:07:28Z</time>
      </trkpt>
      <trkpt lat="43.45419" lon="6.60159">
        <ele>127.51</ele>
        <time>2015-09-27T08:07:43Z</time>
      </trkpt>
      <trkpt lat="43.45423" lon="6.60156">
        <ele>127.03</ele>
        <time>2015-09-27T08:08:04Z</time>
      </trkpt>
      <trkpt lat="43.45424" lon="6.60161">
        <ele>125.59</ele>
        <time>2015-09-27T08:08:20Z</time>
      </trkpt>
      <trkpt lat="43.45428" lon="6.60158">
        <ele>123.67</ele>
        <time>2015-09-27T08:08:32Z</time>
      </trkpt>
      <trkpt lat="43.45433" lon="6.60151">
        <ele>122.22</ele>
        <time>2015-09-27T08:08:45Z</time>
      </trkpt>
      <trkpt lat="43.45441" lon="6.60148">
        <ele>121.74</ele>
        <time>2015-09-27T08:08:57Z</time>
      </trkpt>
      <trkpt lat="43.45442" lon="6.60147">
        <ele>121.74</ele>
        <time>2015-09-27T08:09:13Z</time>
      </trkpt>
      <trkpt lat="43.45442" lon="6.60143">
        <ele>121.74</ele>
        <time>2015-09-27T08:09:43Z</time>
      </trkpt>
      <trkpt lat="43.45442" lon="6.60143">
        <ele>121.74</ele>
        <time>2015-09-27T08:10:15Z</time>
      </trkpt>
      <trkpt lat="43.45443" lon="6.60143">
        <ele>121.74</ele>
        <time>2015-09-27T08:10:40Z</time>
      </trkpt>
      <trkpt lat="43.45442" lon="6.60143">
        <ele>121.74</ele>
        <time>2015-09-27T08:11:03Z</time>
      </trkpt>
      <trkpt lat="43.45442" lon="6.60142">
        <ele>123.19</ele>
        <time>2015-09-27T08:11:26Z</time>
      </trkpt>
      <trkpt lat="43.45443" lon="6.60142">
        <ele>121.74</ele>
        <time>2015-09-27T08:11:48Z</time>
      </trkpt>
      <trkpt lat="43.45443" lon="6.60141">
        <ele>121.74</ele>
        <time>2015-09-27T08:12:08Z</time>
      </trkpt>
      <trkpt lat="43.45444" lon="6.60141">
        <ele>121.74</ele>
        <time>2015-09-27T08:12:31Z</time>
      </trkpt>
      <trkpt lat="43.45444" lon="6.60142">
        <ele>121.74</ele>
        <time>2015-09-27T08:13:05Z</time>
      </trkpt>
      <trkpt lat="43.45449" lon="6.60138">
        <ele>122.22</ele>
        <time>2015-09-27T08:13:18Z</time>
      </trkpt>
      <trkpt lat="43.45457" lon="6.60123">
        <ele>124.15</ele>
        <time>2015-09-27T08:13:34Z</time>
      </trkpt>
      <trkpt lat="43.45462" lon="6.60108">
        <ele>125.11</ele>
        <time>2015-09-27T08:13:48Z</time>
      </trkpt>
      <trkpt lat="43.45462" lon="6.60103">
        <ele>126.07</ele>
        <time>2015-09-27T08:13:54Z</time>
      </trkpt>
      <trkpt lat="43.45463" lon="6.60096">
        <ele>127.03</ele>
        <time>2015-09-27T08:14:07Z</time>
      </trkpt>
      <trkpt lat="43.45462" lon="6.6009">
        <ele>128.95</ele>
        <time>2015-09-27T08:14:23Z</time>
      </trkpt>
      <trkpt lat="43.45456" lon="6.60082">
        <ele>131.84</ele>
        <time>2015-09-27T08:14:38Z</time>
      </trkpt>
      <trkpt lat="43.45455" lon="6.60078">
        <ele>134.24</ele>
        <time>2015-09-27T08:14:50Z</time>
      </trkpt>
      <trkpt lat="43.45454" lon="6.60072">
        <ele>136.16</ele>
        <time>2015-09-27T08:15:04Z</time>
      </trkpt>
      <trkpt lat="43.45451" lon="6.60068">
        <ele>138.57</ele>
        <time>2015-09-27T08:15:15Z</time>
      </trkpt>
      <trkpt lat="43.45452" lon="6.60058">
        <ele>138.57</ele>
        <time>2015-09-27T08:15:28Z</time>
      </trkpt>
      <trkpt lat="43.45453" lon="6.6005">
        <ele>135.68</ele>
        <time>2015-09-27T08:15:43Z</time>
      </trkpt>
      <trkpt lat="43.45454" lon="6.60046">
        <ele>133.28</ele>
        <time>2015-09-27T08:16:00Z</time>
      </trkpt>
      <trkpt lat="43.45456" lon="6.60042">
        <ele>132.8</ele>
        <time>2015-09-27T08:16:16Z</time>
      </trkpt>
      <trkpt lat="43.4546" lon="6.60042">
        <ele>130.88</ele>
        <time>2015-09-27T08:16:28Z</time>
      </trkpt>
      <trkpt lat="43.4547" lon="6.60038">
        <ele>128.47</ele>
        <time>2015-09-27T08:16:44Z</time>
      </trkpt>
      <trkpt lat="43.45476" lon="6.60035">
        <ele>129.92</ele>
        <time>2015-09-27T08:16:56Z</time>
      </trkpt>
      <trkpt lat="43.45476" lon="6.60034">
        <ele>130.4</ele>
        <time>2015-09-27T08:17:00Z</time>
      </trkpt>
      <trkpt lat="43.45481" lon="6.60034">
        <ele>128.95</ele>
        <time>2015-09-27T08:17:09Z</time>
      </trkpt>
      <trkpt lat="43.45485" lon="6.60031">
        <ele>128.47</ele>
        <time>2015-09-27T08:17:24Z</time>
      </trkpt>
      <trkpt lat="43.45489" lon="6.6003">
        <ele>126.55</ele>
        <time>2015-09-27T08:17:40Z</time>
      </trkpt>
      <trkpt lat="43.455" lon="6.60021">
        <ele>126.07</ele>
        <time>2015-09-27T08:17:55Z</time>
      </trkpt>
      <trkpt lat="43.45508" lon="6.6002">
        <ele>124.15</ele>
        <time>2015-09-27T08:18:11Z</time>
      </trkpt>
      <trkpt lat="43.45511" lon="6.60019">
        <ele>122.22</ele>
        <time>2015-09-27T08:18:27Z</time>
      </trkpt>
      <trkpt lat="43.45514" lon="6.6002">
        <ele>120.3</ele>
        <time>2015-09-27T08:18:45Z</time>
      </trkpt>
      <trkpt lat="43.45519" lon="6.60021">
        <ele>118.38</ele>
        <time>2015-09-27T08:18:59Z</time>
      </trkpt>
      <trkpt lat="43.45525" lon="6.60017">
        <ele>116.94</ele>
        <time>2015-09-27T08:19:12Z</time>
      </trkpt>
      <trkpt lat="43.45527" lon="6.60012">
        <ele>115.5</ele>
        <time>2015-09-27T08:19:27Z</time>
      </trkpt>
      <trkpt lat="43.45526" lon="6.60004">
        <ele>117.42</ele>
        <time>2015-09-27T08:19:44Z</time>
      </trkpt>
      <trkpt lat="43.45523" lon="6.59998">
        <ele>119.34</ele>
        <time>2015-09-27T08:19:58Z</time>
      </trkpt>
      <trkpt lat="43.45522" lon="6.59995">
        <ele>120.3</ele>
        <time>2015-09-27T08:20:14Z</time>
      </trkpt>
      <trkpt lat="43.45521" lon="6.59992">
        <ele>121.74</ele>
        <time>2015-09-27T08:20:29Z</time>
      </trkpt>
      <trkpt lat="43.45519" lon="6.59985">
        <ele>124.15</ele>
        <time>2015-09-27T08:20:45Z</time>
      </trkpt>
      <trkpt lat="43.45518" lon="6.59979">
        <ele>122.71</ele>
        <time>2015-09-27T08:20:57Z</time>
      </trkpt>
      <trkpt lat="43.45519" lon="6.59971">
        <ele>121.74</ele>
        <time>2015-09-27T08:21:14Z</time>
      </trkpt>
      <trkpt lat="43.45525" lon="6.59954">
        <ele>118.86</ele>
        <time>2015-09-27T08:21:29Z</time>
      </trkpt>
      <trkpt lat="43.45529" lon="6.59941">
        <ele>117.42</ele>
        <time>2015-09-27T08:21:43Z</time>
      </trkpt>
      <trkpt lat="43.45529" lon="6.59938">
        <ele>117.42</ele>
        <time>2015-09-27T08:21:48Z</time>
      </trkpt>
      <trkpt lat="43.45532" lon="6.59926">
        <ele>116.94</ele>
        <time>2015-09-27T08:22:01Z</time>
      </trkpt>
      <trkpt lat="43.45531" lon="6.59924">
        <ele>115.98</ele>
        <time>2015-09-27T08:22:17Z</time>
      </trkpt>
      <trkpt lat="43.45535" lon="6.59922">
        <ele>113.09</ele>
        <time>2015-09-27T08:22:31Z</time>
      </trkpt>
      <trkpt lat="43.45534" lon="6.59916">
        <ele>110.69</ele>
        <time>2015-09-27T08:22:45Z</time>
      </trkpt>
      <trkpt lat="43.45537" lon="6.59905">
        <ele>109.25</ele>
        <time>2015-09-27T08:22:57Z</time>
      </trkpt>
      <trkpt lat="43.45537" lon="6.59902">
        <ele>109.73</ele>
        <time>2015-09-27T08:23:09Z</time>
      </trkpt>
      <trkpt lat="43.45536" lon="6.599">
        <ele>111.17</ele>
        <time>2015-09-27T08:23:27Z</time>
      </trkpt>
      <trkpt lat="43.45537" lon="6.599">
        <ele>109.73</ele>
        <time>2015-09-27T08:23:44Z</time>
      </trkpt>
      <trkpt lat="43.45538" lon="6.599">
        <ele>110.21</ele>
        <time>2015-09-27T08:24:01Z</time>
      </trkpt>
      <trkpt lat="43.45537" lon="6.599">
        <ele>109.73</ele>
        <time>2015-09-27T08:24:26Z</time>
      </trkpt>
      <trkpt lat="43.45537" lon="6.59901">
        <ele>109.73</ele>
        <time>2015-09-27T08:24:47Z</time>
      </trkpt>
      <trkpt lat="43.45537" lon="6.599">
        <ele>109.73</ele>
        <time>2015-09-27T08:25:13Z</time>
      </trkpt>
      <trkpt lat="43.45538" lon="6.599">
        <ele>109.73</ele>
        <time>2015-09-27T08:25:36Z</time>
      </trkpt>
      <trkpt lat="43.45538" lon="6.599">
        <ele>109.73</ele>
        <time>2015-09-27T08:25:57Z</time>
      </trkpt>
      <trkpt lat="43.45538" lon="6.599">
        <ele>109.73</ele>
        <time>2015-09-27T08:26:23Z</time>
      </trkpt>
      <trkpt lat="43.45537" lon="6.599">
        <ele>109.73</ele>
        <time>2015-09-27T08:26:57Z</time>
      </trkpt>
      <trkpt lat="43.45537" lon="6.599">
        <ele>109.73</ele>
        <time>2015-09-27T08:27:24Z</time>
      </trkpt>
      <trkpt lat="43.45537" lon="6.599">
        <ele>109.73</ele>
        <time>2015-09-27T08:27:52Z</time>
      </trkpt>
      <trkpt lat="43.45535" lon="6.59894">
        <ele>110.69</ele>
        <time>2015-09-27T08:28:05Z</time>
      </trkpt>
      <trkpt lat="43.45534" lon="6.59886">
        <ele>110.69</ele>
        <time>2015-09-27T08:28:16Z</time>
      </trkpt>
      <trkpt lat="43.45531" lon="6.59878">
        <ele>113.57</ele>
        <time>2015-09-27T08:28:28Z</time>
      </trkpt>
      <trkpt lat="43.45529" lon="6.59874">
        <ele>114.05</ele>
        <time>2015-09-27T08:28:32Z</time>
      </trkpt>
      <trkpt lat="43.45522" lon="6.59867">
        <ele>114.05</ele>
        <time>2015-09-27T08:28:45Z</time>
      </trkpt>
      <trkpt lat="43.45523" lon="6.59864">
        <ele>112.13</ele>
        <time>2015-09-27T08:28:52Z</time>
      </trkpt>
      <trkpt lat="43.45526" lon="6.59859">
        <ele>113.57</ele>
        <time>2015-09-27T08:29:03Z</time>
      </trkpt>
      <trkpt lat="43.45525" lon="6.59853">
        <ele>115.5</ele>
        <time>2015-09-27T08:29:16Z</time>
      </trkpt>
      <trkpt lat="43.4552" lon="6.59847">
        <ele>117.42</ele>
        <time>2015-09-27T08:29:29Z</time>
      </trkpt>
      <trkpt lat="43.45514" lon="6.59844">
        <ele>119.34</ele>
        <time>2015-09-27T08:29:41Z</time>
      </trkpt>
      <trkpt lat="43.45514" lon="6.59839">
        <ele>121.26</ele>
        <time>2015-09-27T08:29:53Z</time>
      </trkpt>
      <trkpt lat="43.45513" lon="6.59837">
        <ele>121.74</ele>
        <time>2015-09-27T08:30:08Z</time>
      </trkpt>
      <trkpt lat="43.45516" lon="6.59828">
        <ele>124.15</ele>
        <time>2015-09-27T08:30:20Z</time>
      </trkpt>
      <trkpt lat="43.45519" lon="6.59824">
        <ele>126.55</ele>
        <time>2015-09-27T08:30:34Z</time>
      </trkpt>
      <trkpt lat="43.4552" lon="6.59824">
        <ele>125.11</ele>
        <time>2015-09-27T08:30:42Z</time>
      </trkpt>
      <trkpt lat="43.45525" lon="6.59817">
        <ele>124.63</ele>
        <time>2015-09-27T08:30:53Z</time>
      </trkpt>
      <trkpt lat="43.4553" lon="6.59813">
        <ele>123.19</ele>
        <time>2015-09-27T08:31:08Z</time>
      </trkpt>
      <trkpt lat="43.4553" lon="6.59812">
        <ele>123.19</ele>
        <time>2015-09-27T08:31:24Z</time>
      </trkpt>
      <trkpt lat="43.45535" lon="6.59806">
        <ele>122.71</ele>
        <time>2015-09-27T08:31:38Z</time>
      </trkpt>
      <trkpt lat="43.4554" lon="6.59806">
        <ele>121.26</ele>
        <time>2015-09-27T08:31:51Z</time>
      </trkpt>
      <trkpt lat="43.45549" lon="6.59799">
        <ele>118.86</ele>
        <time>2015-09-27T08:32:04Z</time>
      </trkpt>
      <trkpt lat="43.45552" lon="6.59794">
        <ele>118.38</ele>
        <time>2015-09-27T08:32:09Z</time>
      </trkpt>
      <trkpt lat="43.45554" lon="6.59788">
        <ele>117.42</ele>
        <time>2015-09-27T08:32:19Z</time>
      </trkpt>
      <trkpt lat="43.45557" lon="6.59785">
        <ele>117.42</ele>
        <time>2015-09-27T08:32:23Z</time>
      </trkpt>
      <trkpt lat="43.45561" lon="6.59775">
        <ele>117.42</ele>
        <time>2015-09-27T08:32:33Z</time>
      </trkpt>
      <trkpt lat="43.45557" lon="6.5977">
        <ele>118.86</ele>
        <time>2015-09-27T08:32:45Z</time>
      </trkpt>
      <trkpt lat="43.45556" lon="6.5977">
        <ele>118.86</ele>
        <time>2015-09-27T08:33:02Z</time>
      </trkpt>
      <trkpt lat="43.45556" lon="6.59772">
        <ele>118.86</ele>
        <time>2015-09-27T08:33:20Z</time>
      </trkpt>
      <trkpt lat="43.45556" lon="6.59773">
        <ele>118.38</ele>
        <time>2015-09-27T08:33:49Z</time>
      </trkpt>
      <trkpt lat="43.45556" lon="6.59773">
        <ele>118.38</ele>
        <time>2015-09-27T08:34:18Z</time>
      </trkpt>
      <trkpt lat="43.45556" lon="6.59774">
        <ele>118.38</ele>
        <time>2015-09-27T08:34:57Z</time>
      </trkpt>
      <trkpt lat="43.45556" lon="6.59773">
        <ele>118.38</ele>
        <time>2015-09-27T08:35:32Z</time>
      </trkpt>
      <trkpt lat="43.45556" lon="6.59772">
        <ele>118.38</ele>
        <time>2015-09-27T08:35:55Z</time>
      </trkpt>
      <trkpt lat="43.45556" lon="6.59773">
        <ele>118.38</ele>
        <time>2015-09-27T08:36:26Z</time>
      </trkpt>
      <trkpt lat="43.45556" lon="6.59773">
        <ele>118.38</ele>
        <time>2015-09-27T08:36:56Z</time>
      </trkpt>
      <trkpt lat="43.45556" lon="6.59773">
        <ele>118.38</ele>
        <time>2015-09-27T08:37:27Z</time>
      </trkpt>
      <trkpt lat="43.45557" lon="6.59773">
        <ele>118.38</ele>
        <time>2015-09-27T08:38:03Z</time>
      </trkpt>
      <trkpt lat="43.45556" lon="6.59772">
        <ele>118.38</ele>
        <time>2015-09-27T08:38:31Z</time>
      </trkpt>
      <trkpt lat="43.45556" lon="6.59772">
        <ele>118.38</ele>
        <time>2015-09-27T08:39:05Z</time>
      </trkpt>
      <trkpt lat="43.45556" lon="6.59772">
        <ele>118.38</ele>
        <time>2015-09-27T08:39:39Z</time>
      </trkpt>
      <trkpt lat="43.45555" lon="6.59772">
        <ele>118.38</ele>
        <time>2015-09-27T08:40:15Z</time>
      </trkpt>
      <trkpt lat="43.45556" lon="6.59773">
        <ele>118.38</ele>
        <time>2015-09-27T08:40:49Z</time>
      </trkpt>
      <trkpt lat="43.45556" lon="6.59773">
        <ele>118.38</ele>
        <time>2015-09-27T08:41:16Z</time>
      </trkpt>
      <trkpt lat="43.45556" lon="6.59773">
        <ele>118.38</ele>
        <time>2015-09-27T08:41:44Z</time>
      </trkpt>
      <trkpt lat="43.45556" lon="6.59773">
        <ele>118.38</ele>
        <time>2015-09-27T08:42:15Z</time>
      </trkpt>
      <trkpt lat="43.45556" lon="6.59773">
        <ele>118.38</ele>
        <time>2015-09-27T08:42:50Z</time>
      </trkpt>
      <trkpt lat="43.45556" lon="6.59773">
        <ele>118.38</ele>
        <time>2015-09-27T08:43:21Z</time>
      </trkpt>
      <trkpt lat="43.45556" lon="6.59774">
        <ele>118.38</ele>
        <time>2015-09-27T08:43:50Z</time>
      </trkpt>
      <trkpt lat="43.45555" lon="6.59773">
        <ele>118.38</ele>
        <time>2015-09-27T08:44:19Z</time>
      </trkpt>
      <trkpt lat="43.45557" lon="6.59773">
        <ele>118.38</ele>
        <time>2015-09-27T08:44:37Z</time>
      </trkpt>
      <trkpt lat="43.45558" lon="6.5977">
        <ele>117.9</ele>
        <time>2015-09-27T08:44:50Z</time>
      </trkpt>
      <trkpt lat="43.45556" lon="6.59767">
        <ele>119.34</ele>
        <time>2015-09-27T08:45:03Z</time>
      </trkpt>
      <trkpt lat="43.45553" lon="6.59767">
        <ele>120.3</ele>
        <time>2015-09-27T08:45:19Z</time>
      </trkpt>
      <trkpt lat="43.45549" lon="6.59768">
        <ele>121.26</ele>
        <time>2015-09-27T08:45:36Z</time>
      </trkpt>
      <trkpt lat="43.45541" lon="6.59768">
        <ele>124.15</ele>
        <time>2015-09-27T08:45:50Z</time>
      </trkpt>
      <trkpt lat="43.45535" lon="6.59765">
        <ele>127.03</ele>
        <time>2015-09-27T08:46:04Z</time>
      </trkpt>
      <trkpt lat="43.45531" lon="6.59762">
        <ele>128.95</ele>
        <time>2015-09-27T08:46:18Z</time>
      </trkpt>
      <trkpt lat="43.45531" lon="6.59762">
        <ele>129.43</ele>
        <time>2015-09-27T08:46:19Z</time>
      </trkpt>
      <trkpt lat="43.45527" lon="6.59759">
        <ele>131.36</ele>
        <time>2015-09-27T08:46:32Z</time>
      </trkpt>
      <trkpt lat="43.45524" lon="6.59754">
        <ele>132.8</ele>
        <time>2015-09-27T08:46:43Z</time>
      </trkpt>
      <trkpt lat="43.45523" lon="6.5975">
        <ele>134.72</ele>
        <time>2015-09-27T08:46:57Z</time>
      </trkpt>
      <trkpt lat="43.4552" lon="6.59746">
        <ele>137.61</ele>
        <time>2015-09-27T08:47:11Z</time>
      </trkpt>
      <trkpt lat="43.45516" lon="6.59743">
        <ele>140.49</ele>
        <time>2015-09-27T08:47:27Z</time>
      </trkpt>
      <trkpt lat="43.45514" lon="6.5974">
        <ele>142.41</ele>
        <time>2015-09-27T08:47:41Z</time>
      </trkpt>
      <trkpt lat="43.45511" lon="6.59734">
        <ele>145.3</ele>
        <time>2015-09-27T08:47:53Z</time>
      </trkpt>
      <trkpt lat="43.45508" lon="6.59719">
        <ele>145.78</ele>
        <time>2015-09-27T08:48:09Z</time>
      </trkpt>
      <trkpt lat="43.45506" lon="6.59714">
        <ele>146.74</ele>
        <time>2015-09-27T08:48:24Z</time>
      </trkpt>
      <trkpt lat="43.45499" lon="6.5971">
        <ele>148.66</ele>
        <time>2015-09-27T08:48:41Z</time>
      </trkpt>
      <trkpt lat="43.45496" lon="6.59709">
        <ele>151.06</ele>
        <time>2015-09-27T08:48:56Z</time>
      </trkpt>
      <trkpt lat="43.45489" lon="6.59702">
        <ele>153.47</ele>
        <time>2015-09-27T08:49:11Z</time>
      </trkpt>
      <trkpt lat="43.45486" lon="6.59694">
        <ele>155.39</ele>
        <time>2015-09-27T08:49:25Z</time>
      </trkpt>
      <trkpt lat="43.45484" lon="6.59688">
        <ele>157.31</ele>
        <time>2015-09-27T08:49:38Z</time>
      </trkpt>
      <trkpt lat="43.4548" lon="6.5968">
        <ele>160.2</ele>
        <time>2015-09-27T08:49:53Z</time>
      </trkpt>
      <trkpt lat="43.45475" lon="6.5967">
        <ele>162.12</ele>
        <time>2015-09-27T08:50:07Z</time>
      </trkpt>
      <trkpt lat="43.45467" lon="6.59658">
        <ele>164.52</ele>
        <time>2015-09-27T08:50:21Z</time>
      </trkpt>
      <trkpt lat="43.45461" lon="6.59651">
        <ele>166.45</ele>
        <time>2015-09-27T08:50:34Z</time>
      </trkpt>
      <trkpt lat="43.45457" lon="6.59644">
        <ele>168.85</ele>
        <time>2015-09-27T08:50:49Z</time>
      </trkpt>
      <trkpt lat="43.45454" lon="6.59643">
        <ele>168.85</ele>
        <time>2015-09-27T08:51:20Z</time>
      </trkpt>
      <trkpt lat="43.45453" lon="6.59643">
        <ele>168.85</ele>
        <time>2015-09-27T08:51:57Z</time>
      </trkpt>
      <trkpt lat="43.45453" lon="6.59642">
        <ele>168.85</ele>
        <time>2015-09-27T08:52:27Z</time>
      </trkpt>
      <trkpt lat="43.45452" lon="6.59642">
        <ele>168.85</ele>
        <time>2015-09-27T08:53:03Z</time>
      </trkpt>
      <trkpt lat="43.45452" lon="6.59643">
        <ele>168.37</ele>
        <time>2015-09-27T08:53:28Z</time>
      </trkpt>
      <trkpt lat="43.45447" lon="6.59638">
        <ele>170.77</ele>
        <time>2015-09-27T08:53:39Z</time>
      </trkpt>
      <trkpt lat="43.45442" lon="6.5964">
        <ele>172.69</ele>
        <time>2015-09-27T08:53:52Z</time>
      </trkpt>
      <trkpt lat="43.45441" lon="6.5964">
        <ele>176.06</ele>
        <time>2015-09-27T08:54:05Z</time>
      </trkpt>
      <trkpt lat="43.4544" lon="6.59638">
        <ele>177.98</ele>
        <time>2015-09-27T08:54:20Z</time>
      </trkpt>
      <trkpt lat="43.45434" lon="6.59632">
        <ele>180.38</ele>
        <time>2015-09-27T08:54:31Z</time>
      </trkpt>
      <trkpt lat="43.45426" lon="6.59624">
        <ele>182.31</ele>
        <time>2015-09-27T08:54:44Z</time>
      </trkpt>
      <trkpt lat="43.45418" lon="6.59617">
        <ele>184.71</ele>
        <time>2015-09-27T08:54:59Z</time>
      </trkpt>
      <trkpt lat="43.45412" lon="6.59611">
        <ele>186.63</ele>
        <time>2015-09-27T08:55:12Z</time>
      </trkpt>
      <trkpt lat="43.45409" lon="6.596">
        <ele>188.08</ele>
        <time>2015-09-27T08:55:25Z</time>
      </trkpt>
      <trkpt lat="43.45406" lon="6.59593">
        <ele>189.52</ele>
        <time>2015-09-27T08:55:39Z</time>
      </trkpt>
      <trkpt lat="43.45404" lon="6.59587">
        <ele>191.44</ele>
        <time>2015-09-27T08:55:52Z</time>
      </trkpt>
      <trkpt lat="43.45403" lon="6.59583">
        <ele>191.92</ele>
        <time>2015-09-27T08:55:56Z</time>
      </trkpt>
      <trkpt lat="43.45404" lon="6.59574">
        <ele>193.84</ele>
        <time>2015-09-27T08:56:09Z</time>
      </trkpt>
      <trkpt lat="43.45403" lon="6.59569">
        <ele>195.28</ele>
        <time>2015-09-27T08:56:22Z</time>
      </trkpt>
      <trkpt lat="43.45401" lon="6.5956">
        <ele>196.73</ele>
        <time>2015-09-27T08:56:36Z</time>
      </trkpt>
      <trkpt lat="43.45402" lon="6.59556">
        <ele>197.21</ele>
        <time>2015-09-27T08:57:00Z</time>
      </trkpt>
      <trkpt lat="43.45393" lon="6.59546">
        <ele>199.61</ele>
        <time>2015-09-27T08:57:16Z</time>
      </trkpt>
      <trkpt lat="43.45388" lon="6.59537">
        <ele>202.01</ele>
        <time>2015-09-27T08:57:29Z</time>
      </trkpt>
      <trkpt lat="43.45382" lon="6.59526">
        <ele>203.46</ele>
        <time>2015-09-27T08:57:41Z</time>
      </trkpt>
      <trkpt lat="43.45374" lon="6.59514">
        <ele>205.38</ele>
        <time>2015-09-27T08:57:55Z</time>
      </trkpt>
      <trkpt lat="43.45361" lon="6.59504">
        <ele>207.3</ele>
        <time>2015-09-27T08:58:11Z</time>
      </trkpt>
      <trkpt lat="43.45358" lon="6.59494">
        <ele>207.78</ele>
        <time>2015-09-27T08:58:31Z</time>
      </trkpt>
      <trkpt lat="43.45352" lon="6.59486">
        <ele>209.7</ele>
        <time>2015-09-27T08:58:49Z</time>
      </trkpt>
      <trkpt lat="43.4535" lon="6.59481">
        <ele>211.63</ele>
        <time>2015-09-27T08:59:04Z</time>
      </trkpt>
      <trkpt lat="43.45346" lon="6.59472">
        <ele>213.55</ele>
        <time>2015-09-27T08:59:19Z</time>
      </trkpt>
      <trkpt lat="43.45336" lon="6.59462">
        <ele>215.95</ele>
        <time>2015-09-27T08:59:35Z</time>
      </trkpt>
      <trkpt lat="43.45329" lon="6.59455">
        <ele>217.4</ele>
        <time>2015-09-27T08:59:51Z</time>
      </trkpt>
      <trkpt lat="43.45321" lon="6.59443">
        <ele>218.84</ele>
        <time>2015-09-27T09:00:09Z</time>
      </trkpt>
      <trkpt lat="43.45317" lon="6.59428">
        <ele>219.8</ele>
        <time>2015-09-27T09:00:26Z</time>
      </trkpt>
      <trkpt lat="43.4531" lon="6.59423">
        <ele>220.28</ele>
        <time>2015-09-27T09:00:41Z</time>
      </trkpt>
      <trkpt lat="43.45311" lon="6.59421">
        <ele>220.28</ele>
        <time>2015-09-27T09:01:08Z</time>
      </trkpt>
      <trkpt lat="43.45311" lon="6.59421">
        <ele>220.28</ele>
        <time>2015-09-27T09:01:29Z</time>
      </trkpt>
      <trkpt lat="43.45312" lon="6.59422">
        <ele>220.76</ele>
        <time>2015-09-27T09:01:50Z</time>
      </trkpt>
      <trkpt lat="43.45309" lon="6.59422">
        <ele>220.76</ele>
        <time>2015-09-27T09:02:12Z</time>
      </trkpt>
      <trkpt lat="43.45309" lon="6.59425">
        <ele>220.76</ele>
        <time>2015-09-27T09:02:23Z</time>
      </trkpt>
      <trkpt lat="43.45315" lon="6.59428">
        <ele>220.76</ele>
        <time>2015-09-27T09:02:40Z</time>
      </trkpt>
      <trkpt lat="43.45314" lon="6.59421">
        <ele>220.76</ele>
        <time>2015-09-27T09:03:01Z</time>
      </trkpt>
      <trkpt lat="43.45309" lon="6.59419">
        <ele>220.76</ele>
        <time>2015-09-27T09:03:24Z</time>
      </trkpt>
      <trkpt lat="43.4531" lon="6.5942">
        <ele>220.76</ele>
        <time>2015-09-27T09:03:47Z</time>
      </trkpt>
      <trkpt lat="43.45308" lon="6.59417">
        <ele>220.76</ele>
        <time>2015-09-27T09:04:14Z</time>
      </trkpt>
      <trkpt lat="43.45307" lon="6.59417">
        <ele>220.76</ele>
        <time>2015-09-27T09:04:38Z</time>
      </trkpt>
      <trkpt lat="43.45306" lon="6.59419">
        <ele>220.76</ele>
        <time>2015-09-27T09:05:05Z</time>
      </trkpt>
      <trkpt lat="43.45307" lon="6.59422">
        <ele>220.76</ele>
        <time>2015-09-27T09:05:30Z</time>
      </trkpt>
      <trkpt lat="43.45308" lon="6.59423">
        <ele>220.76</ele>
        <time>2015-09-27T09:05:54Z</time>
      </trkpt>
      <trkpt lat="43.45314" lon="6.59423">
        <ele>220.76</ele>
        <time>2015-09-27T09:06:14Z</time>
      </trkpt>
      <trkpt lat="43.45314" lon="6.59422">
        <ele>220.76</ele>
        <time>2015-09-27T09:06:38Z</time>
      </trkpt>
      <trkpt lat="43.45314" lon="6.59423">
        <ele>220.76</ele>
        <time>2015-09-27T09:07:08Z</time>
      </trkpt>
      <trkpt lat="43.45303" lon="6.59426">
        <ele>220.76</ele>
        <time>2015-09-27T09:07:32Z</time>
      </trkpt>
      <trkpt lat="43.453" lon="6.59424">
        <ele>220.76</ele>
        <time>2015-09-27T09:07:42Z</time>
      </trkpt>
      <trkpt lat="43.45297" lon="6.59424">
        <ele>220.76</ele>
        <time>2015-09-27T09:08:03Z</time>
      </trkpt>
      <trkpt lat="43.453" lon="6.5942">
        <ele>221.24</ele>
        <time>2015-09-27T09:08:24Z</time>
      </trkpt>
      <trkpt lat="43.45284" lon="6.59407">
        <ele>222.2</ele>
        <time>2015-09-27T09:08:43Z</time>
      </trkpt>
      <trkpt lat="43.45272" lon="6.59402">
        <ele>222.68</ele>
        <time>2015-09-27T09:08:59Z</time>
      </trkpt>
      <trkpt lat="43.45258" lon="6.59396">
        <ele>222.68</ele>
        <time>2015-09-27T09:09:12Z</time>
      </trkpt>
      <trkpt lat="43.45241" lon="6.59394">
        <ele>223.16</ele>
        <time>2015-09-27T09:09:26Z</time>
      </trkpt>
      <trkpt lat="43.4523" lon="6.59393">
        <ele>223.64</ele>
        <time>2015-09-27T09:09:41Z</time>
      </trkpt>
      <trkpt lat="43.45216" lon="6.59384">
        <ele>224.61</ele>
        <time>2015-09-27T09:09:57Z</time>
      </trkpt>
      <trkpt lat="43.45208" lon="6.59377">
        <ele>224.12</ele>
        <time>2015-09-27T09:10:06Z</time>
      </trkpt>
      <trkpt lat="43.45198" lon="6.59374">
        <ele>222.68</ele>
        <time>2015-09-27T09:10:19Z</time>
      </trkpt>
      <trkpt lat="43.45184" lon="6.5937">
        <ele>222.2</ele>
        <time>2015-09-27T09:10:34Z</time>
      </trkpt>
      <trkpt lat="43.45171" lon="6.59369">
        <ele>222.2</ele>
        <time>2015-09-27T09:10:47Z</time>
      </trkpt>
      <trkpt lat="43.45161" lon="6.59367">
        <ele>222.2</ele>
        <time>2015-09-27T09:10:58Z</time>
      </trkpt>
      <trkpt lat="43.45149" lon="6.59373">
        <ele>223.16</ele>
        <time>2015-09-27T09:11:12Z</time>
      </trkpt>
      <trkpt lat="43.45146" lon="6.59372">
        <ele>224.12</ele>
        <time>2015-09-27T09:11:17Z</time>
      </trkpt>
      <trkpt lat="43.45141" lon="6.59373">
        <ele>224.61</ele>
        <time>2015-09-27T09:11:21Z</time>
      </trkpt>
      <trkpt lat="43.45136" lon="6.59374">
        <ele>225.09</ele>
        <time>2015-09-27T09:11:26Z</time>
      </trkpt>
      <trkpt lat="43.45128" lon="6.59375">
        <ele>226.05</ele>
        <time>2015-09-27T09:11:35Z</time>
      </trkpt>
      <trkpt lat="43.45122" lon="6.59371">
        <ele>225.09</ele>
        <time>2015-09-27T09:11:45Z</time>
      </trkpt>
      <trkpt lat="43.45118" lon="6.59365">
        <ele>224.61</ele>
        <time>2015-09-27T09:11:52Z</time>
      </trkpt>
      <trkpt lat="43.45107" lon="6.59361">
        <ele>225.09</ele>
        <time>2015-09-27T09:12:07Z</time>
      </trkpt>
      <trkpt lat="43.45094" lon="6.59356">
        <ele>226.05</ele>
        <time>2015-09-27T09:12:23Z</time>
      </trkpt>
      <trkpt lat="43.45077" lon="6.59355">
        <ele>226.53</ele>
        <time>2015-09-27T09:12:38Z</time>
      </trkpt>
      <trkpt lat="43.45073" lon="6.59355">
        <ele>226.05</ele>
        <time>2015-09-27T09:12:42Z</time>
      </trkpt>
      <trkpt lat="43.45065" lon="6.59356">
        <ele>225.57</ele>
        <time>2015-09-27T09:12:50Z</time>
      </trkpt>
      <trkpt lat="43.45057" lon="6.59354">
        <ele>224.61</ele>
        <time>2015-09-27T09:13:02Z</time>
      </trkpt>
      <trkpt lat="43.45054" lon="6.59353">
        <ele>224.12</ele>
        <time>2015-09-27T09:13:16Z</time>
      </trkpt>
      <trkpt lat="43.45052" lon="6.59354">
        <ele>224.12</ele>
        <time>2015-09-27T09:13:32Z</time>
      </trkpt>
      <trkpt lat="43.45051" lon="6.59355">
        <ele>224.12</ele>
        <time>2015-09-27T09:13:48Z</time>
      </trkpt>
      <trkpt lat="43.45052" lon="6.59353">
        <ele>224.12</ele>
        <time>2015-09-27T09:14:09Z</time>
      </trkpt>
      <trkpt lat="43.45052" lon="6.59353">
        <ele>224.12</ele>
        <time>2015-09-27T09:14:31Z</time>
      </trkpt>
      <trkpt lat="43.45052" lon="6.59352">
        <ele>224.12</ele>
        <time>2015-09-27T09:14:49Z</time>
      </trkpt>
      <trkpt lat="43.45051" lon="6.59351">
        <ele>224.12</ele>
        <time>2015-09-27T09:15:14Z</time>
      </trkpt>
      <trkpt lat="43.45051" lon="6.59352">
        <ele>224.12</ele>
        <time>2015-09-27T09:15:32Z</time>
      </trkpt>
      <trkpt lat="43.45051" lon="6.59352">
        <ele>225.09</ele>
        <time>2015-09-27T09:15:56Z</time>
      </trkpt>
      <trkpt lat="43.45051" lon="6.59353">
        <ele>224.12</ele>
        <time>2015-09-27T09:16:24Z</time>
      </trkpt>
      <trkpt lat="43.45048" lon="6.59352">
        <ele>223.64</ele>
        <time>2015-09-27T09:16:31Z</time>
      </trkpt>
      <trkpt lat="43.45037" lon="6.59356">
        <ele>221.24</ele>
        <time>2015-09-27T09:16:45Z</time>
      </trkpt>
      <trkpt lat="43.45031" lon="6.59357">
        <ele>219.8</ele>
        <time>2015-09-27T09:16:56Z</time>
      </trkpt>
      <trkpt lat="43.45024" lon="6.59354">
        <ele>217.4</ele>
        <time>2015-09-27T09:17:07Z</time>
      </trkpt>
      <trkpt lat="43.4502" lon="6.59355">
        <ele>216.43</ele>
        <time>2015-09-27T09:17:15Z</time>
      </trkpt>
      <trkpt lat="43.4501" lon="6.59354">
        <ele>213.07</ele>
        <time>2015-09-27T09:17:29Z</time>
      </trkpt>
      <trkpt lat="43.45009" lon="6.59354">
        <ele>213.07</ele>
        <time>2015-09-27T09:17:31Z</time>
      </trkpt>
      <trkpt lat="43.45" lon="6.59348">
        <ele>211.15</ele>
        <time>2015-09-27T09:17:46Z</time>
      </trkpt>
      <trkpt lat="43.44997" lon="6.59342">
        <ele>209.7</ele>
        <time>2015-09-27T09:17:59Z</time>
      </trkpt>
      <trkpt lat="43.44989" lon="6.59339">
        <ele>208.74</ele>
        <time>2015-09-27T09:18:10Z</time>
      </trkpt>
      <trkpt lat="43.44979" lon="6.59337">
        <ele>207.78</ele>
        <time>2015-09-27T09:18:24Z</time>
      </trkpt>
      <trkpt lat="43.44975" lon="6.59333">
        <ele>206.34</ele>
        <time>2015-09-27T09:18:35Z</time>
      </trkpt>
      <trkpt lat="43.44971" lon="6.59331">
        <ele>204.9</ele>
        <time>2015-09-27T09:18:43Z</time>
      </trkpt>
      <trkpt lat="43.44962" lon="6.59325">
        <ele>202.98</ele>
        <time>2015-09-27T09:18:56Z</time>
      </trkpt>
      <trkpt lat="43.4496" lon="6.59325">
        <ele>202.49</ele>
        <time>2015-09-27T09:18:59Z</time>
      </trkpt>
      <trkpt lat="43.44957" lon="6.5932">
        <ele>201.53</ele>
        <time>2015-09-27T09:19:05Z</time>
      </trkpt>
      <trkpt lat="43.4495" lon="6.59307">
        <ele>200.09</ele>
        <time>2015-09-27T09:19:18Z</time>
      </trkpt>
      <trkpt lat="43.44939" lon="6.59305">
        <ele>198.65</ele>
        <time>2015-09-27T09:19:30Z</time>
      </trkpt>
      <trkpt lat="43.44932" lon="6.59307">
        <ele>197.21</ele>
        <time>2015-09-27T09:19:43Z</time>
      </trkpt>
      <trkpt lat="43.44927" lon="6.59308">
        <ele>197.21</ele>
        <time>2015-09-27T09:19:57Z</time>
      </trkpt>
      <trkpt lat="43.44917" lon="6.59308">
        <ele>195.28</ele>
        <time>2015-09-27T09:20:09Z</time>
      </trkpt>
      <trkpt lat="43.44916" lon="6.59308">
        <ele>195.28</ele>
        <time>2015-09-27T09:20:10Z</time>
      </trkpt>
      <trkpt lat="43.44913" lon="6.59309">
        <ele>195.28</ele>
        <time>2015-09-27T09:20:13Z</time>
      </trkpt>
      <trkpt lat="43.4491" lon="6.59314">
        <ele>194.8</ele>
        <time>2015-09-27T09:20:18Z</time>
      </trkpt>
      <trkpt lat="43.44908" lon="6.59322">
        <ele>194.32</ele>
        <time>2015-09-27T09:20:24Z</time>
      </trkpt>
      <trkpt lat="43.44906" lon="6.59327">
        <ele>194.32</ele>
        <time>2015-09-27T09:20:29Z</time>
      </trkpt>
      <trkpt lat="43.44896" lon="6.59335">
        <ele>193.84</ele>
        <time>2015-09-27T09:20:42Z</time>
      </trkpt>
      <trkpt lat="43.44893" lon="6.5934">
        <ele>193.84</ele>
        <time>2015-09-27T09:20:46Z</time>
      </trkpt>
      <trkpt lat="43.44883" lon="6.59345">
        <ele>193.36</ele>
        <time>2015-09-27T09:20:57Z</time>
      </trkpt>
      <trkpt lat="43.4488" lon="6.59352">
        <ele>193.84</ele>
        <time>2015-09-27T09:21:03Z</time>
      </trkpt>
      <trkpt lat="43.44878" lon="6.59354">
        <ele>193.84</ele>
        <time>2015-09-27T09:21:05Z</time>
      </trkpt>
      <trkpt lat="43.4487" lon="6.59366">
        <ele>194.8</ele>
        <time>2015-09-27T09:21:18Z</time>
      </trkpt>
      <trkpt lat="43.44865" lon="6.59374">
        <ele>195.77</ele>
        <time>2015-09-27T09:21:26Z</time>
      </trkpt>
      <trkpt lat="43.44855" lon="6.59383">
        <ele>196.73</ele>
        <time>2015-09-27T09:21:40Z</time>
      </trkpt>
      <trkpt lat="43.44849" lon="6.59386">
        <ele>196.25</ele>
        <time>2015-09-27T09:21:53Z</time>
      </trkpt>
      <trkpt lat="43.44841" lon="6.59387">
        <ele>196.73</ele>
        <time>2015-09-27T09:22:03Z</time>
      </trkpt>
      <trkpt lat="43.4483" lon="6.59399">
        <ele>196.25</ele>
        <time>2015-09-27T09:22:16Z</time>
      </trkpt>
      <trkpt lat="43.44821" lon="6.59411">
        <ele>195.77</ele>
        <time>2015-09-27T09:22:28Z</time>
      </trkpt>
      <trkpt lat="43.44812" lon="6.59421">
        <ele>195.77</ele>
        <time>2015-09-27T09:22:42Z</time>
      </trkpt>
      <trkpt lat="43.4481" lon="6.59428">
        <ele>196.25</ele>
        <time>2015-09-27T09:22:56Z</time>
      </trkpt>
      <trkpt lat="43.44811" lon="6.59428">
        <ele>196.25</ele>
        <time>2015-09-27T09:23:09Z</time>
      </trkpt>
      <trkpt lat="43.44812" lon="6.59428">
        <ele>196.25</ele>
        <time>2015-09-27T09:23:27Z</time>
      </trkpt>
      <trkpt lat="43.44812" lon="6.59428">
        <ele>196.25</ele>
        <time>2015-09-27T09:23:54Z</time>
      </trkpt>
      <trkpt lat="43.44812" lon="6.59428">
        <ele>196.25</ele>
        <time>2015-09-27T09:24:10Z</time>
      </trkpt>
      <trkpt lat="43.4481" lon="6.59432">
        <ele>196.73</ele>
        <time>2015-09-27T09:24:24Z</time>
      </trkpt>
      <trkpt lat="43.4481" lon="6.59432">
        <ele>196.25</ele>
        <time>2015-09-27T09:24:49Z</time>
      </trkpt>
      <trkpt lat="43.44805" lon="6.59431">
        <ele>195.77</ele>
        <time>2015-09-27T09:25:09Z</time>
      </trkpt>
      <trkpt lat="43.44794" lon="6.59437">
        <ele>194.8</ele>
        <time>2015-09-27T09:25:20Z</time>
      </trkpt>
      <trkpt lat="43.44791" lon="6.59443">
        <ele>193.84</ele>
        <time>2015-09-27T09:25:26Z</time>
      </trkpt>
      <trkpt lat="43.44784" lon="6.59447">
        <ele>193.36</ele>
        <time>2015-09-27T09:25:33Z</time>
      </trkpt>
      <trkpt lat="43.44767" lon="6.59465">
        <ele>191.92</ele>
        <time>2015-09-27T09:25:51Z</time>
      </trkpt>
      <trkpt lat="43.44753" lon="6.59469">
        <ele>190.96</ele>
        <time>2015-09-27T09:26:06Z</time>
      </trkpt>
      <trkpt lat="43.44745" lon="6.59471">
        <ele>190.48</ele>
        <time>2015-09-27T09:26:15Z</time>
      </trkpt>
      <trkpt lat="43.44743" lon="6.59471">
        <ele>190.48</ele>
        <time>2015-09-27T09:26:17Z</time>
      </trkpt>
      <trkpt lat="43.44728" lon="6.59481">
        <ele>189.04</ele>
        <time>2015-09-27T09:26:33Z</time>
      </trkpt>
      <trkpt lat="43.44725" lon="6.59486">
        <ele>188.56</ele>
        <time>2015-09-27T09:26:37Z</time>
      </trkpt>
      <trkpt lat="43.44711" lon="6.59503">
        <ele>188.08</ele>
        <time>2015-09-27T09:26:52Z</time>
      </trkpt>
      <trkpt lat="43.4471" lon="6.59507">
        <ele>188.08</ele>
        <time>2015-09-27T09:26:55Z</time>
      </trkpt>
      <trkpt lat="43.44708" lon="6.59513">
        <ele>187.59</ele>
        <time>2015-09-27T09:26:59Z</time>
      </trkpt>
      <trkpt lat="43.44707" lon="6.59516">
        <ele>187.59</ele>
        <time>2015-09-27T09:27:01Z</time>
      </trkpt>
      <trkpt lat="43.44695" lon="6.59535">
        <ele>187.11</ele>
        <time>2015-09-27T09:27:17Z</time>
      </trkpt>
      <trkpt lat="43.44693" lon="6.59539">
        <ele>187.11</ele>
        <time>2015-09-27T09:27:21Z</time>
      </trkpt>
      <trkpt lat="43.44685" lon="6.59556">
        <ele>187.11</ele>
        <time>2015-09-27T09:27:34Z</time>
      </trkpt>
      <trkpt lat="43.44684" lon="6.59561">
        <ele>186.63</ele>
        <time>2015-09-27T09:27:37Z</time>
      </trkpt>
      <trkpt lat="43.44677" lon="6.5958">
        <ele>186.63</ele>
        <time>2015-09-27T09:27:52Z</time>
      </trkpt>
      <trkpt lat="43.4468" lon="6.59607">
        <ele>186.15</ele>
        <time>2015-09-27T09:28:08Z</time>
      </trkpt>
      <trkpt lat="43.44679" lon="6.59617">
        <ele>184.71</ele>
        <time>2015-09-27T09:28:21Z</time>
      </trkpt>
      <trkpt lat="43.44681" lon="6.59624">
        <ele>183.75</ele>
        <time>2015-09-27T09:28:28Z</time>
      </trkpt>
      <trkpt lat="43.44684" lon="6.59642">
        <ele>182.79</ele>
        <time>2015-09-27T09:28:40Z</time>
      </trkpt>
      <trkpt lat="43.44688" lon="6.59658">
        <ele>181.35</ele>
        <time>2015-09-27T09:28:54Z</time>
      </trkpt>
      <trkpt lat="43.44695" lon="6.5966">
        <ele>180.38</ele>
        <time>2015-09-27T09:29:03Z</time>
      </trkpt>
      <trkpt lat="43.44712" lon="6.59658">
        <ele>179.42</ele>
        <time>2015-09-27T09:29:17Z</time>
      </trkpt>
      <trkpt lat="43.44715" lon="6.59656">
        <ele>179.42</ele>
        <time>2015-09-27T09:29:20Z</time>
      </trkpt>
      <trkpt lat="43.44717" lon="6.59655">
        <ele>178.94</ele>
        <time>2015-09-27T09:29:22Z</time>
      </trkpt>
      <trkpt lat="43.44719" lon="6.59655">
        <ele>178.94</ele>
        <time>2015-09-27T09:29:25Z</time>
      </trkpt>
      <trkpt lat="43.44722" lon="6.59659">
        <ele>178.94</ele>
        <time>2015-09-27T09:29:29Z</time>
      </trkpt>
      <trkpt lat="43.44724" lon="6.59676">
        <ele>179.42</ele>
        <time>2015-09-27T09:29:43Z</time>
      </trkpt>
      <trkpt lat="43.44725" lon="6.59679">
        <ele>179.9</ele>
        <time>2015-09-27T09:29:47Z</time>
      </trkpt>
      <trkpt lat="43.44727" lon="6.59689">
        <ele>180.87</ele>
        <time>2015-09-27T09:29:55Z</time>
      </trkpt>
      <trkpt lat="43.44728" lon="6.59696">
        <ele>180.87</ele>
        <time>2015-09-27T09:30:00Z</time>
      </trkpt>
      <trkpt lat="43.44737" lon="6.59715">
        <ele>180.38</ele>
        <time>2015-09-27T09:30:15Z</time>
      </trkpt>
      <trkpt lat="43.44738" lon="6.59723">
        <ele>180.38</ele>
        <time>2015-09-27T09:30:22Z</time>
      </trkpt>
      <trkpt lat="43.44734" lon="6.59737">
        <ele>180.87</ele>
        <time>2015-09-27T09:30:34Z</time>
      </trkpt>
      <trkpt lat="43.44734" lon="6.5974">
        <ele>180.38</ele>
        <time>2015-09-27T09:30:36Z</time>
      </trkpt>
      <trkpt lat="43.44735" lon="6.59765">
        <ele>178.94</ele>
        <time>2015-09-27T09:30:52Z</time>
      </trkpt>
      <trkpt lat="43.44736" lon="6.59774">
        <ele>178.94</ele>
        <time>2015-09-27T09:30:59Z</time>
      </trkpt>
      <trkpt lat="43.44734" lon="6.59793">
        <ele>178.46</ele>
        <time>2015-09-27T09:31:15Z</time>
      </trkpt>
      <trkpt lat="43.44734" lon="6.59794">
        <ele>178.46</ele>
        <time>2015-09-27T09:31:16Z</time>
      </trkpt>
      <trkpt lat="43.44729" lon="6.59812">
        <ele>177.98</ele>
        <time>2015-09-27T09:31:30Z</time>
      </trkpt>
      <trkpt lat="43.44722" lon="6.59816">
        <ele>177.98</ele>
        <time>2015-09-27T09:31:46Z</time>
      </trkpt>
      <trkpt lat="43.44721" lon="6.59816">
        <ele>177.98</ele>
        <time>2015-09-27T09:31:59Z</time>
      </trkpt>
      <trkpt lat="43.44719" lon="6.59816">
        <ele>177.98</ele>
        <time>2015-09-27T09:32:14Z</time>
      </trkpt>
      <trkpt lat="43.44719" lon="6.59816">
        <ele>177.98</ele>
        <time>2015-09-27T09:32:37Z</time>
      </trkpt>
      <trkpt lat="43.44719" lon="6.59816">
        <ele>177.98</ele>
        <time>2015-09-27T09:33:03Z</time>
      </trkpt>
      <trkpt lat="43.44717" lon="6.59816">
        <ele>177.98</ele>
        <time>2015-09-27T09:33:35Z</time>
      </trkpt>
      <trkpt lat="43.44716" lon="6.59818">
        <ele>177.98</ele>
        <time>2015-09-27T09:33:59Z</time>
      </trkpt>
      <trkpt lat="43.44707" lon="6.59822">
        <ele>178.46</ele>
        <time>2015-09-27T09:34:13Z</time>
      </trkpt>
      <trkpt lat="43.44701" lon="6.59825">
        <ele>178.94</ele>
        <time>2015-09-27T09:34:22Z</time>
      </trkpt>
      <trkpt lat="43.44697" lon="6.59842">
        <ele>180.38</ele>
        <time>2015-09-27T09:34:36Z</time>
      </trkpt>
      <trkpt lat="43.44702" lon="6.59868">
        <ele>181.35</ele>
        <time>2015-09-27T09:34:52Z</time>
      </trkpt>
      <trkpt lat="43.44701" lon="6.59885">
        <ele>182.79</ele>
        <time>2015-09-27T09:35:07Z</time>
      </trkpt>
      <trkpt lat="43.447" lon="6.59887">
        <ele>183.27</ele>
        <time>2015-09-27T09:35:09Z</time>
      </trkpt>
      <trkpt lat="43.44691" lon="6.59901">
        <ele>182.79</ele>
        <time>2015-09-27T09:35:22Z</time>
      </trkpt>
      <trkpt lat="43.4468" lon="6.59905">
        <ele>182.79</ele>
        <time>2015-09-27T09:35:38Z</time>
      </trkpt>
      <trkpt lat="43.44663" lon="6.59914">
        <ele>183.27</ele>
        <time>2015-09-27T09:35:54Z</time>
      </trkpt>
      <trkpt lat="43.44659" lon="6.59922">
        <ele>184.71</ele>
        <time>2015-09-27T09:36:05Z</time>
      </trkpt>
      <trkpt lat="43.44657" lon="6.59926">
        <ele>184.71</ele>
        <time>2015-09-27T09:36:08Z</time>
      </trkpt>
      <trkpt lat="43.44648" lon="6.59946">
        <ele>185.67</ele>
        <time>2015-09-27T09:36:22Z</time>
      </trkpt>
      <trkpt lat="43.44645" lon="6.59954">
        <ele>186.15</ele>
        <time>2015-09-27T09:36:28Z</time>
      </trkpt>
      <trkpt lat="43.44642" lon="6.59967">
        <ele>186.63</ele>
        <time>2015-09-27T09:36:38Z</time>
      </trkpt>
      <trkpt lat="43.4464" lon="6.59969">
        <ele>186.63</ele>
        <time>2015-09-27T09:36:40Z</time>
      </trkpt>
      <trkpt lat="43.44637" lon="6.59979">
        <ele>187.11</ele>
        <time>2015-09-27T09:36:49Z</time>
      </trkpt>
      <trkpt lat="43.4464" lon="6.59995">
        <ele>187.59</ele>
        <time>2015-09-27T09:37:01Z</time>
      </trkpt>
      <trkpt lat="43.44638" lon="6.60014">
        <ele>188.56</ele>
        <time>2015-09-27T09:37:16Z</time>
      </trkpt>
      <trkpt lat="43.44638" lon="6.60021">
        <ele>188.56</ele>
        <time>2015-09-27T09:37:21Z</time>
      </trkpt>
      <trkpt lat="43.44633" lon="6.60038">
        <ele>190</ele>
        <time>2015-09-27T09:37:36Z</time>
      </trkpt>
      <trkpt lat="43.44629" lon="6.60047">
        <ele>190.96</ele>
        <time>2015-09-27T09:37:48Z</time>
      </trkpt>
      <trkpt lat="43.44623" lon="6.60068">
        <ele>193.36</ele>
        <time>2015-09-27T09:38:06Z</time>
      </trkpt>
      <trkpt lat="43.4463" lon="6.60084">
        <ele>194.32</ele>
        <time>2015-09-27T09:38:18Z</time>
      </trkpt>
      <trkpt lat="43.44645" lon="6.60097">
        <ele>195.28</ele>
        <time>2015-09-27T09:38:32Z</time>
      </trkpt>
      <trkpt lat="43.44652" lon="6.60108">
        <ele>197.21</ele>
        <time>2015-09-27T09:38:47Z</time>
      </trkpt>
      <trkpt lat="43.44663" lon="6.60119">
        <ele>198.17</ele>
        <time>2015-09-27T09:39:03Z</time>
      </trkpt>
      <trkpt lat="43.44677" lon="6.60116">
        <ele>198.65</ele>
        <time>2015-09-27T09:39:17Z</time>
      </trkpt>
      <trkpt lat="43.44683" lon="6.60109">
        <ele>198.65</ele>
        <time>2015-09-27T09:39:24Z</time>
      </trkpt>
      <trkpt lat="43.44695" lon="6.60093">
        <ele>200.57</ele>
        <time>2015-09-27T09:39:41Z</time>
      </trkpt>
      <trkpt lat="43.44707" lon="6.60081">
        <ele>198.65</ele>
        <time>2015-09-27T09:39:57Z</time>
      </trkpt>
      <trkpt lat="43.44715" lon="6.60079">
        <ele>199.13</ele>
        <time>2015-09-27T09:40:12Z</time>
      </trkpt>
      <trkpt lat="43.44719" lon="6.60075">
        <ele>200.09</ele>
        <time>2015-09-27T09:40:27Z</time>
      </trkpt>
      <trkpt lat="43.44725" lon="6.60073">
        <ele>202.01</ele>
        <time>2015-09-27T09:40:43Z</time>
      </trkpt>
      <trkpt lat="43.44732" lon="6.60072">
        <ele>203.94</ele>
        <time>2015-09-27T09:40:57Z</time>
      </trkpt>
      <trkpt lat="43.44747" lon="6.60077">
        <ele>206.34</ele>
        <time>2015-09-27T09:41:12Z</time>
      </trkpt>
      <trkpt lat="43.44757" lon="6.60083">
        <ele>208.74</ele>
        <time>2015-09-27T09:41:31Z</time>
      </trkpt>
      <trkpt lat="43.44764" lon="6.60083">
        <ele>209.7</ele>
        <time>2015-09-27T09:41:48Z</time>
      </trkpt>
      <trkpt lat="43.4477" lon="6.60089">
        <ele>212.11</ele>
        <time>2015-09-27T09:42:06Z</time>
      </trkpt>
      <trkpt lat="43.4478" lon="6.60094">
        <ele>214.51</ele>
        <time>2015-09-27T09:42:24Z</time>
      </trkpt>
      <trkpt lat="43.44783" lon="6.60095">
        <ele>215.47</ele>
        <time>2015-09-27T09:42:38Z</time>
      </trkpt>
      <trkpt lat="43.4479" lon="6.601">
        <ele>217.4</ele>
        <time>2015-09-27T09:42:52Z</time>
      </trkpt>
      <trkpt lat="43.44796" lon="6.60103">
        <ele>219.8</ele>
        <time>2015-09-27T09:43:11Z</time>
      </trkpt>
      <trkpt lat="43.44804" lon="6.60108">
        <ele>221.72</ele>
        <time>2015-09-27T09:43:27Z</time>
      </trkpt>
      <trkpt lat="43.4481" lon="6.60118">
        <ele>224.12</ele>
        <time>2015-09-27T09:43:44Z</time>
      </trkpt>
      <trkpt lat="43.44815" lon="6.60125">
        <ele>225.57</ele>
        <time>2015-09-27T09:43:58Z</time>
      </trkpt>
      <trkpt lat="43.44817" lon="6.60129">
        <ele>227.01</ele>
        <time>2015-09-27T09:44:15Z</time>
      </trkpt>
      <trkpt lat="43.44819" lon="6.60131">
        <ele>227.97</ele>
        <time>2015-09-27T09:44:20Z</time>
      </trkpt>
      <trkpt lat="43.44822" lon="6.60139">
        <ele>229.89</ele>
        <time>2015-09-27T09:44:34Z</time>
      </trkpt>
      <trkpt lat="43.4482" lon="6.60144">
        <ele>231.33</ele>
        <time>2015-09-27T09:44:48Z</time>
      </trkpt>
      <trkpt lat="43.44822" lon="6.60146">
        <ele>233.26</ele>
        <time>2015-09-27T09:45:05Z</time>
      </trkpt>
      <trkpt lat="43.44822" lon="6.60151">
        <ele>234.7</ele>
        <time>2015-09-27T09:45:21Z</time>
      </trkpt>
      <trkpt lat="43.44823" lon="6.60158">
        <ele>236.14</ele>
        <time>2015-09-27T09:45:39Z</time>
      </trkpt>
      <trkpt lat="43.44833" lon="6.60165">
        <ele>238.06</ele>
        <time>2015-09-27T09:45:51Z</time>
      </trkpt>
      <trkpt lat="43.44834" lon="6.60172">
        <ele>240.95</ele>
        <time>2015-09-27T09:46:06Z</time>
      </trkpt>
      <trkpt lat="43.44835" lon="6.60179">
        <ele>243.35</ele>
        <time>2015-09-27T09:46:20Z</time>
      </trkpt>
      <trkpt lat="43.4484" lon="6.60188">
        <ele>245.75</ele>
        <time>2015-09-27T09:46:37Z</time>
      </trkpt>
      <trkpt lat="43.44844" lon="6.60194">
        <ele>247.68</ele>
        <time>2015-09-27T09:46:53Z</time>
      </trkpt>
      <trkpt lat="43.44846" lon="6.60196">
        <ele>249.12</ele>
        <time>2015-09-27T09:47:10Z</time>
      </trkpt>
      <trkpt lat="43.44845" lon="6.60197">
        <ele>249.6</ele>
        <time>2015-09-27T09:47:25Z</time>
      </trkpt>
      <trkpt lat="43.44845" lon="6.60205">
        <ele>252.96</ele>
        <time>2015-09-27T09:47:38Z</time>
      </trkpt>
      <trkpt lat="43.44848" lon="6.60211">
        <ele>254.89</ele>
        <time>2015-09-27T09:47:52Z</time>
      </trkpt>
      <trkpt lat="43.4485" lon="6.60215">
        <ele>258.25</ele>
        <time>2015-09-27T09:48:05Z</time>
      </trkpt>
      <trkpt lat="43.44856" lon="6.60227">
        <ele>261.14</ele>
        <time>2015-09-27T09:48:16Z</time>
      </trkpt>
      <trkpt lat="43.44857" lon="6.60228">
        <ele>262.1</ele>
        <time>2015-09-27T09:48:18Z</time>
      </trkpt>
      <trkpt lat="43.4486" lon="6.60232">
        <ele>263.54</ele>
        <time>2015-09-27T09:48:33Z</time>
      </trkpt>
      <trkpt lat="43.44859" lon="6.60233">
        <ele>265.46</ele>
        <time>2015-09-27T09:48:45Z</time>
      </trkpt>
      <trkpt lat="43.44856" lon="6.60234">
        <ele>267.38</ele>
        <time>2015-09-27T09:49:00Z</time>
      </trkpt>
      <trkpt lat="43.44855" lon="6.60237">
        <ele>268.83</ele>
        <time>2015-09-27T09:49:15Z</time>
      </trkpt>
      <trkpt lat="43.44854" lon="6.60239">
        <ele>270.75</ele>
        <time>2015-09-27T09:49:30Z</time>
      </trkpt>
      <trkpt lat="43.44853" lon="6.60245">
        <ele>273.15</ele>
        <time>2015-09-27T09:49:42Z</time>
      </trkpt>
      <trkpt lat="43.44855" lon="6.6025">
        <ele>272.19</ele>
        <time>2015-09-27T09:50:11Z</time>
      </trkpt>
      <trkpt lat="43.44856" lon="6.60254">
        <ele>272.19</ele>
        <time>2015-09-27T09:50:45Z</time>
      </trkpt>
      <trkpt lat="43.44856" lon="6.60257">
        <ele>271.71</ele>
        <time>2015-09-27T09:51:13Z</time>
      </trkpt>
      <trkpt lat="43.44855" lon="6.60258">
        <ele>271.71</ele>
        <time>2015-09-27T09:51:46Z</time>
      </trkpt>
      <trkpt lat="43.44855" lon="6.60258">
        <ele>271.71</ele>
        <time>2015-09-27T09:52:13Z</time>
      </trkpt>
      <trkpt lat="43.44855" lon="6.60258">
        <ele>271.71</ele>
        <time>2015-09-27T09:52:40Z</time>
      </trkpt>
      <trkpt lat="43.44854" lon="6.60259">
        <ele>271.23</ele>
        <time>2015-09-27T09:53:11Z</time>
      </trkpt>
      <trkpt lat="43.44854" lon="6.60259">
        <ele>271.71</ele>
        <time>2015-09-27T09:53:37Z</time>
      </trkpt>
      <trkpt lat="43.44854" lon="6.6026">
        <ele>272.19</ele>
        <time>2015-09-27T09:54:02Z</time>
      </trkpt>
      <trkpt lat="43.44849" lon="6.60263">
        <ele>274.11</ele>
        <time>2015-09-27T09:54:14Z</time>
      </trkpt>
      <trkpt lat="43.44846" lon="6.60266">
        <ele>276.04</ele>
        <time>2015-09-27T09:54:25Z</time>
      </trkpt>
      <trkpt lat="43.44843" lon="6.60271">
        <ele>276.52</ele>
        <time>2015-09-27T09:54:39Z</time>
      </trkpt>
      <trkpt lat="43.44842" lon="6.60274">
        <ele>279.4</ele>
        <time>2015-09-27T09:54:55Z</time>
      </trkpt>
      <trkpt lat="43.44843" lon="6.6028">
        <ele>282.28</ele>
        <time>2015-09-27T09:55:11Z</time>
      </trkpt>
      <trkpt lat="43.44843" lon="6.60284">
        <ele>284.21</ele>
        <time>2015-09-27T09:55:25Z</time>
      </trkpt>
      <trkpt lat="43.44842" lon="6.60291">
        <ele>286.13</ele>
        <time>2015-09-27T09:55:41Z</time>
      </trkpt>
      <trkpt lat="43.44842" lon="6.60296">
        <ele>288.05</ele>
        <time>2015-09-27T09:55:55Z</time>
      </trkpt>
      <trkpt lat="43.44844" lon="6.60303">
        <ele>289.49</ele>
        <time>2015-09-27T09:56:12Z</time>
      </trkpt>
      <trkpt lat="43.44845" lon="6.60306">
        <ele>290.94</ele>
        <time>2015-09-27T09:56:28Z</time>
      </trkpt>
      <trkpt lat="43.44845" lon="6.60311">
        <ele>293.34</ele>
        <time>2015-09-27T09:56:40Z</time>
      </trkpt>
      <trkpt lat="43.44846" lon="6.60314">
        <ele>294.78</ele>
        <time>2015-09-27T09:56:57Z</time>
      </trkpt>
      <trkpt lat="43.44845" lon="6.60315">
        <ele>296.7</ele>
        <time>2015-09-27T09:57:12Z</time>
      </trkpt>
      <trkpt lat="43.44849" lon="6.6032">
        <ele>298.63</ele>
        <time>2015-09-27T09:57:27Z</time>
      </trkpt>
      <trkpt lat="43.4485" lon="6.60323">
        <ele>300.55</ele>
        <time>2015-09-27T09:57:40Z</time>
      </trkpt>
      <trkpt lat="43.44855" lon="6.60328">
        <ele>303.43</ele>
        <time>2015-09-27T09:57:53Z</time>
      </trkpt>
      <trkpt lat="43.4486" lon="6.6033">
        <ele>305.84</ele>
        <time>2015-09-27T09:58:09Z</time>
      </trkpt>
      <trkpt lat="43.44861" lon="6.60333">
        <ele>308.72</ele>
        <time>2015-09-27T09:58:25Z</time>
      </trkpt>
      <trkpt lat="43.44863" lon="6.60336">
        <ele>310.64</ele>
        <time>2015-09-27T09:58:38Z</time>
      </trkpt>
      <trkpt lat="43.44864" lon="6.60339">
        <ele>312.57</ele>
        <time>2015-09-27T09:58:52Z</time>
      </trkpt>
      <trkpt lat="43.44863" lon="6.60344">
        <ele>314.97</ele>
        <time>2015-09-27T09:59:04Z</time>
      </trkpt>
      <trkpt lat="43.44865" lon="6.60347">
        <ele>316.41</ele>
        <time>2015-09-27T09:59:20Z</time>
      </trkpt>
      <trkpt lat="43.44864" lon="6.60351">
        <ele>318.33</ele>
        <time>2015-09-27T09:59:35Z</time>
      </trkpt>
      <trkpt lat="43.44863" lon="6.60352">
        <ele>319.3</ele>
        <time>2015-09-27T09:59:53Z</time>
      </trkpt>
      <trkpt lat="43.44862" lon="6.60353">
        <ele>319.3</ele>
        <time>2015-09-27T10:00:23Z</time>
      </trkpt>
      <trkpt lat="43.44863" lon="6.60354">
        <ele>319.78</ele>
        <time>2015-09-27T10:00:45Z</time>
      </trkpt>
      <trkpt lat="43.44866" lon="6.60359">
        <ele>321.22</ele>
        <time>2015-09-27T10:01:00Z</time>
      </trkpt>
      <trkpt lat="43.44868" lon="6.60361">
        <ele>324.1</ele>
        <time>2015-09-27T10:01:18Z</time>
      </trkpt>
      <trkpt lat="43.44871" lon="6.60368">
        <ele>326.99</ele>
        <time>2015-09-27T10:01:33Z</time>
      </trkpt>
      <trkpt lat="43.44871" lon="6.60369">
        <ele>328.91</ele>
        <time>2015-09-27T10:01:50Z</time>
      </trkpt>
      <trkpt lat="43.44874" lon="6.60374">
        <ele>330.35</ele>
        <time>2015-09-27T10:02:06Z</time>
      </trkpt>
      <trkpt lat="43.44872" lon="6.60375">
        <ele>332.27</ele>
        <time>2015-09-27T10:02:25Z</time>
      </trkpt>
      <trkpt lat="43.44871" lon="6.60377">
        <ele>334.2</ele>
        <time>2015-09-27T10:02:39Z</time>
      </trkpt>
      <trkpt lat="43.44869" lon="6.6038">
        <ele>335.64</ele>
        <time>2015-09-27T10:02:54Z</time>
      </trkpt>
      <trkpt lat="43.44869" lon="6.60382">
        <ele>337.56</ele>
        <time>2015-09-27T10:03:07Z</time>
      </trkpt>
      <trkpt lat="43.44867" lon="6.60381">
        <ele>339.96</ele>
        <time>2015-09-27T10:03:21Z</time>
      </trkpt>
      <trkpt lat="43.44872" lon="6.60384">
        <ele>340.92</ele>
        <time>2015-09-27T10:03:37Z</time>
      </trkpt>
      <trkpt lat="43.44877" lon="6.60389">
        <ele>342.85</ele>
        <time>2015-09-27T10:03:54Z</time>
      </trkpt>
      <trkpt lat="43.44892" lon="6.604">
        <ele>345.25</ele>
        <time>2015-09-27T10:04:05Z</time>
      </trkpt>
      <trkpt lat="43.44898" lon="6.60398">
        <ele>346.21</ele>
        <time>2015-09-27T10:04:18Z</time>
      </trkpt>
      <trkpt lat="43.44898" lon="6.60387">
        <ele>347.17</ele>
        <time>2015-09-27T10:04:31Z</time>
      </trkpt>
      <trkpt lat="43.44902" lon="6.60384">
        <ele>349.1</ele>
        <time>2015-09-27T10:04:42Z</time>
      </trkpt>
      <trkpt lat="43.44903" lon="6.60382">
        <ele>351.02</ele>
        <time>2015-09-27T10:04:55Z</time>
      </trkpt>
      <trkpt lat="43.44902" lon="6.6038">
        <ele>352.94</ele>
        <time>2015-09-27T10:05:06Z</time>
      </trkpt>
      <trkpt lat="43.44904" lon="6.60382">
        <ele>354.38</ele>
        <time>2015-09-27T10:05:16Z</time>
      </trkpt>
      <trkpt lat="43.44905" lon="6.60382">
        <ele>355.83</ele>
        <time>2015-09-27T10:05:29Z</time>
      </trkpt>
      <trkpt lat="43.44908" lon="6.60383">
        <ele>358.23</ele>
        <time>2015-09-27T10:05:43Z</time>
      </trkpt>
      <trkpt lat="43.44909" lon="6.60388">
        <ele>359.67</ele>
        <time>2015-09-27T10:05:56Z</time>
      </trkpt>
      <trkpt lat="43.4491" lon="6.60391">
        <ele>361.11</ele>
        <time>2015-09-27T10:06:09Z</time>
      </trkpt>
      <trkpt lat="43.44921" lon="6.60395">
        <ele>362.07</ele>
        <time>2015-09-27T10:06:23Z</time>
      </trkpt>
      <trkpt lat="43.44922" lon="6.60393">
        <ele>364</ele>
        <time>2015-09-27T10:06:39Z</time>
      </trkpt>
      <trkpt lat="43.44926" lon="6.60392">
        <ele>365.92</ele>
        <time>2015-09-27T10:06:52Z</time>
      </trkpt>
      <trkpt lat="43.44928" lon="6.60392">
        <ele>367.36</ele>
        <time>2015-09-27T10:07:04Z</time>
      </trkpt>
      <trkpt lat="43.44929" lon="6.60392">
        <ele>367.36</ele>
        <time>2015-09-27T10:07:18Z</time>
      </trkpt>
      <trkpt lat="43.44929" lon="6.60392">
        <ele>367.36</ele>
        <time>2015-09-27T10:07:39Z</time>
      </trkpt>
      <trkpt lat="43.4493" lon="6.60392">
        <ele>367.84</ele>
        <time>2015-09-27T10:07:57Z</time>
      </trkpt>
      <trkpt lat="43.44931" lon="6.60391">
        <ele>368.32</ele>
        <time>2015-09-27T10:08:22Z</time>
      </trkpt>
      <trkpt lat="43.44933" lon="6.60392">
        <ele>367.84</ele>
        <time>2015-09-27T10:08:34Z</time>
      </trkpt>
      <trkpt lat="43.44934" lon="6.60392">
        <ele>367.84</ele>
        <time>2015-09-27T10:08:56Z</time>
      </trkpt>
      <trkpt lat="43.44934" lon="6.60391">
        <ele>367.84</ele>
        <time>2015-09-27T10:09:13Z</time>
      </trkpt>
      <trkpt lat="43.44934" lon="6.60391">
        <ele>368.32</ele>
        <time>2015-09-27T10:09:35Z</time>
      </trkpt>
      <trkpt lat="43.44934" lon="6.60391">
        <ele>368.32</ele>
        <time>2015-09-27T10:09:57Z</time>
      </trkpt>
      <trkpt lat="43.44933" lon="6.60391">
        <ele>368.32</ele>
        <time>2015-09-27T10:10:14Z</time>
      </trkpt>
      <trkpt lat="43.44933" lon="6.6039">
        <ele>368.32</ele>
        <time>2015-09-27T10:10:28Z</time>
      </trkpt>
      <trkpt lat="43.44933" lon="6.60391">
        <ele>368.8</ele>
        <time>2015-09-27T10:10:49Z</time>
      </trkpt>
      <trkpt lat="43.44932" lon="6.6039">
        <ele>368.8</ele>
        <time>2015-09-27T10:11:09Z</time>
      </trkpt>
      <trkpt lat="43.44931" lon="6.6039">
        <ele>368.32</ele>
        <time>2015-09-27T10:11:25Z</time>
      </trkpt>
      <trkpt lat="43.4493" lon="6.60391">
        <ele>368.32</ele>
        <time>2015-09-27T10:11:43Z</time>
      </trkpt>
      <trkpt lat="43.4493" lon="6.60391">
        <ele>367.84</ele>
        <time>2015-09-27T10:12:10Z</time>
      </trkpt>
      <trkpt lat="43.44931" lon="6.60391">
        <ele>368.32</ele>
        <time>2015-09-27T10:12:34Z</time>
      </trkpt>
      <trkpt lat="43.44931" lon="6.60391">
        <ele>368.32</ele>
        <time>2015-09-27T10:13:02Z</time>
      </trkpt>
      <trkpt lat="43.44931" lon="6.60391">
        <ele>368.32</ele>
        <time>2015-09-27T10:13:21Z</time>
      </trkpt>
      <trkpt lat="43.44931" lon="6.60391">
        <ele>368.32</ele>
        <time>2015-09-27T10:13:53Z</time>
      </trkpt>
      <trkpt lat="43.44931" lon="6.60391">
        <ele>368.32</ele>
        <time>2015-09-27T10:14:17Z</time>
      </trkpt>
      <trkpt lat="43.44931" lon="6.6039">
        <ele>368.32</ele>
        <time>2015-09-27T10:14:44Z</time>
      </trkpt>
      <trkpt lat="43.44931" lon="6.60391">
        <ele>368.32</ele>
        <time>2015-09-27T10:15:04Z</time>
      </trkpt>
      <trkpt lat="43.44932" lon="6.60391">
        <ele>368.32</ele>
        <time>2015-09-27T10:15:21Z</time>
      </trkpt>
      <trkpt lat="43.44931" lon="6.60391">
        <ele>368.8</ele>
        <time>2015-09-27T10:15:41Z</time>
      </trkpt>
      <trkpt lat="43.44931" lon="6.60391">
        <ele>368.8</ele>
        <time>2015-09-27T10:16:03Z</time>
      </trkpt>
      <trkpt lat="43.44931" lon="6.60391">
        <ele>368.32</ele>
        <time>2015-09-27T10:16:28Z</time>
      </trkpt>
      <trkpt lat="43.44932" lon="6.60391">
        <ele>368.8</ele>
        <time>2015-09-27T10:16:54Z</time>
      </trkpt>
      <trkpt lat="43.44932" lon="6.60392">
        <ele>368.8</ele>
        <time>2015-09-27T10:17:26Z</time>
      </trkpt>
      <trkpt lat="43.44931" lon="6.60391">
        <ele>368.8</ele>
        <time>2015-09-27T10:17:53Z</time>
      </trkpt>
      <trkpt lat="43.44931" lon="6.60391">
        <ele>368.8</ele>
        <time>2015-09-27T10:18:25Z</time>
      </trkpt>
      <trkpt lat="43.44931" lon="6.60391">
        <ele>369.28</ele>
        <time>2015-09-27T10:18:54Z</time>
      </trkpt>
      <trkpt lat="43.44931" lon="6.60391">
        <ele>369.28</ele>
        <time>2015-09-27T10:19:25Z</time>
      </trkpt>
      <trkpt lat="43.44931" lon="6.60391">
        <ele>369.28</ele>
        <time>2015-09-27T10:19:51Z</time>
      </trkpt>
      <trkpt lat="43.44931" lon="6.60391">
        <ele>369.76</ele>
        <time>2015-09-27T10:20:26Z</time>
      </trkpt>
      <trkpt lat="43.44931" lon="6.60391">
        <ele>369.76</ele>
        <time>2015-09-27T10:20:53Z</time>
      </trkpt>
      <trkpt lat="43.44932" lon="6.60394">
        <ele>369.76</ele>
        <time>2015-09-27T10:21:18Z</time>
      </trkpt>
      <trkpt lat="43.44932" lon="6.60393">
        <ele>370.73</ele>
        <time>2015-09-27T10:21:46Z</time>
      </trkpt>
      <trkpt lat="43.44932" lon="6.60392">
        <ele>369.76</ele>
        <time>2015-09-27T10:22:12Z</time>
      </trkpt>
      <trkpt lat="43.44932" lon="6.60392">
        <ele>370.24</ele>
        <time>2015-09-27T10:22:38Z</time>
      </trkpt>
      <trkpt lat="43.44932" lon="6.60392">
        <ele>370.24</ele>
        <time>2015-09-27T10:23:07Z</time>
      </trkpt>
      <trkpt lat="43.44932" lon="6.60393">
        <ele>370.24</ele>
        <time>2015-09-27T10:23:36Z</time>
      </trkpt>
      <trkpt lat="43.44932" lon="6.60392">
        <ele>370.24</ele>
        <time>2015-09-27T10:24:03Z</time>
      </trkpt>
      <trkpt lat="43.44932" lon="6.60393">
        <ele>370.73</ele>
        <time>2015-09-27T10:24:21Z</time>
      </trkpt>
      <trkpt lat="43.44932" lon="6.60394">
        <ele>370.73</ele>
        <time>2015-09-27T10:24:56Z</time>
      </trkpt>
      <trkpt lat="43.44932" lon="6.60393">
        <ele>370.73</ele>
        <time>2015-09-27T10:25:25Z</time>
      </trkpt>
      <trkpt lat="43.44932" lon="6.60393">
        <ele>370.73</ele>
        <time>2015-09-27T10:25:53Z</time>
      </trkpt>
      <trkpt lat="43.44932" lon="6.60393">
        <ele>370.73</ele>
        <time>2015-09-27T10:26:15Z</time>
      </trkpt>
      <trkpt lat="43.44932" lon="6.60393">
        <ele>370.73</ele>
        <time>2015-09-27T10:26:47Z</time>
      </trkpt>
      <trkpt lat="43.44932" lon="6.60393">
        <ele>370.73</ele>
        <time>2015-09-27T10:27:14Z</time>
      </trkpt>
      <trkpt lat="43.44932" lon="6.60393">
        <ele>370.73</ele>
        <time>2015-09-27T10:27:42Z</time>
      </trkpt>
      <trkpt lat="43.44932" lon="6.60393">
        <ele>371.21</ele>
        <time>2015-09-27T10:28:13Z</time>
      </trkpt>
      <trkpt lat="43.44932" lon="6.60392">
        <ele>371.21</ele>
        <time>2015-09-27T10:28:36Z</time>
      </trkpt>
      <trkpt lat="43.44931" lon="6.60392">
        <ele>370.73</ele>
        <time>2015-09-27T10:29:13Z</time>
      </trkpt>
      <trkpt lat="43.44931" lon="6.60393">
        <ele>371.21</ele>
        <time>2015-09-27T10:29:40Z</time>
      </trkpt>
      <trkpt lat="43.44931" lon="6.60393">
        <ele>371.21</ele>
        <time>2015-09-27T10:30:11Z</time>
      </trkpt>
      <trkpt lat="43.44931" lon="6.60393">
        <ele>371.21</ele>
        <time>2015-09-27T10:30:39Z</time>
      </trkpt>
      <trkpt lat="43.44931" lon="6.60393">
        <ele>371.21</ele>
        <time>2015-09-27T10:31:13Z</time>
      </trkpt>
      <trkpt lat="43.44931" lon="6.60393">
        <ele>372.17</ele>
        <time>2015-09-27T10:31:47Z</time>
      </trkpt>
      <trkpt lat="43.44931" lon="6.60393">
        <ele>371.69</ele>
        <time>2015-09-27T10:32:17Z</time>
      </trkpt>
      <trkpt lat="43.44931" lon="6.60393">
        <ele>371.69</ele>
        <time>2015-09-27T10:32:49Z</time>
      </trkpt>
      <trkpt lat="43.44932" lon="6.60393">
        <ele>372.17</ele>
        <time>2015-09-27T10:33:09Z</time>
      </trkpt>
      <trkpt lat="43.44932" lon="6.60392">
        <ele>371.69</ele>
        <time>2015-09-27T10:33:31Z</time>
      </trkpt>
      <trkpt lat="43.44932" lon="6.60392">
        <ele>372.17</ele>
        <time>2015-09-27T10:34:01Z</time>
      </trkpt>
      <trkpt lat="43.44933" lon="6.60391">
        <ele>372.17</ele>
        <time>2015-09-27T10:34:44Z</time>
      </trkpt>
      <trkpt lat="43.44933" lon="6.60391">
        <ele>372.17</ele>
        <time>2015-09-27T10:35:16Z</time>
      </trkpt>
      <trkpt lat="43.44933" lon="6.6039">
        <ele>372.17</ele>
        <time>2015-09-27T10:35:33Z</time>
      </trkpt>
      <trkpt lat="43.44932" lon="6.6039">
        <ele>370.73</ele>
        <time>2015-09-27T10:35:44Z</time>
      </trkpt>
      <trkpt lat="43.44932" lon="6.60391">
        <ele>370.24</ele>
        <time>2015-09-27T10:35:58Z</time>
      </trkpt>
      <trkpt lat="43.44929" lon="6.6039">
        <ele>368.8</ele>
        <time>2015-09-27T10:36:13Z</time>
      </trkpt>
      <trkpt lat="43.44927" lon="6.60393">
        <ele>366.88</ele>
        <time>2015-09-27T10:36:24Z</time>
      </trkpt>
      <trkpt lat="43.44924" lon="6.60395">
        <ele>366.88</ele>
        <time>2015-09-27T10:36:36Z</time>
      </trkpt>
      <trkpt lat="43.44922" lon="6.60395">
        <ele>366.88</ele>
        <time>2015-09-27T10:36:47Z</time>
      </trkpt>
      <trkpt lat="43.44922" lon="6.60396">
        <ele>366.88</ele>
        <time>2015-09-27T10:37:01Z</time>
      </trkpt>
      <trkpt lat="43.44921" lon="6.60397">
        <ele>366.88</ele>
        <time>2015-09-27T10:37:32Z</time>
      </trkpt>
      <trkpt lat="43.4492" lon="6.60397">
        <ele>367.36</ele>
        <time>2015-09-27T10:37:49Z</time>
      </trkpt>
      <trkpt lat="43.4492" lon="6.60397">
        <ele>367.36</ele>
        <time>2015-09-27T10:38:19Z</time>
      </trkpt>
      <trkpt lat="43.4492" lon="6.60398">
        <ele>367.36</ele>
        <time>2015-09-27T10:38:45Z</time>
      </trkpt>
      <trkpt lat="43.44919" lon="6.60399">
        <ele>367.36</ele>
        <time>2015-09-27T10:39:14Z</time>
      </trkpt>
      <trkpt lat="43.44919" lon="6.60399">
        <ele>367.36</ele>
        <time>2015-09-27T10:39:42Z</time>
      </trkpt>
      <trkpt lat="43.44919" lon="6.60398">
        <ele>367.36</ele>
        <time>2015-09-27T10:40:18Z</time>
      </trkpt>
      <trkpt lat="43.44919" lon="6.60398">
        <ele>367.36</ele>
        <time>2015-09-27T10:40:42Z</time>
      </trkpt>
      <trkpt lat="43.44919" lon="6.60399">
        <ele>367.36</ele>
        <time>2015-09-27T10:41:17Z</time>
      </trkpt>
      <trkpt lat="43.44919" lon="6.60399">
        <ele>367.84</ele>
        <time>2015-09-27T10:41:51Z</time>
      </trkpt>
      <trkpt lat="43.44919" lon="6.60399">
        <ele>367.84</ele>
        <time>2015-09-27T10:42:12Z</time>
      </trkpt>
      <trkpt lat="43.44918" lon="6.60399">
        <ele>367.84</ele>
        <time>2015-09-27T10:42:42Z</time>
      </trkpt>
      <trkpt lat="43.44918" lon="6.604">
        <ele>367.84</ele>
        <time>2015-09-27T10:43:11Z</time>
      </trkpt>
      <trkpt lat="43.44918" lon="6.60399">
        <ele>368.32</ele>
        <time>2015-09-27T10:43:40Z</time>
      </trkpt>
      <trkpt lat="43.44918" lon="6.60399">
        <ele>368.32</ele>
        <time>2015-09-27T10:44:08Z</time>
      </trkpt>
      <trkpt lat="43.44918" lon="6.60399">
        <ele>368.32</ele>
        <time>2015-09-27T10:44:33Z</time>
      </trkpt>
      <trkpt lat="43.44918" lon="6.60399">
        <ele>368.32</ele>
        <time>2015-09-27T10:45:01Z</time>
      </trkpt>
      <trkpt lat="43.44918" lon="6.60399">
        <ele>368.32</ele>
        <time>2015-09-27T10:45:28Z</time>
      </trkpt>
      <trkpt lat="43.44918" lon="6.60399">
        <ele>368.8</ele>
        <time>2015-09-27T10:45:56Z</time>
      </trkpt>
      <trkpt lat="43.44919" lon="6.60396">
        <ele>368.8</ele>
        <time>2015-09-27T10:46:08Z</time>
      </trkpt>
      <trkpt lat="43.44917" lon="6.60396">
        <ele>367.84</ele>
        <time>2015-09-27T10:46:22Z</time>
      </trkpt>
      <trkpt lat="43.44916" lon="6.60394">
        <ele>369.28</ele>
        <time>2015-09-27T10:46:34Z</time>
      </trkpt>
      <trkpt lat="43.44913" lon="6.60395">
        <ele>369.28</ele>
        <time>2015-09-27T10:46:49Z</time>
      </trkpt>
      <trkpt lat="43.44908" lon="6.60394">
        <ele>368.8</ele>
        <time>2015-09-27T10:47:01Z</time>
      </trkpt>
      <trkpt lat="43.44906" lon="6.60394">
        <ele>369.28</ele>
        <time>2015-09-27T10:47:19Z</time>
      </trkpt>
      <trkpt lat="43.44905" lon="6.60394">
        <ele>368.8</ele>
        <time>2015-09-27T10:47:39Z</time>
      </trkpt>
      <trkpt lat="43.44904" lon="6.60393">
        <ele>368.8</ele>
        <time>2015-09-27T10:48:05Z</time>
      </trkpt>
      <trkpt lat="43.44904" lon="6.60393">
        <ele>369.28</ele>
        <time>2015-09-27T10:48:29Z</time>
      </trkpt>
      <trkpt lat="43.44905" lon="6.60394">
        <ele>369.28</ele>
        <time>2015-09-27T10:48:42Z</time>
      </trkpt>
      <trkpt lat="43.44908" lon="6.60394">
        <ele>369.76</ele>
        <time>2015-09-27T10:48:56Z</time>
      </trkpt>
      <trkpt lat="43.44911" lon="6.60394">
        <ele>368.32</ele>
        <time>2015-09-27T10:49:08Z</time>
      </trkpt>
      <trkpt lat="43.44914" lon="6.60395">
        <ele>368.8</ele>
        <time>2015-09-27T10:49:23Z</time>
      </trkpt>
      <trkpt lat="43.44916" lon="6.60396">
        <ele>369.28</ele>
        <time>2015-09-27T10:49:37Z</time>
      </trkpt>
      <trkpt lat="43.44917" lon="6.60395">
        <ele>369.28</ele>
        <time>2015-09-27T10:49:59Z</time>
      </trkpt>
      <trkpt lat="43.44918" lon="6.60396">
        <ele>368.8</ele>
        <time>2015-09-27T10:50:34Z</time>
      </trkpt>
      <trkpt lat="43.44918" lon="6.60396">
        <ele>368.8</ele>
        <time>2015-09-27T10:50:58Z</time>
      </trkpt>
      <trkpt lat="43.44919" lon="6.60396">
        <ele>368.8</ele>
        <time>2015-09-27T10:51:35Z</time>
      </trkpt>
      <trkpt lat="43.44919" lon="6.60397">
        <ele>368.8</ele>
        <time>2015-09-27T10:51:57Z</time>
      </trkpt>
      <trkpt lat="43.44919" lon="6.60397">
        <ele>368.8</ele>
        <time>2015-09-27T10:52:26Z</time>
      </trkpt>
      <trkpt lat="43.4492" lon="6.60398">
        <ele>368.8</ele>
        <time>2015-09-27T10:52:51Z</time>
      </trkpt>
      <trkpt lat="43.4492" lon="6.60398">
        <ele>368.8</ele>
        <time>2015-09-27T10:53:20Z</time>
      </trkpt>
      <trkpt lat="43.44919" lon="6.60398">
        <ele>368.8</ele>
        <time>2015-09-27T10:53:52Z</time>
      </trkpt>
      <trkpt lat="43.44919" lon="6.60398">
        <ele>368.8</ele>
        <time>2015-09-27T10:54:16Z</time>
      </trkpt>
      <trkpt lat="43.44919" lon="6.60398">
        <ele>368.8</ele>
        <time>2015-09-27T10:54:44Z</time>
      </trkpt>
      <trkpt lat="43.44919" lon="6.60398">
        <ele>368.8</ele>
        <time>2015-09-27T10:55:20Z</time>
      </trkpt>
      <trkpt lat="43.4492" lon="6.60398">
        <ele>368.8</ele>
        <time>2015-09-27T10:55:45Z</time>
      </trkpt>
      <trkpt lat="43.4492" lon="6.60398">
        <ele>368.8</ele>
        <time>2015-09-27T10:56:15Z</time>
      </trkpt>
      <trkpt lat="43.4492" lon="6.60398">
        <ele>368.8</ele>
        <time>2015-09-27T10:56:42Z</time>
      </trkpt>
      <trkpt lat="43.4492" lon="6.60397">
        <ele>368.8</ele>
        <time>2015-09-27T10:57:20Z</time>
      </trkpt>
      <trkpt lat="43.4492" lon="6.60397">
        <ele>368.8</ele>
        <time>2015-09-27T10:57:37Z</time>
      </trkpt>
      <trkpt lat="43.4492" lon="6.60398">
        <ele>368.8</ele>
        <time>2015-09-27T10:58:05Z</time>
      </trkpt>
      <trkpt lat="43.4492" lon="6.60398">
        <ele>368.8</ele>
        <time>2015-09-27T10:58:41Z</time>
      </trkpt>
      <trkpt lat="43.4492" lon="6.60397">
        <ele>369.28</ele>
        <time>2015-09-27T10:59:17Z</time>
      </trkpt>
      <trkpt lat="43.4492" lon="6.60397">
        <ele>369.28</ele>
        <time>2015-09-27T10:59:44Z</time>
      </trkpt>
      <trkpt lat="43.4492" lon="6.60398">
        <ele>369.28</ele>
        <time>2015-09-27T11:00:15Z</time>
      </trkpt>
      <trkpt lat="43.4492" lon="6.60398">
        <ele>369.28</ele>
        <time>2015-09-27T11:00:41Z</time>
      </trkpt>
      <trkpt lat="43.44921" lon="6.60399">
        <ele>369.28</ele>
        <time>2015-09-27T11:01:14Z</time>
      </trkpt>
      <trkpt lat="43.4492" lon="6.60398">
        <ele>368.8</ele>
        <time>2015-09-27T11:01:48Z</time>
      </trkpt>
      <trkpt lat="43.4492" lon="6.60398">
        <ele>369.28</ele>
        <time>2015-09-27T11:02:10Z</time>
      </trkpt>
      <trkpt lat="43.4492" lon="6.60398">
        <ele>368.8</ele>
        <time>2015-09-27T11:02:40Z</time>
      </trkpt>
      <trkpt lat="43.4492" lon="6.60398">
        <ele>368.8</ele>
        <time>2015-09-27T11:03:16Z</time>
      </trkpt>
      <trkpt lat="43.4492" lon="6.60398">
        <ele>368.8</ele>
        <time>2015-09-27T11:03:51Z</time>
      </trkpt>
      <trkpt lat="43.4492" lon="6.60398">
        <ele>368.8</ele>
        <time>2015-09-27T11:04:21Z</time>
      </trkpt>
      <trkpt lat="43.44921" lon="6.60398">
        <ele>368.8</ele>
        <time>2015-09-27T11:04:46Z</time>
      </trkpt>
      <trkpt lat="43.44921" lon="6.60398">
        <ele>368.8</ele>
        <time>2015-09-27T11:05:13Z</time>
      </trkpt>
      <trkpt lat="43.4492" lon="6.60399">
        <ele>369.28</ele>
        <time>2015-09-27T11:05:40Z</time>
      </trkpt>
      <trkpt lat="43.4492" lon="6.60399">
        <ele>369.28</ele>
        <time>2015-09-27T11:06:05Z</time>
      </trkpt>
      <trkpt lat="43.4492" lon="6.60399">
        <ele>369.28</ele>
        <time>2015-09-27T11:06:37Z</time>
      </trkpt>
      <trkpt lat="43.4492" lon="6.60398">
        <ele>369.28</ele>
        <time>2015-09-27T11:07:06Z</time>
      </trkpt>
      <trkpt lat="43.44921" lon="6.60398">
        <ele>369.28</ele>
        <time>2015-09-27T11:07:40Z</time>
      </trkpt>
      <trkpt lat="43.44921" lon="6.60398">
        <ele>369.28</ele>
        <time>2015-09-27T11:07:53Z</time>
      </trkpt>
      <trkpt lat="43.44921" lon="6.60397">
        <ele>369.28</ele>
        <time>2015-09-27T11:08:14Z</time>
      </trkpt>
      <trkpt lat="43.44921" lon="6.60397">
        <ele>369.28</ele>
        <time>2015-09-27T11:08:29Z</time>
      </trkpt>
      <trkpt lat="43.44921" lon="6.60397">
        <ele>369.28</ele>
        <time>2015-09-27T11:08:50Z</time>
      </trkpt>
      <trkpt lat="43.44921" lon="6.60395">
        <ele>368.8</ele>
        <time>2015-09-27T11:09:04Z</time>
      </trkpt>
      <trkpt lat="43.44919" lon="6.60394">
        <ele>368.32</ele>
        <time>2015-09-27T11:09:19Z</time>
      </trkpt>
      <trkpt lat="43.44916" lon="6.60391">
        <ele>366.4</ele>
        <time>2015-09-27T11:09:33Z</time>
      </trkpt>
      <trkpt lat="43.44916" lon="6.60387">
        <ele>364.96</ele>
        <time>2015-09-27T11:09:47Z</time>
      </trkpt>
      <trkpt lat="43.44913" lon="6.60385">
        <ele>363.52</ele>
        <time>2015-09-27T11:09:58Z</time>
      </trkpt>
      <trkpt lat="43.44913" lon="6.60382">
        <ele>363.04</ele>
        <time>2015-09-27T11:10:12Z</time>
      </trkpt>
      <trkpt lat="43.44909" lon="6.60382">
        <ele>360.63</ele>
        <time>2015-09-27T11:10:25Z</time>
      </trkpt>
      <trkpt lat="43.44906" lon="6.60381">
        <ele>357.27</ele>
        <time>2015-09-27T11:10:40Z</time>
      </trkpt>
      <trkpt lat="43.44903" lon="6.60377">
        <ele>355.34</ele>
        <time>2015-09-27T11:10:54Z</time>
      </trkpt>
      <trkpt lat="43.44896" lon="6.60376">
        <ele>353.42</ele>
        <time>2015-09-27T11:11:06Z</time>
      </trkpt>
      <trkpt lat="43.44895" lon="6.60375">
        <ele>353.42</ele>
        <time>2015-09-27T11:11:09Z</time>
      </trkpt>
      <trkpt lat="43.44893" lon="6.60374">
        <ele>352.94</ele>
        <time>2015-09-27T11:11:23Z</time>
      </trkpt>
      <trkpt lat="43.44892" lon="6.60375">
        <ele>352.46</ele>
        <time>2015-09-27T11:11:47Z</time>
      </trkpt>
      <trkpt lat="43.44891" lon="6.60374">
        <ele>351.98</ele>
        <time>2015-09-27T11:12:00Z</time>
      </trkpt>
      <trkpt lat="43.4489" lon="6.60374">
        <ele>351.98</ele>
        <time>2015-09-27T11:12:16Z</time>
      </trkpt>
      <trkpt lat="43.44886" lon="6.60375">
        <ele>350.54</ele>
        <time>2015-09-27T11:12:30Z</time>
      </trkpt>
      <trkpt lat="43.44884" lon="6.60375">
        <ele>349.1</ele>
        <time>2015-09-27T11:12:40Z</time>
      </trkpt>
      <trkpt lat="43.44881" lon="6.60374">
        <ele>346.69</ele>
        <time>2015-09-27T11:12:53Z</time>
      </trkpt>
      <trkpt lat="43.44879" lon="6.60372">
        <ele>345.25</ele>
        <time>2015-09-27T11:13:06Z</time>
      </trkpt>
      <trkpt lat="43.44877" lon="6.60369">
        <ele>344.29</ele>
        <time>2015-09-27T11:13:18Z</time>
      </trkpt>
      <trkpt lat="43.44877" lon="6.60369">
        <ele>343.81</ele>
        <time>2015-09-27T11:13:40Z</time>
      </trkpt>
      <trkpt lat="43.44877" lon="6.60368">
        <ele>341.89</ele>
        <time>2015-09-27T11:13:55Z</time>
      </trkpt>
      <trkpt lat="43.44875" lon="6.60365">
        <ele>340.92</ele>
        <time>2015-09-27T11:14:06Z</time>
      </trkpt>
      <trkpt lat="43.44875" lon="6.60361">
        <ele>339</ele>
        <time>2015-09-27T11:14:20Z</time>
      </trkpt>
      <trkpt lat="43.44873" lon="6.60362">
        <ele>338.52</ele>
        <time>2015-09-27T11:14:36Z</time>
      </trkpt>
      <trkpt lat="43.44873" lon="6.60357">
        <ele>335.16</ele>
        <time>2015-09-27T11:14:53Z</time>
      </trkpt>
      <trkpt lat="43.44873" lon="6.60358">
        <ele>333.23</ele>
        <time>2015-09-27T11:15:07Z</time>
      </trkpt>
      <trkpt lat="43.44872" lon="6.60355">
        <ele>331.31</ele>
        <time>2015-09-27T11:15:20Z</time>
      </trkpt>
      <trkpt lat="43.44869" lon="6.60352">
        <ele>328.43</ele>
        <time>2015-09-27T11:15:33Z</time>
      </trkpt>
      <trkpt lat="43.44867" lon="6.60351">
        <ele>326.99</ele>
        <time>2015-09-27T11:15:44Z</time>
      </trkpt>
      <trkpt lat="43.44868" lon="6.60348">
        <ele>324.58</ele>
        <time>2015-09-27T11:15:53Z</time>
      </trkpt>
      <trkpt lat="43.44867" lon="6.60345">
        <ele>322.66</ele>
        <time>2015-09-27T11:16:07Z</time>
      </trkpt>
      <trkpt lat="43.44867" lon="6.60345">
        <ele>322.18</ele>
        <time>2015-09-27T11:16:26Z</time>
      </trkpt>
      <trkpt lat="43.44866" lon="6.60345">
        <ele>322.18</ele>
        <time>2015-09-27T11:16:47Z</time>
      </trkpt>
      <trkpt lat="43.44867" lon="6.60344">
        <ele>322.18</ele>
        <time>2015-09-27T11:17:15Z</time>
      </trkpt>
      <trkpt lat="43.44867" lon="6.60343">
        <ele>321.7</ele>
        <time>2015-09-27T11:17:44Z</time>
      </trkpt>
      <trkpt lat="43.44867" lon="6.60343">
        <ele>322.18</ele>
        <time>2015-09-27T11:18:09Z</time>
      </trkpt>
      <trkpt lat="43.44866" lon="6.60344">
        <ele>321.7</ele>
        <time>2015-09-27T11:18:26Z</time>
      </trkpt>
      <trkpt lat="43.44866" lon="6.60343">
        <ele>321.7</ele>
        <time>2015-09-27T11:18:54Z</time>
      </trkpt>
      <trkpt lat="43.44865" lon="6.60344">
        <ele>322.18</ele>
        <time>2015-09-27T11:19:25Z</time>
      </trkpt>
      <trkpt lat="43.44865" lon="6.60344">
        <ele>322.18</ele>
        <time>2015-09-27T11:19:56Z</time>
      </trkpt>
      <trkpt lat="43.44865" lon="6.60344">
        <ele>321.22</ele>
        <time>2015-09-27T11:20:13Z</time>
      </trkpt>
      <trkpt lat="43.44865" lon="6.60343">
        <ele>320.26</ele>
        <time>2015-09-27T11:20:17Z</time>
      </trkpt>
      <trkpt lat="43.44864" lon="6.6034">
        <ele>317.85</ele>
        <time>2015-09-27T11:20:28Z</time>
      </trkpt>
      <trkpt lat="43.44864" lon="6.60334">
        <ele>315.45</ele>
        <time>2015-09-27T11:20:42Z</time>
      </trkpt>
      <trkpt lat="43.44864" lon="6.60331">
        <ele>312.09</ele>
        <time>2015-09-27T11:20:52Z</time>
      </trkpt>
      <trkpt lat="43.44861" lon="6.6033">
        <ele>310.64</ele>
        <time>2015-09-27T11:21:05Z</time>
      </trkpt>
      <trkpt lat="43.44859" lon="6.60329">
        <ele>308.72</ele>
        <time>2015-09-27T11:21:16Z</time>
      </trkpt>
      <trkpt lat="43.44857" lon="6.60327">
        <ele>306.32</ele>
        <time>2015-09-27T11:21:29Z</time>
      </trkpt>
      <trkpt lat="43.44853" lon="6.60322">
        <ele>303.91</ele>
        <time>2015-09-27T11:21:41Z</time>
      </trkpt>
      <trkpt lat="43.44852" lon="6.6032">
        <ele>301.99</ele>
        <time>2015-09-27T11:21:52Z</time>
      </trkpt>
      <trkpt lat="43.44852" lon="6.60319">
        <ele>298.63</ele>
        <time>2015-09-27T11:22:01Z</time>
      </trkpt>
      <trkpt lat="43.4485" lon="6.60316">
        <ele>296.7</ele>
        <time>2015-09-27T11:22:13Z</time>
      </trkpt>
      <trkpt lat="43.44849" lon="6.60311">
        <ele>294.78</ele>
        <time>2015-09-27T11:22:22Z</time>
      </trkpt>
      <trkpt lat="43.44848" lon="6.60306">
        <ele>291.9</ele>
        <time>2015-09-27T11:22:32Z</time>
      </trkpt>
      <trkpt lat="43.44849" lon="6.603">
        <ele>288.53</ele>
        <time>2015-09-27T11:22:47Z</time>
      </trkpt>
      <trkpt lat="43.44848" lon="6.60292">
        <ele>285.65</ele>
        <time>2015-09-27T11:22:59Z</time>
      </trkpt>
      <trkpt lat="43.44848" lon="6.60285">
        <ele>282.77</ele>
        <time>2015-09-27T11:23:11Z</time>
      </trkpt>
      <trkpt lat="43.4485" lon="6.60275">
        <ele>280.36</ele>
        <time>2015-09-27T11:23:24Z</time>
      </trkpt>
      <trkpt lat="43.44852" lon="6.60268">
        <ele>279.88</ele>
        <time>2015-09-27T11:23:33Z</time>
      </trkpt>
      <trkpt lat="43.44853" lon="6.60259">
        <ele>277.48</ele>
        <time>2015-09-27T11:23:45Z</time>
      </trkpt>
      <trkpt lat="43.44854" lon="6.60258">
        <ele>277.48</ele>
        <time>2015-09-27T11:24:03Z</time>
      </trkpt>
      <trkpt lat="43.44855" lon="6.60256">
        <ele>275.56</ele>
        <time>2015-09-27T11:24:17Z</time>
      </trkpt>
      <trkpt lat="43.44857" lon="6.60251">
        <ele>273.15</ele>
        <time>2015-09-27T11:24:30Z</time>
      </trkpt>
      <trkpt lat="43.4486" lon="6.60246">
        <ele>271.23</ele>
        <time>2015-09-27T11:24:43Z</time>
      </trkpt>
      <trkpt lat="43.4486" lon="6.6024">
        <ele>268.35</ele>
        <time>2015-09-27T11:24:55Z</time>
      </trkpt>
      <trkpt lat="43.44858" lon="6.60235">
        <ele>266.9</ele>
        <time>2015-09-27T11:25:01Z</time>
      </trkpt>
      <trkpt lat="43.44855" lon="6.60224">
        <ele>263.54</ele>
        <time>2015-09-27T11:25:10Z</time>
      </trkpt>
      <trkpt lat="43.44855" lon="6.60222">
        <ele>263.06</ele>
        <time>2015-09-27T11:25:11Z</time>
      </trkpt>
      <trkpt lat="43.44854" lon="6.60214">
        <ele>259.69</ele>
        <time>2015-09-27T11:25:19Z</time>
      </trkpt>
      <trkpt lat="43.44854" lon="6.60213">
        <ele>259.69</ele>
        <time>2015-09-27T11:25:40Z</time>
      </trkpt>
      <trkpt lat="43.44852" lon="6.60211">
        <ele>259.69</ele>
        <time>2015-09-27T11:26:14Z</time>
      </trkpt>
      <trkpt lat="43.44852" lon="6.6021">
        <ele>259.69</ele>
        <time>2015-09-27T11:26:45Z</time>
      </trkpt>
      <trkpt lat="43.44852" lon="6.6021">
        <ele>260.17</ele>
        <time>2015-09-27T11:27:17Z</time>
      </trkpt>
      <trkpt lat="43.44852" lon="6.6021">
        <ele>260.17</ele>
        <time>2015-09-27T11:27:39Z</time>
      </trkpt>
      <trkpt lat="43.44852" lon="6.6021">
        <ele>259.69</ele>
        <time>2015-09-27T11:28:06Z</time>
      </trkpt>
      <trkpt lat="43.44852" lon="6.60211">
        <ele>259.69</ele>
        <time>2015-09-27T11:28:33Z</time>
      </trkpt>
      <trkpt lat="43.44853" lon="6.60212">
        <ele>259.21</ele>
        <time>2015-09-27T11:29:10Z</time>
      </trkpt>
      <trkpt lat="43.44853" lon="6.60211">
        <ele>259.21</ele>
        <time>2015-09-27T11:29:39Z</time>
      </trkpt>
      <trkpt lat="43.44853" lon="6.60211">
        <ele>259.21</ele>
        <time>2015-09-27T11:30:15Z</time>
      </trkpt>
      <trkpt lat="43.44853" lon="6.6021">
        <ele>259.21</ele>
        <time>2015-09-27T11:30:40Z</time>
      </trkpt>
      <trkpt lat="43.44853" lon="6.6021">
        <ele>259.21</ele>
        <time>2015-09-27T11:31:11Z</time>
      </trkpt>
      <trkpt lat="43.44853" lon="6.6021">
        <ele>259.21</ele>
        <time>2015-09-27T11:31:42Z</time>
      </trkpt>
      <trkpt lat="43.44853" lon="6.6021">
        <ele>259.21</ele>
        <time>2015-09-27T11:32:11Z</time>
      </trkpt>
      <trkpt lat="43.44852" lon="6.6021">
        <ele>259.21</ele>
        <time>2015-09-27T11:32:43Z</time>
      </trkpt>
      <trkpt lat="43.44852" lon="6.6021">
        <ele>259.21</ele>
        <time>2015-09-27T11:33:14Z</time>
      </trkpt>
      <trkpt lat="43.44852" lon="6.60211">
        <ele>259.21</ele>
        <time>2015-09-27T11:33:36Z</time>
      </trkpt>
      <trkpt lat="43.44852" lon="6.60209">
        <ele>258.73</ele>
        <time>2015-09-27T11:33:51Z</time>
      </trkpt>
      <trkpt lat="43.44848" lon="6.60205">
        <ele>256.81</ele>
        <time>2015-09-27T11:34:04Z</time>
      </trkpt>
      <trkpt lat="43.44848" lon="6.60206">
        <ele>255.37</ele>
        <time>2015-09-27T11:34:10Z</time>
      </trkpt>
      <trkpt lat="43.44849" lon="6.602">
        <ele>252.96</ele>
        <time>2015-09-27T11:34:21Z</time>
      </trkpt>
      <trkpt lat="43.44845" lon="6.60195">
        <ele>250.08</ele>
        <time>2015-09-27T11:34:33Z</time>
      </trkpt>
      <trkpt lat="43.44843" lon="6.60189">
        <ele>248.64</ele>
        <time>2015-09-27T11:34:44Z</time>
      </trkpt>
      <trkpt lat="43.4484" lon="6.60186">
        <ele>247.2</ele>
        <time>2015-09-27T11:34:50Z</time>
      </trkpt>
      <trkpt lat="43.44834" lon="6.60175">
        <ele>244.31</ele>
        <time>2015-09-27T11:35:04Z</time>
      </trkpt>
      <trkpt lat="43.44826" lon="6.60168">
        <ele>242.87</ele>
        <time>2015-09-27T11:35:16Z</time>
      </trkpt>
      <trkpt lat="43.44826" lon="6.60162">
        <ele>240.47</ele>
        <time>2015-09-27T11:35:30Z</time>
      </trkpt>
      <trkpt lat="43.44826" lon="6.60162">
        <ele>239.99</ele>
        <time>2015-09-27T11:35:32Z</time>
      </trkpt>
      <trkpt lat="43.44826" lon="6.60152">
        <ele>236.62</ele>
        <time>2015-09-27T11:35:46Z</time>
      </trkpt>
      <trkpt lat="43.44828" lon="6.60144">
        <ele>234.7</ele>
        <time>2015-09-27T11:35:59Z</time>
      </trkpt>
      <trkpt lat="43.44827" lon="6.60139">
        <ele>232.78</ele>
        <time>2015-09-27T11:36:11Z</time>
      </trkpt>
      <trkpt lat="43.44825" lon="6.60132">
        <ele>230.37</ele>
        <time>2015-09-27T11:36:23Z</time>
      </trkpt>
      <trkpt lat="43.44821" lon="6.60127">
        <ele>229.41</ele>
        <time>2015-09-27T11:36:31Z</time>
      </trkpt>
      <trkpt lat="43.44817" lon="6.60116">
        <ele>226.53</ele>
        <time>2015-09-27T11:36:45Z</time>
      </trkpt>
      <trkpt lat="43.44814" lon="6.60109">
        <ele>224.12</ele>
        <time>2015-09-27T11:36:59Z</time>
      </trkpt>
      <trkpt lat="43.44803" lon="6.60103">
        <ele>222.2</ele>
        <time>2015-09-27T11:37:10Z</time>
      </trkpt>
      <trkpt lat="43.44795" lon="6.60099">
        <ele>219.8</ele>
        <time>2015-09-27T11:37:23Z</time>
      </trkpt>
      <trkpt lat="43.44786" lon="6.60093">
        <ele>217.88</ele>
        <time>2015-09-27T11:37:37Z</time>
      </trkpt>
      <trkpt lat="43.44779" lon="6.60084">
        <ele>215.47</ele>
        <time>2015-09-27T11:37:52Z</time>
      </trkpt>
      <trkpt lat="43.44763" lon="6.60082">
        <ele>213.07</ele>
        <time>2015-09-27T11:38:06Z</time>
      </trkpt>
      <trkpt lat="43.44753" lon="6.60074">
        <ele>210.67</ele>
        <time>2015-09-27T11:38:21Z</time>
      </trkpt>
      <trkpt lat="43.44742" lon="6.60066">
        <ele>208.26</ele>
        <time>2015-09-27T11:38:36Z</time>
      </trkpt>
      <trkpt lat="43.44728" lon="6.60065">
        <ele>206.34</ele>
        <time>2015-09-27T11:38:52Z</time>
      </trkpt>
      <trkpt lat="43.44719" lon="6.6007">
        <ele>204.9</ele>
        <time>2015-09-27T11:39:05Z</time>
      </trkpt>
      <trkpt lat="43.44712" lon="6.60072">
        <ele>203.46</ele>
        <time>2015-09-27T11:39:18Z</time>
      </trkpt>
      <trkpt lat="43.44702" lon="6.60079">
        <ele>204.9</ele>
        <time>2015-09-27T11:39:30Z</time>
      </trkpt>
      <trkpt lat="43.44694" lon="6.60083">
        <ele>204.9</ele>
        <time>2015-09-27T11:39:35Z</time>
      </trkpt>
      <trkpt lat="43.44682" lon="6.60103">
        <ele>203.46</ele>
        <time>2015-09-27T11:39:49Z</time>
      </trkpt>
      <trkpt lat="43.44681" lon="6.60108">
        <ele>203.46</ele>
        <time>2015-09-27T11:39:53Z</time>
      </trkpt>
      <trkpt lat="43.44678" lon="6.60111">
        <ele>202.98</ele>
        <time>2015-09-27T11:39:57Z</time>
      </trkpt>
      <trkpt lat="43.44674" lon="6.60112">
        <ele>203.46</ele>
        <time>2015-09-27T11:40:00Z</time>
      </trkpt>
      <trkpt lat="43.44671" lon="6.60113">
        <ele>203.46</ele>
        <time>2015-09-27T11:40:04Z</time>
      </trkpt>
      <trkpt lat="43.44661" lon="6.60108">
        <ele>202.01</ele>
        <time>2015-09-27T11:40:19Z</time>
      </trkpt>
      <trkpt lat="43.44654" lon="6.60096">
        <ele>200.09</ele>
        <time>2015-09-27T11:40:32Z</time>
      </trkpt>
      <trkpt lat="43.44646" lon="6.60087">
        <ele>198.65</ele>
        <time>2015-09-27T11:40:45Z</time>
      </trkpt>
      <trkpt lat="43.44635" lon="6.60075">
        <ele>198.17</ele>
        <time>2015-09-27T11:41:00Z</time>
      </trkpt>
      <trkpt lat="43.44632" lon="6.60075">
        <ele>198.17</ele>
        <time>2015-09-27T11:41:21Z</time>
      </trkpt>
      <trkpt lat="43.44633" lon="6.60074">
        <ele>197.69</ele>
        <time>2015-09-27T11:41:40Z</time>
      </trkpt>
      <trkpt lat="43.44633" lon="6.60072">
        <ele>197.21</ele>
        <time>2015-09-27T11:42:03Z</time>
      </trkpt>
      <trkpt lat="43.44632" lon="6.60072">
        <ele>197.21</ele>
        <time>2015-09-27T11:42:19Z</time>
      </trkpt>
      <trkpt lat="43.44632" lon="6.60073">
        <ele>197.21</ele>
        <time>2015-09-27T11:42:37Z</time>
      </trkpt>
      <trkpt lat="43.44632" lon="6.60073">
        <ele>197.21</ele>
        <time>2015-09-27T11:43:00Z</time>
      </trkpt>
      <trkpt lat="43.44632" lon="6.60073">
        <ele>196.73</ele>
        <time>2015-09-27T11:43:27Z</time>
      </trkpt>
      <trkpt lat="43.44632" lon="6.60071">
        <ele>197.21</ele>
        <time>2015-09-27T11:43:56Z</time>
      </trkpt>
      <trkpt lat="43.44632" lon="6.6007">
        <ele>196.73</ele>
        <time>2015-09-27T11:44:27Z</time>
      </trkpt>
      <trkpt lat="43.44632" lon="6.60069">
        <ele>196.73</ele>
        <time>2015-09-27T11:44:59Z</time>
      </trkpt>
      <trkpt lat="43.44632" lon="6.60068">
        <ele>196.73</ele>
        <time>2015-09-27T11:45:23Z</time>
      </trkpt>
      <trkpt lat="43.44632" lon="6.60068">
        <ele>196.73</ele>
        <time>2015-09-27T11:45:53Z</time>
      </trkpt>
      <trkpt lat="43.44631" lon="6.60068">
        <ele>196.73</ele>
        <time>2015-09-27T11:46:22Z</time>
      </trkpt>
      <trkpt lat="43.44631" lon="6.60069">
        <ele>196.73</ele>
        <time>2015-09-27T11:46:48Z</time>
      </trkpt>
      <trkpt lat="43.44632" lon="6.60069">
        <ele>196.73</ele>
        <time>2015-09-27T11:47:05Z</time>
      </trkpt>
      <trkpt lat="43.44632" lon="6.60068">
        <ele>197.21</ele>
        <time>2015-09-27T11:47:29Z</time>
      </trkpt>
      <trkpt lat="43.44632" lon="6.60068">
        <ele>197.21</ele>
        <time>2015-09-27T11:47:58Z</time>
      </trkpt>
      <trkpt lat="43.44632" lon="6.60067">
        <ele>197.21</ele>
        <time>2015-09-27T11:48:32Z</time>
      </trkpt>
      <trkpt lat="43.44632" lon="6.60067">
        <ele>197.21</ele>
        <time>2015-09-27T11:48:56Z</time>
      </trkpt>
      <trkpt lat="43.44632" lon="6.60068">
        <ele>197.21</ele>
        <time>2015-09-27T11:49:11Z</time>
      </trkpt>
      <trkpt lat="43.44626" lon="6.60075">
        <ele>197.21</ele>
        <time>2015-09-27T11:49:27Z</time>
      </trkpt>
      <trkpt lat="43.44621" lon="6.60081">
        <ele>197.21</ele>
        <time>2015-09-27T11:49:41Z</time>
      </trkpt>
      <trkpt lat="43.44618" lon="6.60098">
        <ele>197.21</ele>
        <time>2015-09-27T11:49:54Z</time>
      </trkpt>
      <trkpt lat="43.44612" lon="6.60109">
        <ele>196.25</ele>
        <time>2015-09-27T11:50:10Z</time>
      </trkpt>
      <trkpt lat="43.44609" lon="6.60121">
        <ele>195.28</ele>
        <time>2015-09-27T11:50:21Z</time>
      </trkpt>
      <trkpt lat="43.44608" lon="6.6013">
        <ele>194.32</ele>
        <time>2015-09-27T11:50:30Z</time>
      </trkpt>
      <trkpt lat="43.44601" lon="6.60142">
        <ele>193.36</ele>
        <time>2015-09-27T11:50:45Z</time>
      </trkpt>
      <trkpt lat="43.44597" lon="6.60153">
        <ele>192.4</ele>
        <time>2015-09-27T11:50:55Z</time>
      </trkpt>
      <trkpt lat="43.44599" lon="6.60173">
        <ele>190.96</ele>
        <time>2015-09-27T11:51:08Z</time>
      </trkpt>
      <trkpt lat="43.446" lon="6.60184">
        <ele>190</ele>
        <time>2015-09-27T11:51:20Z</time>
      </trkpt>
      <trkpt lat="43.446" lon="6.60189">
        <ele>189.52</ele>
        <time>2015-09-27T11:51:32Z</time>
      </trkpt>
      <trkpt lat="43.446" lon="6.60193">
        <ele>188.56</ele>
        <time>2015-09-27T11:51:39Z</time>
      </trkpt>
      <trkpt lat="43.44598" lon="6.60202">
        <ele>187.59</ele>
        <time>2015-09-27T11:51:53Z</time>
      </trkpt>
      <trkpt lat="43.44597" lon="6.60204">
        <ele>186.63</ele>
        <time>2015-09-27T11:52:08Z</time>
      </trkpt>
      <trkpt lat="43.44595" lon="6.60205">
        <ele>186.63</ele>
        <time>2015-09-27T11:52:21Z</time>
      </trkpt>
      <trkpt lat="43.44592" lon="6.60207">
        <ele>185.67</ele>
        <time>2015-09-27T11:52:28Z</time>
      </trkpt>
      <trkpt lat="43.44583" lon="6.60225">
        <ele>184.23</ele>
        <time>2015-09-27T11:52:41Z</time>
      </trkpt>
      <trkpt lat="43.44576" lon="6.60238">
        <ele>182.79</ele>
        <time>2015-09-27T11:52:53Z</time>
      </trkpt>
      <trkpt lat="43.44569" lon="6.60253">
        <ele>181.35</ele>
        <time>2015-09-27T11:53:07Z</time>
      </trkpt>
      <trkpt lat="43.4456" lon="6.60262">
        <ele>179.9</ele>
        <time>2015-09-27T11:53:20Z</time>
      </trkpt>
      <trkpt lat="43.44549" lon="6.60269">
        <ele>178.46</ele>
        <time>2015-09-27T11:53:32Z</time>
      </trkpt>
      <trkpt lat="43.44539" lon="6.6028">
        <ele>177.02</ele>
        <time>2015-09-27T11:53:45Z</time>
      </trkpt>
      <trkpt lat="43.44528" lon="6.60287">
        <ele>174.14</ele>
        <time>2015-09-27T11:54:01Z</time>
      </trkpt>
      <trkpt lat="43.44519" lon="6.60289">
        <ele>172.69</ele>
        <time>2015-09-27T11:54:14Z</time>
      </trkpt>
      <trkpt lat="43.44514" lon="6.60289">
        <ele>171.25</ele>
        <time>2015-09-27T11:54:21Z</time>
      </trkpt>
      <trkpt lat="43.44502" lon="6.60294">
        <ele>169.33</ele>
        <time>2015-09-27T11:54:37Z</time>
      </trkpt>
      <trkpt lat="43.44495" lon="6.60297">
        <ele>167.89</ele>
        <time>2015-09-27T11:54:50Z</time>
      </trkpt>
      <trkpt lat="43.44491" lon="6.60294">
        <ele>165.48</ele>
        <time>2015-09-27T11:55:03Z</time>
      </trkpt>
      <trkpt lat="43.44491" lon="6.60294">
        <ele>165.48</ele>
        <time>2015-09-27T11:55:06Z</time>
      </trkpt>
      <trkpt lat="43.44485" lon="6.60289">
        <ele>162.6</ele>
        <time>2015-09-27T11:55:21Z</time>
      </trkpt>
      <trkpt lat="43.44479" lon="6.60282">
        <ele>160.68</ele>
        <time>2015-09-27T11:55:35Z</time>
      </trkpt>
      <trkpt lat="43.4447" lon="6.60276">
        <ele>158.27</ele>
        <time>2015-09-27T11:55:48Z</time>
      </trkpt>
      <trkpt lat="43.44458" lon="6.60269">
        <ele>156.35</ele>
        <time>2015-09-27T11:56:01Z</time>
      </trkpt>
      <trkpt lat="43.4445" lon="6.60265">
        <ele>153.95</ele>
        <time>2015-09-27T11:56:15Z</time>
      </trkpt>
      <trkpt lat="43.44448" lon="6.60265">
        <ele>153.47</ele>
        <time>2015-09-27T11:56:22Z</time>
      </trkpt>
      <trkpt lat="43.44439" lon="6.60263">
        <ele>152.03</ele>
        <time>2015-09-27T11:56:34Z</time>
      </trkpt>
      <trkpt lat="43.44434" lon="6.60263">
        <ele>150.1</ele>
        <time>2015-09-27T11:56:48Z</time>
      </trkpt>
      <trkpt lat="43.44427" lon="6.60264">
        <ele>148.66</ele>
        <time>2015-09-27T11:57:01Z</time>
      </trkpt>
      <trkpt lat="43.44424" lon="6.60265">
        <ele>147.7</ele>
        <time>2015-09-27T11:57:14Z</time>
      </trkpt>
      <trkpt lat="43.44423" lon="6.60265">
        <ele>147.22</ele>
        <time>2015-09-27T11:57:28Z</time>
      </trkpt>
      <trkpt lat="43.44421" lon="6.60266">
        <ele>145.78</ele>
        <time>2015-09-27T11:57:43Z</time>
      </trkpt>
      <trkpt lat="43.44419" lon="6.60266">
        <ele>145.3</ele>
        <time>2015-09-27T11:58:05Z</time>
      </trkpt>
      <trkpt lat="43.44417" lon="6.60265">
        <ele>144.34</ele>
        <time>2015-09-27T11:58:17Z</time>
      </trkpt>
      <trkpt lat="43.44415" lon="6.6026">
        <ele>142.89</ele>
        <time>2015-09-27T11:58:28Z</time>
      </trkpt>
      <trkpt lat="43.44413" lon="6.60258">
        <ele>142.41</ele>
        <time>2015-09-27T11:58:30Z</time>
      </trkpt>
      <trkpt lat="43.44409" lon="6.60258">
        <ele>141.93</ele>
        <time>2015-09-27T11:58:34Z</time>
      </trkpt>
      <trkpt lat="43.44403" lon="6.60252">
        <ele>141.45</ele>
        <time>2015-09-27T11:58:39Z</time>
      </trkpt>
      <trkpt lat="43.44387" lon="6.60257">
        <ele>138.57</ele>
        <time>2015-09-27T11:58:52Z</time>
      </trkpt>
      <trkpt lat="43.44376" lon="6.60256">
        <ele>137.61</ele>
        <time>2015-09-27T11:59:04Z</time>
      </trkpt>
      <trkpt lat="43.44374" lon="6.60257">
        <ele>137.13</ele>
        <time>2015-09-27T11:59:08Z</time>
      </trkpt>
      <trkpt lat="43.44366" lon="6.60259">
        <ele>136.16</ele>
        <time>2015-09-27T11:59:18Z</time>
      </trkpt>
      <trkpt lat="43.44353" lon="6.60257">
        <ele>134.24</ele>
        <time>2015-09-27T11:59:31Z</time>
      </trkpt>
      <trkpt lat="43.44343" lon="6.60258">
        <ele>132.8</ele>
        <time>2015-09-27T11:59:43Z</time>
      </trkpt>
      <trkpt lat="43.44336" lon="6.60267">
        <ele>131.36</ele>
        <time>2015-09-27T11:59:57Z</time>
      </trkpt>
      <trkpt lat="43.44329" lon="6.60272">
        <ele>129.43</ele>
        <time>2015-09-27T12:00:08Z</time>
      </trkpt>
      <trkpt lat="43.44325" lon="6.60273">
        <ele>129.43</ele>
        <time>2015-09-27T12:00:13Z</time>
      </trkpt>
      <trkpt lat="43.44321" lon="6.60274">
        <ele>128.47</ele>
        <time>2015-09-27T12:00:18Z</time>
      </trkpt>
      <trkpt lat="43.4432" lon="6.60278">
        <ele>128.95</ele>
        <time>2015-09-27T12:00:21Z</time>
      </trkpt>
      <trkpt lat="43.44315" lon="6.60282">
        <ele>127.51</ele>
        <time>2015-09-27T12:00:28Z</time>
      </trkpt>
      <trkpt lat="43.44307" lon="6.60286">
        <ele>125.59</ele>
        <time>2015-09-27T12:00:39Z</time>
      </trkpt>
      <trkpt lat="43.44305" lon="6.60286">
        <ele>125.59</ele>
        <time>2015-09-27T12:00:41Z</time>
      </trkpt>
      <trkpt lat="43.44301" lon="6.60289">
        <ele>126.07</ele>
        <time>2015-09-27T12:00:45Z</time>
      </trkpt>
      <trkpt lat="43.44291" lon="6.60295">
        <ele>124.15</ele>
        <time>2015-09-27T12:00:58Z</time>
      </trkpt>
      <trkpt lat="43.44285" lon="6.60301">
        <ele>123.19</ele>
        <time>2015-09-27T12:01:10Z</time>
      </trkpt>
      <trkpt lat="43.44283" lon="6.60301">
        <ele>123.19</ele>
        <time>2015-09-27T12:01:12Z</time>
      </trkpt>
      <trkpt lat="43.44282" lon="6.60299">
        <ele>123.19</ele>
        <time>2015-09-27T12:01:14Z</time>
      </trkpt>
      <trkpt lat="43.4427" lon="6.60287">
        <ele>121.74</ele>
        <time>2015-09-27T12:01:29Z</time>
      </trkpt>
      <trkpt lat="43.44268" lon="6.60283">
        <ele>121.26</ele>
        <time>2015-09-27T12:01:35Z</time>
      </trkpt>
      <trkpt lat="43.44262" lon="6.60279">
        <ele>120.3</ele>
        <time>2015-09-27T12:01:42Z</time>
      </trkpt>
      <trkpt lat="43.44262" lon="6.60266">
        <ele>120.3</ele>
        <time>2015-09-27T12:01:56Z</time>
      </trkpt>
      <trkpt lat="43.44258" lon="6.60262">
        <ele>120.3</ele>
        <time>2015-09-27T12:02:04Z</time>
      </trkpt>
      <trkpt lat="43.44255" lon="6.60249">
        <ele>119.34</ele>
        <time>2015-09-27T12:02:18Z</time>
      </trkpt>
      <trkpt lat="43.4425" lon="6.60242">
        <ele>118.38</ele>
        <time>2015-09-27T12:02:31Z</time>
      </trkpt>
      <trkpt lat="43.44249" lon="6.60243">
        <ele>117.9</ele>
        <time>2015-09-27T12:02:48Z</time>
      </trkpt>
      <trkpt lat="43.44248" lon="6.60244">
        <ele>117.9</ele>
        <time>2015-09-27T12:03:19Z</time>
      </trkpt>
      <trkpt lat="43.44248" lon="6.60244">
        <ele>117.9</ele>
        <time>2015-09-27T12:03:43Z</time>
      </trkpt>
      <trkpt lat="43.44249" lon="6.60244">
        <ele>117.9</ele>
        <time>2015-09-27T12:04:12Z</time>
      </trkpt>
      <trkpt lat="43.44248" lon="6.60244">
        <ele>117.9</ele>
        <time>2015-09-27T12:04:34Z</time>
      </trkpt>
      <trkpt lat="43.44247" lon="6.60249">
        <ele>116.94</ele>
        <time>2015-09-27T12:04:52Z</time>
      </trkpt>
      <trkpt lat="43.44245" lon="6.60252">
        <ele>116.46</ele>
        <time>2015-09-27T12:05:08Z</time>
      </trkpt>
      <trkpt lat="43.44241" lon="6.60264">
        <ele>114.53</ele>
        <time>2015-09-27T12:05:23Z</time>
      </trkpt>
      <trkpt lat="43.44237" lon="6.60277">
        <ele>114.05</ele>
        <time>2015-09-27T12:05:37Z</time>
      </trkpt>
      <trkpt lat="43.44236" lon="6.60287">
        <ele>113.09</ele>
        <time>2015-09-27T12:05:50Z</time>
      </trkpt>
      <trkpt lat="43.44235" lon="6.60293">
        <ele>113.09</ele>
        <time>2015-09-27T12:06:05Z</time>
      </trkpt>
      <trkpt lat="43.44233" lon="6.60299">
        <ele>112.13</ele>
        <time>2015-09-27T12:06:20Z</time>
      </trkpt>
      <trkpt lat="43.44233" lon="6.60301">
        <ele>112.13</ele>
        <time>2015-09-27T12:06:39Z</time>
      </trkpt>
      <trkpt lat="43.44236" lon="6.60315">
        <ele>111.65</ele>
        <time>2015-09-27T12:06:52Z</time>
      </trkpt>
      <trkpt lat="43.44235" lon="6.60323">
        <ele>111.17</ele>
        <time>2015-09-27T12:06:58Z</time>
      </trkpt>
      <trkpt lat="43.44229" lon="6.60347">
        <ele>110.21</ele>
        <time>2015-09-27T12:07:15Z</time>
      </trkpt>
      <trkpt lat="43.44227" lon="6.6035">
        <ele>109.73</ele>
        <time>2015-09-27T12:07:19Z</time>
      </trkpt>
      <trkpt lat="43.44223" lon="6.60355">
        <ele>109.25</ele>
        <time>2015-09-27T12:07:25Z</time>
      </trkpt>
      <trkpt lat="43.44223" lon="6.6036">
        <ele>109.73</ele>
        <time>2015-09-27T12:07:36Z</time>
      </trkpt>
      <trkpt lat="43.44222" lon="6.60362">
        <ele>109.25</ele>
        <time>2015-09-27T12:07:39Z</time>
      </trkpt>
      <trkpt lat="43.4421" lon="6.60378">
        <ele>108.77</ele>
        <time>2015-09-27T12:07:52Z</time>
      </trkpt>
      <trkpt lat="43.44206" lon="6.60392">
        <ele>108.29</ele>
        <time>2015-09-27T12:07:58Z</time>
      </trkpt>
      <trkpt lat="43.44203" lon="6.60411">
        <ele>106.84</ele>
        <time>2015-09-27T12:08:10Z</time>
      </trkpt>
      <trkpt lat="43.44205" lon="6.60424">
        <ele>105.4</ele>
        <time>2015-09-27T12:08:19Z</time>
      </trkpt>
      <trkpt lat="43.44206" lon="6.6044">
        <ele>103.96</ele>
        <time>2015-09-27T12:08:31Z</time>
      </trkpt>
      <trkpt lat="43.44207" lon="6.6046">
        <ele>103.48</ele>
        <time>2015-09-27T12:08:43Z</time>
      </trkpt>
      <trkpt lat="43.44208" lon="6.60476">
        <ele>102.04</ele>
        <time>2015-09-27T12:08:54Z</time>
      </trkpt>
      <trkpt lat="43.44208" lon="6.6048">
        <ele>101.56</ele>
        <time>2015-09-27T12:08:57Z</time>
      </trkpt>
      <trkpt lat="43.4421" lon="6.60497">
        <ele>100.11</ele>
        <time>2015-09-27T12:09:10Z</time>
      </trkpt>
      <trkpt lat="43.44207" lon="6.60517">
        <ele>99.63</ele>
        <time>2015-09-27T12:09:25Z</time>
      </trkpt>
      <trkpt lat="43.44207" lon="6.60539">
        <ele>98.19</ele>
        <time>2015-09-27T12:09:39Z</time>
      </trkpt>
      <trkpt lat="43.44206" lon="6.60542">
        <ele>97.71</ele>
        <time>2015-09-27T12:09:42Z</time>
      </trkpt>
      <trkpt lat="43.44205" lon="6.60545">
        <ele>97.23</ele>
        <time>2015-09-27T12:09:44Z</time>
      </trkpt>
      <trkpt lat="43.44203" lon="6.60556">
        <ele>97.71</ele>
        <time>2015-09-27T12:09:52Z</time>
      </trkpt>
      <trkpt lat="43.44202" lon="6.60561">
        <ele>97.23</ele>
        <time>2015-09-27T12:09:55Z</time>
      </trkpt>
      <trkpt lat="43.44202" lon="6.60573">
        <ele>96.75</ele>
        <time>2015-09-27T12:10:02Z</time>
      </trkpt>
      <trkpt lat="43.44198" lon="6.60582">
        <ele>96.27</ele>
        <time>2015-09-27T12:10:12Z</time>
      </trkpt>
      <trkpt lat="43.44191" lon="6.606">
        <ele>96.27</ele>
        <time>2015-09-27T12:10:24Z</time>
      </trkpt>
      <trkpt lat="43.44187" lon="6.60611">
        <ele>95.31</ele>
        <time>2015-09-27T12:10:38Z</time>
      </trkpt>
      <trkpt lat="43.44182" lon="6.6063">
        <ele>94.83</ele>
        <time>2015-09-27T12:10:52Z</time>
      </trkpt>
      <trkpt lat="43.44176" lon="6.60661">
        <ele>94.83</ele>
        <time>2015-09-27T12:11:10Z</time>
      </trkpt>
      <trkpt lat="43.44174" lon="6.60678">
        <ele>94.83</ele>
        <time>2015-09-27T12:11:20Z</time>
      </trkpt>
      <trkpt lat="43.44173" lon="6.60685">
        <ele>94.83</ele>
        <time>2015-09-27T12:11:24Z</time>
      </trkpt>
      <trkpt lat="43.44171" lon="6.6071">
        <ele>94.83</ele>
        <time>2015-09-27T12:11:38Z</time>
      </trkpt>
      <trkpt lat="43.44168" lon="6.60734">
        <ele>94.83</ele>
        <time>2015-09-27T12:11:52Z</time>
      </trkpt>
      <trkpt lat="43.44165" lon="6.60753">
        <ele>94.83</ele>
        <time>2015-09-27T12:12:05Z</time>
      </trkpt>
      <trkpt lat="43.44162" lon="6.60775">
        <ele>95.31</ele>
        <time>2015-09-27T12:12:18Z</time>
      </trkpt>
      <trkpt lat="43.44162" lon="6.60786">
        <ele>95.31</ele>
        <time>2015-09-27T12:12:26Z</time>
      </trkpt>
      <trkpt lat="43.44164" lon="6.60796">
        <ele>95.31</ele>
        <time>2015-09-27T12:12:32Z</time>
      </trkpt>
      <trkpt lat="43.44165" lon="6.60801">
        <ele>95.31</ele>
        <time>2015-09-27T12:12:35Z</time>
      </trkpt>
      <trkpt lat="43.44173" lon="6.60818">
        <ele>95.79</ele>
        <time>2015-09-27T12:12:49Z</time>
      </trkpt>
      <trkpt lat="43.44179" lon="6.60825">
        <ele>95.79</ele>
        <time>2015-09-27T12:12:54Z</time>
      </trkpt>
      <trkpt lat="43.44194" lon="6.60842">
        <ele>96.27</ele>
        <time>2015-09-27T12:13:10Z</time>
      </trkpt>
      <trkpt lat="43.44204" lon="6.60853">
        <ele>95.31</ele>
        <time>2015-09-27T12:13:20Z</time>
      </trkpt>
      <trkpt lat="43.44209" lon="6.60858">
        <ele>95.31</ele>
        <time>2015-09-27T12:13:35Z</time>
      </trkpt>
      <trkpt lat="43.4421" lon="6.60857">
        <ele>95.31</ele>
        <time>2015-09-27T12:13:56Z</time>
      </trkpt>
      <trkpt lat="43.4421" lon="6.60858">
        <ele>95.31</ele>
        <time>2015-09-27T12:14:15Z</time>
      </trkpt>
      <trkpt lat="43.44212" lon="6.60859">
        <ele>95.31</ele>
        <time>2015-09-27T12:14:33Z</time>
      </trkpt>
      <trkpt lat="43.44212" lon="6.6086">
        <ele>95.79</ele>
        <time>2015-09-27T12:14:55Z</time>
      </trkpt>
      <trkpt lat="43.44213" lon="6.60861">
        <ele>96.27</ele>
        <time>2015-09-27T12:15:13Z</time>
      </trkpt>
      <trkpt lat="43.44213" lon="6.60859">
        <ele>94.83</ele>
        <time>2015-09-27T12:15:28Z</time>
      </trkpt>
      <trkpt lat="43.44213" lon="6.60859">
        <ele>94.83</ele>
        <time>2015-09-27T12:15:48Z</time>
      </trkpt>
      <trkpt lat="43.44213" lon="6.6086">
        <ele>94.83</ele>
        <time>2015-09-27T12:16:10Z</time>
      </trkpt>
      <trkpt lat="43.44212" lon="6.6086">
        <ele>94.83</ele>
        <time>2015-09-27T12:16:34Z</time>
      </trkpt>
      <trkpt lat="43.44214" lon="6.60861">
        <ele>94.35</ele>
        <time>2015-09-27T12:16:55Z</time>
      </trkpt>
      <trkpt lat="43.44218" lon="6.60862">
        <ele>94.35</ele>
        <time>2015-09-27T12:17:01Z</time>
      </trkpt>
      <trkpt lat="43.44227" lon="6.60868">
        <ele>94.83</ele>
        <time>2015-09-27T12:17:12Z</time>
      </trkpt>
      <trkpt lat="43.44228" lon="6.60872">
        <ele>95.31</ele>
        <time>2015-09-27T12:17:17Z</time>
      </trkpt>
      <trkpt lat="43.44237" lon="6.60888">
        <ele>95.31</ele>
        <time>2015-09-27T12:17:31Z</time>
      </trkpt>
      <trkpt lat="43.44244" lon="6.60902">
        <ele>94.83</ele>
        <time>2015-09-27T12:17:45Z</time>
      </trkpt>
      <trkpt lat="43.44249" lon="6.60917">
        <ele>96.75</ele>
        <time>2015-09-27T12:17:59Z</time>
      </trkpt>
      <trkpt lat="43.44255" lon="6.60934">
        <ele>97.71</ele>
        <time>2015-09-27T12:18:12Z</time>
      </trkpt>
      <trkpt lat="43.44256" lon="6.60939">
        <ele>93.87</ele>
        <time>2015-09-27T12:18:15Z</time>
      </trkpt>
      <trkpt lat="43.44256" lon="6.6094">
        <ele>100.11</ele>
        <time>2015-09-27T12:18:16Z</time>
      </trkpt>
      <trkpt lat="43.44258" lon="6.60947">
        <ele>96.75</ele>
        <time>2015-09-27T12:18:20Z</time>
      </trkpt>
      <trkpt lat="43.44263" lon="6.6097">
        <ele>96.75</ele>
        <time>2015-09-27T12:18:37Z</time>
      </trkpt>
      <trkpt lat="43.44265" lon="6.6099">
        <ele>95.31</ele>
        <time>2015-09-27T12:18:51Z</time>
      </trkpt>
      <trkpt lat="43.44271" lon="6.61005">
        <ele>94.35</ele>
        <time>2015-09-27T12:19:06Z</time>
      </trkpt>
      <trkpt lat="43.44277" lon="6.61022">
        <ele>92.9</ele>
        <time>2015-09-27T12:19:20Z</time>
      </trkpt>
      <trkpt lat="43.44283" lon="6.61036">
        <ele>91.94</ele>
        <time>2015-09-27T12:19:32Z</time>
      </trkpt>
      <trkpt lat="43.44285" lon="6.61044">
        <ele>91.46</ele>
        <time>2015-09-27T12:19:38Z</time>
      </trkpt>
      <trkpt lat="43.44291" lon="6.61057">
        <ele>90.98</ele>
        <time>2015-09-27T12:19:47Z</time>
      </trkpt>
      <trkpt lat="43.44299" lon="6.61073">
        <ele>90.5</ele>
        <time>2015-09-27T12:20:01Z</time>
      </trkpt>
      <trkpt lat="43.44307" lon="6.61084">
        <ele>89.06</ele>
        <time>2015-09-27T12:20:12Z</time>
      </trkpt>
      <trkpt lat="43.44308" lon="6.61087">
        <ele>88.58</ele>
        <time>2015-09-27T12:20:15Z</time>
      </trkpt>
      <trkpt lat="43.44312" lon="6.61093">
        <ele>88.58</ele>
        <time>2015-09-27T12:20:20Z</time>
      </trkpt>
      <trkpt lat="43.44324" lon="6.61108">
        <ele>88.1</ele>
        <time>2015-09-27T12:20:34Z</time>
      </trkpt>
      <trkpt lat="43.44328" lon="6.61117">
        <ele>88.1</ele>
        <time>2015-09-27T12:20:40Z</time>
      </trkpt>
      <trkpt lat="43.44328" lon="6.61138">
        <ele>83.77</ele>
        <time>2015-09-27T12:20:56Z</time>
      </trkpt>
      <trkpt lat="43.44326" lon="6.61148">
        <ele>86.18</ele>
        <time>2015-09-27T12:21:04Z</time>
      </trkpt>
      <trkpt lat="43.44321" lon="6.61166">
        <ele>84.73</ele>
        <time>2015-09-27T12:21:19Z</time>
      </trkpt>
      <trkpt lat="43.4432" lon="6.6117">
        <ele>84.73</ele>
        <time>2015-09-27T12:21:22Z</time>
      </trkpt>
      <trkpt lat="43.44318" lon="6.61182">
        <ele>83.77</ele>
        <time>2015-09-27T12:21:34Z</time>
      </trkpt>
      <trkpt lat="43.44318" lon="6.61192">
        <ele>79.93</ele>
        <time>2015-09-27T12:21:42Z</time>
      </trkpt>
      <trkpt lat="43.44318" lon="6.61193">
        <ele>85.69</ele>
        <time>2015-09-27T12:21:43Z</time>
      </trkpt>
      <trkpt lat="43.44321" lon="6.61203">
        <ele>82.33</ele>
        <time>2015-09-27T12:21:50Z</time>
      </trkpt>
      <trkpt lat="43.44329" lon="6.6122">
        <ele>82.33</ele>
        <time>2015-09-27T12:22:05Z</time>
      </trkpt>
      <trkpt lat="43.4433" lon="6.61222">
        <ele>81.85</ele>
        <time>2015-09-27T12:22:08Z</time>
      </trkpt>
      <trkpt lat="43.44332" lon="6.61224">
        <ele>80.89</ele>
        <time>2015-09-27T12:22:10Z</time>
      </trkpt>
      <trkpt lat="43.44336" lon="6.61229">
        <ele>80.89</ele>
        <time>2015-09-27T12:22:15Z</time>
      </trkpt>
      <trkpt lat="43.44346" lon="6.61233">
        <ele>78.97</ele>
        <time>2015-09-27T12:22:29Z</time>
      </trkpt>
      <trkpt lat="43.44354" lon="6.61235">
        <ele>78.48</ele>
        <time>2015-09-27T12:22:38Z</time>
      </trkpt>
      <trkpt lat="43.44367" lon="6.61236">
        <ele>77.52</ele>
        <time>2015-09-27T12:22:52Z</time>
      </trkpt>
      <trkpt lat="43.44372" lon="6.61237">
        <ele>77.04</ele>
        <time>2015-09-27T12:22:57Z</time>
      </trkpt>
      <trkpt lat="43.44382" lon="6.61242">
        <ele>77.04</ele>
        <time>2015-09-27T12:23:08Z</time>
      </trkpt>
      <trkpt lat="43.44391" lon="6.61249">
        <ele>76.56</ele>
        <time>2015-09-27T12:23:18Z</time>
      </trkpt>
      <trkpt lat="43.44395" lon="6.61256">
        <ele>75.6</ele>
        <time>2015-09-27T12:23:25Z</time>
      </trkpt>
      <trkpt lat="43.44397" lon="6.61258">
        <ele>75.12</ele>
        <time>2015-09-27T12:23:27Z</time>
      </trkpt>
      <trkpt lat="43.44406" lon="6.61265">
        <ele>74.64</ele>
        <time>2015-09-27T12:23:41Z</time>
      </trkpt>
      <trkpt lat="43.44416" lon="6.61273">
        <ele>73.68</ele>
        <time>2015-09-27T12:23:52Z</time>
      </trkpt>
      <trkpt lat="43.44417" lon="6.61282">
        <ele>72.24</ele>
        <time>2015-09-27T12:24:00Z</time>
      </trkpt>
      <trkpt lat="43.44415" lon="6.61284">
        <ele>72.24</ele>
        <time>2015-09-27T12:24:04Z</time>
      </trkpt>
      <trkpt lat="43.44406" lon="6.61294">
        <ele>69.83</ele>
        <time>2015-09-27T12:24:17Z</time>
      </trkpt>
      <trkpt lat="43.444" lon="6.61303">
        <ele>68.87</ele>
        <time>2015-09-27T12:24:28Z</time>
      </trkpt>
      <trkpt lat="43.444" lon="6.61304">
        <ele>68.87</ele>
        <time>2015-09-27T12:24:29Z</time>
      </trkpt>
      <trkpt lat="43.44402" lon="6.61324">
        <ele>67.91</ele>
        <time>2015-09-27T12:24:43Z</time>
      </trkpt>
      <trkpt lat="43.44402" lon="6.61332">
        <ele>67.43</ele>
        <time>2015-09-27T12:24:51Z</time>
      </trkpt>
      <trkpt lat="43.444" lon="6.61342">
        <ele>66.47</ele>
        <time>2015-09-27T12:25:00Z</time>
      </trkpt>
      <trkpt lat="43.44395" lon="6.6135">
        <ele>65.99</ele>
        <time>2015-09-27T12:25:07Z</time>
      </trkpt>
      <trkpt lat="43.4439" lon="6.61354">
        <ele>65.51</ele>
        <time>2015-09-27T12:25:13Z</time>
      </trkpt>
      <trkpt lat="43.44386" lon="6.61354">
        <ele>65.03</ele>
        <time>2015-09-27T12:25:18Z</time>
      </trkpt>
      <trkpt lat="43.44378" lon="6.61345">
        <ele>64.07</ele>
        <time>2015-09-27T12:25:33Z</time>
      </trkpt>
      <trkpt lat="43.44377" lon="6.61342">
        <ele>64.07</ele>
        <time>2015-09-27T12:25:35Z</time>
      </trkpt>
      <trkpt lat="43.44369" lon="6.61332">
        <ele>62.14</ele>
        <time>2015-09-27T12:25:48Z</time>
      </trkpt>
      <trkpt lat="43.44368" lon="6.61331">
        <ele>62.14</ele>
        <time>2015-09-27T12:25:50Z</time>
      </trkpt>
      <trkpt lat="43.44364" lon="6.61331">
        <ele>61.66</ele>
        <time>2015-09-27T12:25:55Z</time>
      </trkpt>
      <trkpt lat="43.4436" lon="6.61334">
        <ele>60.7</ele>
        <time>2015-09-27T12:25:59Z</time>
      </trkpt>
      <trkpt lat="43.44351" lon="6.61348">
        <ele>60.22</ele>
        <time>2015-09-27T12:26:14Z</time>
      </trkpt>
      <trkpt lat="43.44348" lon="6.61364">
        <ele>58.78</ele>
        <time>2015-09-27T12:26:27Z</time>
      </trkpt>
      <trkpt lat="43.44349" lon="6.61365">
        <ele>58.78</ele>
        <time>2015-09-27T12:26:28Z</time>
      </trkpt>
      <trkpt lat="43.44355" lon="6.61377">
        <ele>57.34</ele>
        <time>2015-09-27T12:26:40Z</time>
      </trkpt>
      <trkpt lat="43.44357" lon="6.61378">
        <ele>57.34</ele>
        <time>2015-09-27T12:26:42Z</time>
      </trkpt>
      <trkpt lat="43.4436" lon="6.61381">
        <ele>56.86</ele>
        <time>2015-09-27T12:26:45Z</time>
      </trkpt>
      <trkpt lat="43.4437" lon="6.61394">
        <ele>56.37</ele>
        <time>2015-09-27T12:27:00Z</time>
      </trkpt>
      <trkpt lat="43.44372" lon="6.61396">
        <ele>55.89</ele>
        <time>2015-09-27T12:27:03Z</time>
      </trkpt>
      <trkpt lat="43.44375" lon="6.61398">
        <ele>55.41</ele>
        <time>2015-09-27T12:27:07Z</time>
      </trkpt>
      <trkpt lat="43.44378" lon="6.61399">
        <ele>55.41</ele>
        <time>2015-09-27T12:27:10Z</time>
      </trkpt>
      <trkpt lat="43.44381" lon="6.61401">
        <ele>55.41</ele>
        <time>2015-09-27T12:27:14Z</time>
      </trkpt>
      <trkpt lat="43.44393" lon="6.61404">
        <ele>54.93</ele>
        <time>2015-09-27T12:27:25Z</time>
      </trkpt>
      <trkpt lat="43.44395" lon="6.61405">
        <ele>54.45</ele>
        <time>2015-09-27T12:27:27Z</time>
      </trkpt>
      <trkpt lat="43.44406" lon="6.61409">
        <ele>53.97</ele>
        <time>2015-09-27T12:27:40Z</time>
      </trkpt>
      <trkpt lat="43.44416" lon="6.61414">
        <ele>53.49</ele>
        <time>2015-09-27T12:27:51Z</time>
      </trkpt>
      <trkpt lat="43.44423" lon="6.61421">
        <ele>53.49</ele>
        <time>2015-09-27T12:28:02Z</time>
      </trkpt>
      <trkpt lat="43.4443" lon="6.61426">
        <ele>52.53</ele>
        <time>2015-09-27T12:28:14Z</time>
      </trkpt>
      <trkpt lat="43.44437" lon="6.61437">
        <ele>50.61</ele>
        <time>2015-09-27T12:28:28Z</time>
      </trkpt>
      <trkpt lat="43.44438" lon="6.61446">
        <ele>49.16</ele>
        <time>2015-09-27T12:28:40Z</time>
      </trkpt>
      <trkpt lat="43.44437" lon="6.61448">
        <ele>49.16</ele>
        <time>2015-09-27T12:28:42Z</time>
      </trkpt>
      <trkpt lat="43.44427" lon="6.61464">
        <ele>47.72</ele>
        <time>2015-09-27T12:28:58Z</time>
      </trkpt>
      <trkpt lat="43.4442" lon="6.61474">
        <ele>46.76</ele>
        <time>2015-09-27T12:29:11Z</time>
      </trkpt>
      <trkpt lat="43.44416" lon="6.61479">
        <ele>46.28</ele>
        <time>2015-09-27T12:29:17Z</time>
      </trkpt>
      <trkpt lat="43.44415" lon="6.61483">
        <ele>45.8</ele>
        <time>2015-09-27T12:29:20Z</time>
      </trkpt>
      <trkpt lat="43.44404" lon="6.61493">
        <ele>44.84</ele>
        <time>2015-09-27T12:29:34Z</time>
      </trkpt>
      <trkpt lat="43.44401" lon="6.61496">
        <ele>43.88</ele>
        <time>2015-09-27T12:29:38Z</time>
      </trkpt>
      <trkpt lat="43.44399" lon="6.61498">
        <ele>43.4</ele>
        <time>2015-09-27T12:29:41Z</time>
      </trkpt>
      <trkpt lat="43.44389" lon="6.61512">
        <ele>41.47</ele>
        <time>2015-09-27T12:29:55Z</time>
      </trkpt>
      <trkpt lat="43.44384" lon="6.61519">
        <ele>40.99</ele>
        <time>2015-09-27T12:30:02Z</time>
      </trkpt>
      <trkpt lat="43.44383" lon="6.6153">
        <ele>39.55</ele>
        <time>2015-09-27T12:30:09Z</time>
      </trkpt>
      <trkpt lat="43.44381" lon="6.61536">
        <ele>39.55</ele>
        <time>2015-09-27T12:30:13Z</time>
      </trkpt>
      <trkpt lat="43.44379" lon="6.61557">
        <ele>37.63</ele>
        <time>2015-09-27T12:30:29Z</time>
      </trkpt>
      <trkpt lat="43.44378" lon="6.61572">
        <ele>36.19</ele>
        <time>2015-09-27T12:30:41Z</time>
      </trkpt>
      <trkpt lat="43.44378" lon="6.61573">
        <ele>36.19</ele>
        <time>2015-09-27T12:30:42Z</time>
      </trkpt>
      <trkpt lat="43.44377" lon="6.6158">
        <ele>35.23</ele>
        <time>2015-09-27T12:30:47Z</time>
      </trkpt>
      <trkpt lat="43.44376" lon="6.61591">
        <ele>33.78</ele>
        <time>2015-09-27T12:30:57Z</time>
      </trkpt>
      <trkpt lat="43.44369" lon="6.61604">
        <ele>32.34</ele>
        <time>2015-09-27T12:31:06Z</time>
      </trkpt>
      <trkpt lat="43.44355" lon="6.61615">
        <ele>29.94</ele>
        <time>2015-09-27T12:31:19Z</time>
      </trkpt>
      <trkpt lat="43.44353" lon="6.61617">
        <ele>29.46</ele>
        <time>2015-09-27T12:31:21Z</time>
      </trkpt>
      <trkpt lat="43.4435" lon="6.61621">
        <ele>28.5</ele>
        <time>2015-09-27T12:31:25Z</time>
      </trkpt>
      <trkpt lat="43.44346" lon="6.61626">
        <ele>28.5</ele>
        <time>2015-09-27T12:31:30Z</time>
      </trkpt>
      <trkpt lat="43.44342" lon="6.61634">
        <ele>28.02</ele>
        <time>2015-09-27T12:31:34Z</time>
      </trkpt>
      <trkpt lat="43.44347" lon="6.61647">
        <ele>27.05</ele>
        <time>2015-09-27T12:31:45Z</time>
      </trkpt>
      <trkpt lat="43.44349" lon="6.61648">
        <ele>26.09</ele>
        <time>2015-09-27T12:31:50Z</time>
      </trkpt>
      <trkpt lat="43.44348" lon="6.61655">
        <ele>24.65</ele>
        <time>2015-09-27T12:31:57Z</time>
      </trkpt>
      <trkpt lat="43.44347" lon="6.6166">
        <ele>24.17</ele>
        <time>2015-09-27T12:32:01Z</time>
      </trkpt>
      <trkpt lat="43.44346" lon="6.61673">
        <ele>22.25</ele>
        <time>2015-09-27T12:32:11Z</time>
      </trkpt>
      <trkpt lat="43.44347" lon="6.61684">
        <ele>20.81</ele>
        <time>2015-09-27T12:32:18Z</time>
      </trkpt>
      <trkpt lat="43.4435" lon="6.6169">
        <ele>20.32</ele>
        <time>2015-09-27T12:32:22Z</time>
      </trkpt>
      <trkpt lat="43.44349" lon="6.61695">
        <ele>20.32</ele>
        <time>2015-09-27T12:32:25Z</time>
      </trkpt>
      <trkpt lat="43.44353" lon="6.61715">
        <ele>19.36</ele>
        <time>2015-09-27T12:32:42Z</time>
      </trkpt>
      <trkpt lat="43.44353" lon="6.61715">
        <ele>19.84</ele>
        <time>2015-09-27T12:32:45Z</time>
      </trkpt>
      <trkpt lat="43.44357" lon="6.61737">
        <ele>20.32</ele>
        <time>2015-09-27T12:33:00Z</time>
      </trkpt>
      <trkpt lat="43.44361" lon="6.61757">
        <ele>20.32</ele>
        <time>2015-09-27T12:33:14Z</time>
      </trkpt>
      <trkpt lat="43.44362" lon="6.61765">
        <ele>20.32</ele>
        <time>2015-09-27T12:33:21Z</time>
      </trkpt>
      <trkpt lat="43.44366" lon="6.61777">
        <ele>19.84</ele>
        <time>2015-09-27T12:33:27Z</time>
      </trkpt>
      <trkpt lat="43.44368" lon="6.61797">
        <ele>20.32</ele>
        <time>2015-09-27T12:33:40Z</time>
      </trkpt>
      <trkpt lat="43.44368" lon="6.61803">
        <ele>20.81</ele>
        <time>2015-09-27T12:33:44Z</time>
      </trkpt>
      <trkpt lat="43.44367" lon="6.61808">
        <ele>20.32</ele>
        <time>2015-09-27T12:33:47Z</time>
      </trkpt>
      <trkpt lat="43.44366" lon="6.61813">
        <ele>20.81</ele>
        <time>2015-09-27T12:33:50Z</time>
      </trkpt>
      <trkpt lat="43.44367" lon="6.61833">
        <ele>21.29</ele>
        <time>2015-09-27T12:34:02Z</time>
      </trkpt>
      <trkpt lat="43.44368" lon="6.61856">
        <ele>19.84</ele>
        <time>2015-09-27T12:34:16Z</time>
      </trkpt>
      <trkpt lat="43.44367" lon="6.61874">
        <ele>19.36</ele>
        <time>2015-09-27T12:34:28Z</time>
      </trkpt>
      <trkpt lat="43.44366" lon="6.61888">
        <ele>18.88</ele>
        <time>2015-09-27T12:34:39Z</time>
      </trkpt>
      <trkpt lat="43.44365" lon="6.61892">
        <ele>18.88</ele>
        <time>2015-09-27T12:34:42Z</time>
      </trkpt>
      <trkpt lat="43.44363" lon="6.61896">
        <ele>19.36</ele>
        <time>2015-09-27T12:34:47Z</time>
      </trkpt>
      <trkpt lat="43.44364" lon="6.61911">
        <ele>18.88</ele>
        <time>2015-09-27T12:34:58Z</time>
      </trkpt>
      <trkpt lat="43.44365" lon="6.61916">
        <ele>19.36</ele>
        <time>2015-09-27T12:35:13Z</time>
      </trkpt>
      <trkpt lat="43.44365" lon="6.61917">
        <ele>19.36</ele>
        <time>2015-09-27T12:35:25Z</time>
      </trkpt>
      <trkpt lat="43.44367" lon="6.61917">
        <ele>18.88</ele>
        <time>2015-09-27T12:35:41Z</time>
      </trkpt>
      <trkpt lat="43.44367" lon="6.61918">
        <ele>18.88</ele>
        <time>2015-09-27T12:36:12Z</time>
      </trkpt>
      <trkpt lat="43.44368" lon="6.61918">
        <ele>18.88</ele>
        <time>2015-09-27T12:36:41Z</time>
      </trkpt>
      <trkpt lat="43.44369" lon="6.61919">
        <ele>18.88</ele>
        <time>2015-09-27T12:37:08Z</time>
      </trkpt>
      <trkpt lat="43.4437" lon="6.61919">
        <ele>18.88</ele>
        <time>2015-09-27T12:37:38Z</time>
      </trkpt>
      <trkpt lat="43.4437" lon="6.61919">
        <ele>18.88</ele>
        <time>2015-09-27T12:37:54Z</time>
      </trkpt>
      <trkpt lat="43.4437" lon="6.61919">
        <ele>18.88</ele>
        <time>2015-09-27T12:38:29Z</time>
      </trkpt>
      <trkpt lat="43.4437" lon="6.61919">
        <ele>18.88</ele>
        <time>2015-09-27T12:39:01Z</time>
      </trkpt>
      <trkpt lat="43.4437" lon="6.61919">
        <ele>18.88</ele>
        <time>2015-09-27T12:39:31Z</time>
      </trkpt>
      <trkpt lat="43.4437" lon="6.61919">
        <ele>18.88</ele>
        <time>2015-09-27T12:39:59Z</time>
      </trkpt>
      <trkpt lat="43.4437" lon="6.61919">
        <ele>18.4</ele>
        <time>2015-09-27T12:40:18Z</time>
      </trkpt>
      <trkpt lat="43.44371" lon="6.61918">
        <ele>18.88</ele>
        <time>2015-09-27T12:40:45Z</time>
      </trkpt>
      <trkpt lat="43.44369" lon="6.61926">
        <ele>18.88</ele>
        <time>2015-09-27T12:40:56Z</time>
      </trkpt>
      <trkpt lat="43.44369" lon="6.61929">
        <ele>18.88</ele>
        <time>2015-09-27T12:40:58Z</time>
      </trkpt>
      <trkpt lat="43.44376" lon="6.61942">
        <ele>18.88</ele>
        <time>2015-09-27T12:41:10Z</time>
      </trkpt>
      <trkpt lat="43.44381" lon="6.61956">
        <ele>18.4</ele>
        <time>2015-09-27T12:41:21Z</time>
      </trkpt>
      <trkpt lat="43.44385" lon="6.61971">
        <ele>18.4</ele>
        <time>2015-09-27T12:41:35Z</time>
      </trkpt>
      <trkpt lat="43.44391" lon="6.61988">
        <ele>17.92</ele>
        <time>2015-09-27T12:41:49Z</time>
      </trkpt>
      <trkpt lat="43.44396" lon="6.62005">
        <ele>17.44</ele>
        <time>2015-09-27T12:42:01Z</time>
      </trkpt>
      <trkpt lat="43.44396" lon="6.62006">
        <ele>17.44</ele>
        <time>2015-09-27T12:42:02Z</time>
      </trkpt>
      <trkpt lat="43.44398" lon="6.62015">
        <ele>16.96</ele>
        <time>2015-09-27T12:42:08Z</time>
      </trkpt>
      <trkpt lat="43.44401" lon="6.6202">
        <ele>17.44</ele>
        <time>2015-09-27T12:42:12Z</time>
      </trkpt>
      <trkpt lat="43.44405" lon="6.6203">
        <ele>18.88</ele>
        <time>2015-09-27T12:42:27Z</time>
      </trkpt>
      <trkpt lat="43.44404" lon="6.62031">
        <ele>18.88</ele>
        <time>2015-09-27T12:42:29Z</time>
      </trkpt>
      <trkpt lat="43.44392" lon="6.62025">
        <ele>18.4</ele>
        <time>2015-09-27T12:42:42Z</time>
      </trkpt>
      <trkpt lat="43.44392" lon="6.62025">
        <ele>18.4</ele>
        <time>2015-09-27T12:42:43Z</time>
      </trkpt>
      <trkpt lat="43.4439" lon="6.62025">
        <ele>18.4</ele>
        <time>2015-09-27T12:42:45Z</time>
      </trkpt>
      <trkpt lat="43.44372" lon="6.62029">
        <ele>18.4</ele>
        <time>2015-09-27T12:43:01Z</time>
      </trkpt>
      <trkpt lat="43.44364" lon="6.62029">
        <ele>18.4</ele>
        <time>2015-09-27T12:43:07Z</time>
      </trkpt>
      <trkpt lat="43.44361" lon="6.6203">
        <ele>18.4</ele>
        <time>2015-09-27T12:43:10Z</time>
      </trkpt>
      <trkpt lat="43.44348" lon="6.62036">
        <ele>18.4</ele>
        <time>2015-09-27T12:43:23Z</time>
      </trkpt>
      <trkpt lat="43.44345" lon="6.62036">
        <ele>18.4</ele>
        <time>2015-09-27T12:43:25Z</time>
      </trkpt>
      <trkpt lat="43.44338" lon="6.6204">
        <ele>18.4</ele>
        <time>2015-09-27T12:43:32Z</time>
      </trkpt>
      <trkpt lat="43.44333" lon="6.62062">
        <ele>17.92</ele>
        <time>2015-09-27T12:43:46Z</time>
      </trkpt>
      <trkpt lat="43.44331" lon="6.62071">
        <ele>18.4</ele>
        <time>2015-09-27T12:43:52Z</time>
      </trkpt>
      <trkpt lat="43.44319" lon="6.62089">
        <ele>17.92</ele>
        <time>2015-09-27T12:44:10Z</time>
      </trkpt>
      <trkpt lat="43.44306" lon="6.62109">
        <ele>17.92</ele>
        <time>2015-09-27T12:44:26Z</time>
      </trkpt>
      <trkpt lat="43.44293" lon="6.62128">
        <ele>17.92</ele>
        <time>2015-09-27T12:44:42Z</time>
      </trkpt>
      <trkpt lat="43.44284" lon="6.62145">
        <ele>18.4</ele>
        <time>2015-09-27T12:44:55Z</time>
      </trkpt>
      <trkpt lat="43.44278" lon="6.62161">
        <ele>18.88</ele>
        <time>2015-09-27T12:45:07Z</time>
      </trkpt>
      <trkpt lat="43.44273" lon="6.6218">
        <ele>20.32</ele>
        <time>2015-09-27T12:45:21Z</time>
      </trkpt>
      <trkpt lat="43.44271" lon="6.62185">
        <ele>20.81</ele>
        <time>2015-09-27T12:45:26Z</time>
      </trkpt>
      <trkpt lat="43.4426" lon="6.62198">
        <ele>24.17</ele>
        <time>2015-09-27T12:45:42Z</time>
      </trkpt>
      <trkpt lat="43.44251" lon="6.6221">
        <ele>26.57</ele>
        <time>2015-09-27T12:45:56Z</time>
      </trkpt>
      <trkpt lat="43.44251" lon="6.62214">
        <ele>27.53</ele>
        <time>2015-09-27T12:45:59Z</time>
      </trkpt>
      <trkpt lat="43.44246" lon="6.62231">
        <ele>30.42</ele>
        <time>2015-09-27T12:46:13Z</time>
      </trkpt>
      <trkpt lat="43.44243" lon="6.62237">
        <ele>31.38</ele>
        <time>2015-09-27T12:46:18Z</time>
      </trkpt>
      <trkpt lat="43.44235" lon="6.62252">
        <ele>33.78</ele>
        <time>2015-09-27T12:46:32Z</time>
      </trkpt>
      <trkpt lat="43.44227" lon="6.62267">
        <ele>36.19</ele>
        <time>2015-09-27T12:46:46Z</time>
      </trkpt>
      <trkpt lat="43.44218" lon="6.62281">
        <ele>38.11</ele>
        <time>2015-09-27T12:46:59Z</time>
      </trkpt>
      <trkpt lat="43.4421" lon="6.623">
        <ele>40.99</ele>
        <time>2015-09-27T12:47:15Z</time>
      </trkpt>
      <trkpt lat="43.44202" lon="6.62316">
        <ele>41.95</ele>
        <time>2015-09-27T12:47:28Z</time>
      </trkpt>
      <trkpt lat="43.44195" lon="6.62321">
        <ele>41.95</ele>
        <time>2015-09-27T12:47:39Z</time>
      </trkpt>
      <trkpt lat="43.44194" lon="6.62326">
        <ele>41.47</ele>
        <time>2015-09-27T12:47:54Z</time>
      </trkpt>
      <trkpt lat="43.44193" lon="6.62332">
        <ele>41.95</ele>
        <time>2015-09-27T12:48:04Z</time>
      </trkpt>
      <trkpt lat="43.44193" lon="6.62334">
        <ele>42.44</ele>
        <time>2015-09-27T12:48:06Z</time>
      </trkpt>
      <trkpt lat="43.4419" lon="6.62351">
        <ele>43.4</ele>
        <time>2015-09-27T12:48:19Z</time>
      </trkpt>
      <trkpt lat="43.4419" lon="6.62354">
        <ele>43.88</ele>
        <time>2015-09-27T12:48:21Z</time>
      </trkpt>
      <trkpt lat="43.44189" lon="6.62361">
        <ele>45.32</ele>
        <time>2015-09-27T12:48:26Z</time>
      </trkpt>
      <trkpt lat="43.44192" lon="6.62374">
        <ele>44.84</ele>
        <time>2015-09-27T12:48:34Z</time>
      </trkpt>
      <trkpt lat="43.44199" lon="6.6239">
        <ele>45.8</ele>
        <time>2015-09-27T12:48:47Z</time>
      </trkpt>
      <trkpt lat="43.442" lon="6.62393">
        <ele>46.76</ele>
        <time>2015-09-27T12:48:53Z</time>
      </trkpt>
      <trkpt lat="43.44198" lon="6.62395">
        <ele>46.76</ele>
        <time>2015-09-27T12:48:56Z</time>
      </trkpt>
      <trkpt lat="43.44192" lon="6.62402">
        <ele>47.24</ele>
        <time>2015-09-27T12:49:05Z</time>
      </trkpt>
      <trkpt lat="43.44188" lon="6.62404">
        <ele>47.72</ele>
        <time>2015-09-27T12:49:10Z</time>
      </trkpt>
      <trkpt lat="43.44185" lon="6.62411">
        <ele>48.2</ele>
        <time>2015-09-27T12:49:17Z</time>
      </trkpt>
      <trkpt lat="43.44175" lon="6.62426">
        <ele>48.68</ele>
        <time>2015-09-27T12:49:30Z</time>
      </trkpt>
      <trkpt lat="43.44165" lon="6.62436">
        <ele>49.16</ele>
        <time>2015-09-27T12:49:43Z</time>
      </trkpt>
      <trkpt lat="43.44164" lon="6.62438">
        <ele>49.16</ele>
        <time>2015-09-27T12:49:45Z</time>
      </trkpt>
      <trkpt lat="43.44154" lon="6.62448">
        <ele>49.16</ele>
        <time>2015-09-27T12:49:57Z</time>
      </trkpt>
      <trkpt lat="43.44146" lon="6.62463">
        <ele>49.16</ele>
        <time>2015-09-27T12:50:09Z</time>
      </trkpt>
      <trkpt lat="43.44144" lon="6.62468">
        <ele>49.65</ele>
        <time>2015-09-27T12:50:12Z</time>
      </trkpt>
      <trkpt lat="43.44144" lon="6.62477">
        <ele>49.65</ele>
        <time>2015-09-27T12:50:17Z</time>
      </trkpt>
      <trkpt lat="43.44137" lon="6.62495">
        <ele>50.13</ele>
        <time>2015-09-27T12:50:31Z</time>
      </trkpt>
      <trkpt lat="43.44133" lon="6.62505">
        <ele>50.13</ele>
        <time>2015-09-27T12:50:40Z</time>
      </trkpt>
      <trkpt lat="43.44132" lon="6.62509">
        <ele>51.09</ele>
        <time>2015-09-27T12:50:44Z</time>
      </trkpt>
      <trkpt lat="43.44132" lon="6.62512">
        <ele>51.09</ele>
        <time>2015-09-27T12:50:46Z</time>
      </trkpt>
      <trkpt lat="43.44132" lon="6.62522">
        <ele>52.05</ele>
        <time>2015-09-27T12:50:57Z</time>
      </trkpt>
      <trkpt lat="43.44129" lon="6.62539">
        <ele>52.53</ele>
        <time>2015-09-27T12:51:09Z</time>
      </trkpt>
      <trkpt lat="43.44128" lon="6.62543">
        <ele>53.01</ele>
        <time>2015-09-27T12:51:13Z</time>
      </trkpt>
      <trkpt lat="43.44121" lon="6.6256">
        <ele>53.97</ele>
        <time>2015-09-27T12:51:29Z</time>
      </trkpt>
      <trkpt lat="43.44119" lon="6.62564">
        <ele>53.97</ele>
        <time>2015-09-27T12:51:33Z</time>
      </trkpt>
      <trkpt lat="43.44119" lon="6.62569">
        <ele>54.93</ele>
        <time>2015-09-27T12:51:36Z</time>
      </trkpt>
      <trkpt lat="43.44116" lon="6.62576">
        <ele>55.41</ele>
        <time>2015-09-27T12:51:44Z</time>
      </trkpt>
      <trkpt lat="43.4411" lon="6.62585">
        <ele>56.37</ele>
        <time>2015-09-27T12:51:55Z</time>
      </trkpt>
      <trkpt lat="43.44109" lon="6.626">
        <ele>58.78</ele>
        <time>2015-09-27T12:52:09Z</time>
      </trkpt>
      <trkpt lat="43.44111" lon="6.62617">
        <ele>59.74</ele>
        <time>2015-09-27T12:52:22Z</time>
      </trkpt>
      <trkpt lat="43.44109" lon="6.62624">
        <ele>60.22</ele>
        <time>2015-09-27T12:52:28Z</time>
      </trkpt>
      <trkpt lat="43.44106" lon="6.62627">
        <ele>60.7</ele>
        <time>2015-09-27T12:52:32Z</time>
      </trkpt>
      <trkpt lat="43.44102" lon="6.62631">
        <ele>60.7</ele>
        <time>2015-09-27T12:52:37Z</time>
      </trkpt>
      <trkpt lat="43.44101" lon="6.62634">
        <ele>61.18</ele>
        <time>2015-09-27T12:52:39Z</time>
      </trkpt>
      <trkpt lat="43.44101" lon="6.62652">
        <ele>62.14</ele>
        <time>2015-09-27T12:52:52Z</time>
      </trkpt>
      <trkpt lat="43.44102" lon="6.62657">
        <ele>61.66</ele>
        <time>2015-09-27T12:52:55Z</time>
      </trkpt>
      <trkpt lat="43.44098" lon="6.62674">
        <ele>63.1</ele>
        <time>2015-09-27T12:53:10Z</time>
      </trkpt>
      <trkpt lat="43.44093" lon="6.62694">
        <ele>64.07</ele>
        <time>2015-09-27T12:53:26Z</time>
      </trkpt>
      <trkpt lat="43.44094" lon="6.62696">
        <ele>64.07</ele>
        <time>2015-09-27T12:53:27Z</time>
      </trkpt>
      <trkpt lat="43.44092" lon="6.62708">
        <ele>64.55</ele>
        <time>2015-09-27T12:53:36Z</time>
      </trkpt>
      <trkpt lat="43.44092" lon="6.62715">
        <ele>64.55</ele>
        <time>2015-09-27T12:53:41Z</time>
      </trkpt>
      <trkpt lat="43.44092" lon="6.62733">
        <ele>65.99</ele>
        <time>2015-09-27T12:53:55Z</time>
      </trkpt>
      <trkpt lat="43.44086" lon="6.62753">
        <ele>66.47</ele>
        <time>2015-09-27T12:54:11Z</time>
      </trkpt>
      <trkpt lat="43.44083" lon="6.62763">
        <ele>67.43</ele>
        <time>2015-09-27T12:54:20Z</time>
      </trkpt>
      <trkpt lat="43.44084" lon="6.62768">
        <ele>67.91</ele>
        <time>2015-09-27T12:54:24Z</time>
      </trkpt>
      <trkpt lat="43.44086" lon="6.62782">
        <ele>68.39</ele>
        <time>2015-09-27T12:54:33Z</time>
      </trkpt>
      <trkpt lat="43.44087" lon="6.62792">
        <ele>68.87</ele>
        <time>2015-09-27T12:54:41Z</time>
      </trkpt>
      <trkpt lat="43.44085" lon="6.62796">
        <ele>69.35</ele>
        <time>2015-09-27T12:54:45Z</time>
      </trkpt>
      <trkpt lat="43.44079" lon="6.62799">
        <ele>69.35</ele>
        <time>2015-09-27T12:55:02Z</time>
      </trkpt>
      <trkpt lat="43.44079" lon="6.62799">
        <ele>69.83</ele>
        <time>2015-09-27T12:55:23Z</time>
      </trkpt>
      <trkpt lat="43.44078" lon="6.62798">
        <ele>69.83</ele>
        <time>2015-09-27T12:55:44Z</time>
      </trkpt>
      <trkpt lat="43.44078" lon="6.62799">
        <ele>69.35</ele>
        <time>2015-09-27T12:56:09Z</time>
      </trkpt>
      <trkpt lat="43.44078" lon="6.628">
        <ele>69.35</ele>
        <time>2015-09-27T12:56:28Z</time>
      </trkpt>
      <trkpt lat="43.44078" lon="6.62801">
        <ele>69.35</ele>
        <time>2015-09-27T12:56:47Z</time>
      </trkpt>
      <trkpt lat="43.44079" lon="6.62801">
        <ele>69.35</ele>
        <time>2015-09-27T12:57:16Z</time>
      </trkpt>
      <trkpt lat="43.44079" lon="6.62801">
        <ele>69.35</ele>
        <time>2015-09-27T12:57:31Z</time>
      </trkpt>
      <trkpt lat="43.44078" lon="6.62802">
        <ele>67.91</ele>
        <time>2015-09-27T12:57:52Z</time>
      </trkpt>
      <trkpt lat="43.44079" lon="6.62802">
        <ele>69.35</ele>
        <time>2015-09-27T12:57:56Z</time>
      </trkpt>
      <trkpt lat="43.44079" lon="6.62802">
        <ele>69.35</ele>
        <time>2015-09-27T12:58:15Z</time>
      </trkpt>
      <trkpt lat="43.44079" lon="6.62802">
        <ele>69.35</ele>
        <time>2015-09-27T12:58:49Z</time>
      </trkpt>
      <trkpt lat="43.44079" lon="6.62802">
        <ele>68.87</ele>
        <time>2015-09-27T12:59:11Z</time>
      </trkpt>
      <trkpt lat="43.44079" lon="6.62802">
        <ele>68.87</ele>
        <time>2015-09-27T12:59:29Z</time>
      </trkpt>
      <trkpt lat="43.4408" lon="6.62801">
        <ele>68.87</ele>
        <time>2015-09-27T12:59:59Z</time>
      </trkpt>
      <trkpt lat="43.4408" lon="6.62799">
        <ele>69.35</ele>
        <time>2015-09-27T13:00:18Z</time>
      </trkpt>
      <trkpt lat="43.4408" lon="6.62798">
        <ele>68.87</ele>
        <time>2015-09-27T13:00:44Z</time>
      </trkpt>
      <trkpt lat="43.4408" lon="6.62798">
        <ele>68.87</ele>
        <time>2015-09-27T13:01:13Z</time>
      </trkpt>
      <trkpt lat="43.44079" lon="6.62797">
        <ele>68.87</ele>
        <time>2015-09-27T13:01:32Z</time>
      </trkpt>
      <trkpt lat="43.4408" lon="6.62802">
        <ele>68.39</ele>
        <time>2015-09-27T13:01:50Z</time>
      </trkpt>
      <trkpt lat="43.44081" lon="6.62802">
        <ele>67.91</ele>
        <time>2015-09-27T13:02:11Z</time>
      </trkpt>
      <trkpt lat="43.44082" lon="6.62803">
        <ele>68.39</ele>
        <time>2015-09-27T13:02:33Z</time>
      </trkpt>
      <trkpt lat="43.44082" lon="6.62804">
        <ele>68.39</ele>
        <time>2015-09-27T13:02:40Z</time>
      </trkpt>
      <trkpt lat="43.44078" lon="6.62807">
        <ele>67.91</ele>
        <time>2015-09-27T13:02:53Z</time>
      </trkpt>
      <trkpt lat="43.44073" lon="6.6281">
        <ele>67.91</ele>
        <time>2015-09-27T13:03:08Z</time>
      </trkpt>
      <trkpt lat="43.44075" lon="6.62817">
        <ele>67.91</ele>
        <time>2015-09-27T13:03:24Z</time>
      </trkpt>
      <trkpt lat="43.44073" lon="6.62824">
        <ele>65.51</ele>
        <time>2015-09-27T13:03:35Z</time>
      </trkpt>
      <trkpt lat="43.44071" lon="6.62828">
        <ele>64.55</ele>
        <time>2015-09-27T13:03:38Z</time>
      </trkpt>
      <trkpt lat="43.44071" lon="6.62838">
        <ele>62.14</ele>
        <time>2015-09-27T13:03:45Z</time>
      </trkpt>
      <trkpt lat="43.4407" lon="6.62843">
        <ele>62.14</ele>
        <time>2015-09-27T13:03:48Z</time>
      </trkpt>
      <trkpt lat="43.44069" lon="6.62848">
        <ele>61.18</ele>
        <time>2015-09-27T13:03:52Z</time>
      </trkpt>
      <trkpt lat="43.44069" lon="6.62854">
        <ele>61.18</ele>
        <time>2015-09-27T13:03:56Z</time>
      </trkpt>
      <trkpt lat="43.44071" lon="6.62872">
        <ele>60.7</ele>
        <time>2015-09-27T13:04:06Z</time>
      </trkpt>
      <trkpt lat="43.44072" lon="6.62888">
        <ele>61.18</ele>
        <time>2015-09-27T13:04:18Z</time>
      </trkpt>
      <trkpt lat="43.44075" lon="6.62907">
        <ele>61.18</ele>
        <time>2015-09-27T13:04:31Z</time>
      </trkpt>
      <trkpt lat="43.44076" lon="6.62924">
        <ele>60.7</ele>
        <time>2015-09-27T13:04:44Z</time>
      </trkpt>
      <trkpt lat="43.44078" lon="6.62935">
        <ele>60.7</ele>
        <time>2015-09-27T13:04:51Z</time>
      </trkpt>
      <trkpt lat="43.44079" lon="6.62941">
        <ele>60.22</ele>
        <time>2015-09-27T13:04:55Z</time>
      </trkpt>
      <trkpt lat="43.44082" lon="6.62961">
        <ele>59.26</ele>
        <time>2015-09-27T13:05:08Z</time>
      </trkpt>
      <trkpt lat="43.44083" lon="6.62967">
        <ele>58.3</ele>
        <time>2015-09-27T13:05:13Z</time>
      </trkpt>
      <trkpt lat="43.44084" lon="6.6298">
        <ele>56.86</ele>
        <time>2015-09-27T13:05:25Z</time>
      </trkpt>
      <trkpt lat="43.44085" lon="6.62984">
        <ele>56.37</ele>
        <time>2015-09-27T13:05:28Z</time>
      </trkpt>
      <trkpt lat="43.44086" lon="6.62991">
        <ele>56.37</ele>
        <time>2015-09-27T13:05:33Z</time>
      </trkpt>
      <trkpt lat="43.44088" lon="6.62999">
        <ele>55.41</ele>
        <time>2015-09-27T13:05:40Z</time>
      </trkpt>
      <trkpt lat="43.44087" lon="6.63002">
        <ele>55.41</ele>
        <time>2015-09-27T13:05:43Z</time>
      </trkpt>
      <trkpt lat="43.44087" lon="6.63015">
        <ele>54.45</ele>
        <time>2015-09-27T13:05:52Z</time>
      </trkpt>
      <trkpt lat="43.44089" lon="6.63023">
        <ele>53.01</ele>
        <time>2015-09-27T13:05:57Z</time>
      </trkpt>
      <trkpt lat="43.44089" lon="6.63027">
        <ele>53.01</ele>
        <time>2015-09-27T13:05:59Z</time>
      </trkpt>
      <trkpt lat="43.44091" lon="6.63038">
        <ele>51.57</ele>
        <time>2015-09-27T13:06:08Z</time>
      </trkpt>
      <trkpt lat="43.44092" lon="6.63043">
        <ele>51.57</ele>
        <time>2015-09-27T13:06:12Z</time>
      </trkpt>
      <trkpt lat="43.44093" lon="6.63049">
        <ele>51.09</ele>
        <time>2015-09-27T13:06:16Z</time>
      </trkpt>
      <trkpt lat="43.44093" lon="6.63054">
        <ele>50.61</ele>
        <time>2015-09-27T13:06:19Z</time>
      </trkpt>
      <trkpt lat="43.44096" lon="6.63072">
        <ele>49.65</ele>
        <time>2015-09-27T13:06:31Z</time>
      </trkpt>
      <trkpt lat="43.44099" lon="6.63078">
        <ele>49.65</ele>
        <time>2015-09-27T13:06:35Z</time>
      </trkpt>
      <trkpt lat="43.44101" lon="6.63089">
        <ele>49.65</ele>
        <time>2015-09-27T13:06:42Z</time>
      </trkpt>
      <trkpt lat="43.44105" lon="6.63113">
        <ele>49.65</ele>
        <time>2015-09-27T13:06:57Z</time>
      </trkpt>
      <trkpt lat="43.44107" lon="6.63122">
        <ele>49.16</ele>
        <time>2015-09-27T13:07:04Z</time>
      </trkpt>
      <trkpt lat="43.44109" lon="6.63125">
        <ele>49.16</ele>
        <time>2015-09-27T13:07:06Z</time>
      </trkpt>
      <trkpt lat="43.44114" lon="6.63136">
        <ele>48.2</ele>
        <time>2015-09-27T13:07:16Z</time>
      </trkpt>
      <trkpt lat="43.44115" lon="6.63138">
        <ele>48.2</ele>
        <time>2015-09-27T13:07:18Z</time>
      </trkpt>
      <trkpt lat="43.4412" lon="6.63158">
        <ele>46.28</ele>
        <time>2015-09-27T13:07:31Z</time>
      </trkpt>
      <trkpt lat="43.44118" lon="6.63177">
        <ele>44.36</ele>
        <time>2015-09-27T13:07:45Z</time>
      </trkpt>
      <trkpt lat="43.44123" lon="6.63196">
        <ele>43.88</ele>
        <time>2015-09-27T13:07:57Z</time>
      </trkpt>
      <trkpt lat="43.44135" lon="6.63216">
        <ele>44.84</ele>
        <time>2015-09-27T13:08:13Z</time>
      </trkpt>
      <trkpt lat="43.44135" lon="6.63234">
        <ele>44.36</ele>
        <time>2015-09-27T13:08:25Z</time>
      </trkpt>
      <trkpt lat="43.44132" lon="6.63243">
        <ele>44.84</ele>
        <time>2015-09-27T13:08:38Z</time>
      </trkpt>
      <trkpt lat="43.44135" lon="6.63245">
        <ele>43.88</ele>
        <time>2015-09-27T13:08:57Z</time>
      </trkpt>
      <trkpt lat="43.44137" lon="6.63248">
        <ele>42.92</ele>
        <time>2015-09-27T13:09:02Z</time>
      </trkpt>
      <trkpt lat="43.44149" lon="6.63258">
        <ele>40.99</ele>
        <time>2015-09-27T13:09:14Z</time>
      </trkpt>
      <trkpt lat="43.4416" lon="6.63265">
        <ele>39.55</ele>
        <time>2015-09-27T13:09:25Z</time>
      </trkpt>
      <trkpt lat="43.44161" lon="6.63265">
        <ele>39.55</ele>
        <time>2015-09-27T13:09:32Z</time>
      </trkpt>
      <trkpt lat="43.44171" lon="6.63273">
        <ele>38.11</ele>
        <time>2015-09-27T13:09:44Z</time>
      </trkpt>
      <trkpt lat="43.44171" lon="6.63276">
        <ele>37.63</ele>
        <time>2015-09-27T13:09:47Z</time>
      </trkpt>
      <trkpt lat="43.44171" lon="6.63282">
        <ele>36.19</ele>
        <time>2015-09-27T13:09:53Z</time>
      </trkpt>
      <trkpt lat="43.44172" lon="6.63287">
        <ele>35.23</ele>
        <time>2015-09-27T13:09:59Z</time>
      </trkpt>
      <trkpt lat="43.44172" lon="6.6329">
        <ele>34.74</ele>
        <time>2015-09-27T13:10:01Z</time>
      </trkpt>
      <trkpt lat="43.44175" lon="6.63311">
        <ele>33.3</ele>
        <time>2015-09-27T13:10:15Z</time>
      </trkpt>
      <trkpt lat="43.44176" lon="6.63315">
        <ele>33.3</ele>
        <time>2015-09-27T13:10:17Z</time>
      </trkpt>
      <trkpt lat="43.44177" lon="6.63319">
        <ele>33.3</ele>
        <time>2015-09-27T13:10:19Z</time>
      </trkpt>
      <trkpt lat="43.44179" lon="6.63327">
        <ele>34.26</ele>
        <time>2015-09-27T13:10:25Z</time>
      </trkpt>
      <trkpt lat="43.44179" lon="6.63331">
        <ele>35.23</ele>
        <time>2015-09-27T13:10:28Z</time>
      </trkpt>
      <trkpt lat="43.4418" lon="6.63335">
        <ele>34.74</ele>
        <time>2015-09-27T13:10:31Z</time>
      </trkpt>
      <trkpt lat="43.44181" lon="6.63356">
        <ele>35.23</ele>
        <time>2015-09-27T13:10:45Z</time>
      </trkpt>
      <trkpt lat="43.44182" lon="6.63361">
        <ele>35.71</ele>
        <time>2015-09-27T13:10:49Z</time>
      </trkpt>
      <trkpt lat="43.44188" lon="6.63367">
        <ele>36.19</ele>
        <time>2015-09-27T13:10:56Z</time>
      </trkpt>
      <trkpt lat="43.44191" lon="6.63369">
        <ele>35.71</ele>
        <time>2015-09-27T13:10:59Z</time>
      </trkpt>
      <trkpt lat="43.44202" lon="6.63377">
        <ele>35.23</ele>
        <time>2015-09-27T13:11:10Z</time>
      </trkpt>
      <trkpt lat="43.44206" lon="6.63381">
        <ele>34.74</ele>
        <time>2015-09-27T13:11:14Z</time>
      </trkpt>
      <trkpt lat="43.44218" lon="6.63397">
        <ele>33.78</ele>
        <time>2015-09-27T13:11:29Z</time>
      </trkpt>
      <trkpt lat="43.44224" lon="6.63406">
        <ele>33.3</ele>
        <time>2015-09-27T13:11:37Z</time>
      </trkpt>
      <trkpt lat="43.44233" lon="6.63425">
        <ele>31.86</ele>
        <time>2015-09-27T13:11:52Z</time>
      </trkpt>
      <trkpt lat="43.44241" lon="6.63445">
        <ele>30.9</ele>
        <time>2015-09-27T13:12:07Z</time>
      </trkpt>
      <trkpt lat="43.44241" lon="6.63446">
        <ele>30.9</ele>
        <time>2015-09-27T13:12:08Z</time>
      </trkpt>
      <trkpt lat="43.44243" lon="6.63449">
        <ele>30.42</ele>
        <time>2015-09-27T13:12:10Z</time>
      </trkpt>
      <trkpt lat="43.44251" lon="6.63469">
        <ele>28.98</ele>
        <time>2015-09-27T13:12:24Z</time>
      </trkpt>
      <trkpt lat="43.44257" lon="6.63487">
        <ele>28.02</ele>
        <time>2015-09-27T13:12:36Z</time>
      </trkpt>
      <trkpt lat="43.44265" lon="6.63504">
        <ele>27.05</ele>
        <time>2015-09-27T13:12:48Z</time>
      </trkpt>
      <trkpt lat="43.44272" lon="6.63521">
        <ele>26.57</ele>
        <time>2015-09-27T13:13:01Z</time>
      </trkpt>
      <trkpt lat="43.44281" lon="6.6354">
        <ele>25.13</ele>
        <time>2015-09-27T13:13:15Z</time>
      </trkpt>
      <trkpt lat="43.44293" lon="6.63553">
        <ele>24.17</ele>
        <time>2015-09-27T13:13:28Z</time>
      </trkpt>
      <trkpt lat="43.44301" lon="6.63555">
        <ele>23.69</ele>
        <time>2015-09-27T13:13:34Z</time>
      </trkpt>
      <trkpt lat="43.44315" lon="6.63558">
        <ele>23.21</ele>
        <time>2015-09-27T13:13:46Z</time>
      </trkpt>
      <trkpt lat="43.44318" lon="6.6356">
        <ele>22.73</ele>
        <time>2015-09-27T13:13:49Z</time>
      </trkpt>
      <trkpt lat="43.44316" lon="6.63557">
        <ele>23.21</ele>
        <time>2015-09-27T13:13:52Z</time>
      </trkpt>
      <trkpt lat="43.44315" lon="6.63561">
        <ele>23.21</ele>
        <time>2015-09-27T13:13:56Z</time>
      </trkpt>
      <trkpt lat="43.44318" lon="6.63563">
        <ele>22.73</ele>
        <time>2015-09-27T13:13:59Z</time>
      </trkpt>
      <trkpt lat="43.44324" lon="6.63568">
        <ele>22.25</ele>
        <time>2015-09-27T13:14:04Z</time>
      </trkpt>
      <trkpt lat="43.44335" lon="6.63574">
        <ele>20.81</ele>
        <time>2015-09-27T13:14:13Z</time>
      </trkpt>
      <trkpt lat="43.44339" lon="6.63578">
        <ele>20.81</ele>
        <time>2015-09-27T13:14:18Z</time>
      </trkpt>
      <trkpt lat="43.44354" lon="6.6358">
        <ele>20.32</ele>
        <time>2015-09-27T13:14:31Z</time>
      </trkpt>
      <trkpt lat="43.44354" lon="6.63581">
        <ele>20.81</ele>
        <time>2015-09-27T13:14:33Z</time>
      </trkpt>
      <trkpt lat="43.44358" lon="6.63583">
        <ele>20.32</ele>
        <time>2015-09-27T13:14:37Z</time>
      </trkpt>
      <trkpt lat="43.44373" lon="6.63596">
        <ele>20.32</ele>
        <time>2015-09-27T13:14:51Z</time>
      </trkpt>
      <trkpt lat="43.44375" lon="6.63594">
        <ele>19.84</ele>
        <time>2015-09-27T13:14:58Z</time>
      </trkpt>
      <trkpt lat="43.44376" lon="6.63596">
        <ele>19.84</ele>
        <time>2015-09-27T13:15:11Z</time>
      </trkpt>
      <trkpt lat="43.44376" lon="6.63597">
        <ele>20.32</ele>
        <time>2015-09-27T13:15:32Z</time>
      </trkpt>
      <trkpt lat="43.4439" lon="6.63605">
        <ele>19.36</ele>
        <time>2015-09-27T13:15:45Z</time>
      </trkpt>
      <trkpt lat="43.44397" lon="6.63609">
        <ele>19.36</ele>
        <time>2015-09-27T13:15:51Z</time>
      </trkpt>
      <trkpt lat="43.44413" lon="6.6362">
        <ele>17.92</ele>
        <time>2015-09-27T13:16:04Z</time>
      </trkpt>
      <trkpt lat="43.44419" lon="6.63624">
        <ele>17.92</ele>
        <time>2015-09-27T13:16:10Z</time>
      </trkpt>
      <trkpt lat="43.44438" lon="6.63631">
        <ele>17.92</ele>
        <time>2015-09-27T13:16:25Z</time>
      </trkpt>
      <trkpt lat="43.44439" lon="6.63631">
        <ele>17.44</ele>
        <time>2015-09-27T13:16:26Z</time>
      </trkpt>
      <trkpt lat="43.44441" lon="6.6363">
        <ele>17.44</ele>
        <time>2015-09-27T13:16:28Z</time>
      </trkpt>
      <trkpt lat="43.44449" lon="6.63632">
        <ele>17.92</ele>
        <time>2015-09-27T13:16:35Z</time>
      </trkpt>
      <trkpt lat="43.44463" lon="6.63621">
        <ele>17.44</ele>
        <time>2015-09-27T13:16:49Z</time>
      </trkpt>
      <trkpt lat="43.44469" lon="6.63616">
        <ele>17.44</ele>
        <time>2015-09-27T13:16:54Z</time>
      </trkpt>
      <trkpt lat="43.44483" lon="6.63609">
        <ele>17.92</ele>
        <time>2015-09-27T13:17:05Z</time>
      </trkpt>
      <trkpt lat="43.44494" lon="6.63605">
        <ele>17.44</ele>
        <time>2015-09-27T13:17:13Z</time>
      </trkpt>
      <trkpt lat="43.44497" lon="6.63605">
        <ele>17.44</ele>
        <time>2015-09-27T13:17:16Z</time>
      </trkpt>
      <trkpt lat="43.44508" lon="6.63602">
        <ele>16.96</ele>
        <time>2015-09-27T13:17:25Z</time>
      </trkpt>
      <trkpt lat="43.4451" lon="6.63601">
        <ele>16.96</ele>
        <time>2015-09-27T13:17:27Z</time>
      </trkpt>
      <trkpt lat="43.44513" lon="6.636">
        <ele>16.96</ele>
        <time>2015-09-27T13:17:30Z</time>
      </trkpt>
      <trkpt lat="43.44516" lon="6.63599">
        <ele>16.96</ele>
        <time>2015-09-27T13:17:33Z</time>
      </trkpt>
      <trkpt lat="43.44522" lon="6.63599">
        <ele>16.96</ele>
        <time>2015-09-27T13:17:37Z</time>
      </trkpt>
      <trkpt lat="43.44527" lon="6.636">
        <ele>16.96</ele>
        <time>2015-09-27T13:17:41Z</time>
      </trkpt>
      <trkpt lat="43.44544" lon="6.6362">
        <ele>16.48</ele>
        <time>2015-09-27T13:17:54Z</time>
      </trkpt>
      <trkpt lat="43.44551" lon="6.63622">
        <ele>16.48</ele>
        <time>2015-09-27T13:18:03Z</time>
      </trkpt>
      <trkpt lat="43.44557" lon="6.63617">
        <ele>16.48</ele>
        <time>2015-09-27T13:18:08Z</time>
      </trkpt>
      <trkpt lat="43.4456" lon="6.63617">
        <ele>16.96</ele>
        <time>2015-09-27T13:18:11Z</time>
      </trkpt>
      <trkpt lat="43.44578" lon="6.63622">
        <ele>16.48</ele>
        <time>2015-09-27T13:18:25Z</time>
      </trkpt>
      <trkpt lat="43.44585" lon="6.63622">
        <ele>16.48</ele>
        <time>2015-09-27T13:18:31Z</time>
      </trkpt>
      <trkpt lat="43.44595" lon="6.63608">
        <ele>16.48</ele>
        <time>2015-09-27T13:18:44Z</time>
      </trkpt>
      <trkpt lat="43.44596" lon="6.63601">
        <ele>16.48</ele>
        <time>2015-09-27T13:18:48Z</time>
      </trkpt>
      <trkpt lat="43.44607" lon="6.63574">
        <ele>16.48</ele>
        <time>2015-09-27T13:19:04Z</time>
      </trkpt>
      <trkpt lat="43.44609" lon="6.63562">
        <ele>16.48</ele>
        <time>2015-09-27T13:19:11Z</time>
      </trkpt>
      <trkpt lat="43.44613" lon="6.63554">
        <ele>16.48</ele>
        <time>2015-09-27T13:19:16Z</time>
      </trkpt>
      <trkpt lat="43.44621" lon="6.63533">
        <ele>16.48</ele>
        <time>2015-09-27T13:19:29Z</time>
      </trkpt>
      <trkpt lat="43.44623" lon="6.63526">
        <ele>16.96</ele>
        <time>2015-09-27T13:19:34Z</time>
      </trkpt>
      <trkpt lat="43.44626" lon="6.6352">
        <ele>16.96</ele>
        <time>2015-09-27T13:19:38Z</time>
      </trkpt>
      <trkpt lat="43.44627" lon="6.63512">
        <ele>16.48</ele>
        <time>2015-09-27T13:19:43Z</time>
      </trkpt>
      <trkpt lat="43.44639" lon="6.63497">
        <ele>16.48</ele>
        <time>2015-09-27T13:19:56Z</time>
      </trkpt>
      <trkpt lat="43.44652" lon="6.63483">
        <ele>17.44</ele>
        <time>2015-09-27T13:20:10Z</time>
      </trkpt>
      <trkpt lat="43.44664" lon="6.63463">
        <ele>17.44</ele>
        <time>2015-09-27T13:20:24Z</time>
      </trkpt>
      <trkpt lat="43.44666" lon="6.63458">
        <ele>18.88</ele>
        <time>2015-09-27T13:20:29Z</time>
      </trkpt>
      <trkpt lat="43.44667" lon="6.63455">
        <ele>18.4</ele>
        <time>2015-09-27T13:20:32Z</time>
      </trkpt>
      <trkpt lat="43.44673" lon="6.63435">
        <ele>14.08</ele>
        <time>2015-09-27T13:20:43Z</time>
      </trkpt>
      <trkpt lat="43.44674" lon="6.63433">
        <ele>22.73</ele>
        <time>2015-09-27T13:20:44Z</time>
      </trkpt>
      <trkpt lat="43.44675" lon="6.63431">
        <ele>17.92</ele>
        <time>2015-09-27T13:20:45Z</time>
      </trkpt>
      <trkpt lat="43.44676" lon="6.6343">
        <ele>19.84</ele>
        <time>2015-09-27T13:20:46Z</time>
      </trkpt>
      <trkpt lat="43.4469" lon="6.63408">
        <ele>17.92</ele>
        <time>2015-09-27T13:21:05Z</time>
      </trkpt>
      <trkpt lat="43.44705" lon="6.63382">
        <ele>17.92</ele>
        <time>2015-09-27T13:21:27Z</time>
      </trkpt>
      <trkpt lat="43.4472" lon="6.63358">
        <ele>17.92</ele>
        <time>2015-09-27T13:21:46Z</time>
      </trkpt>
      <trkpt lat="43.44734" lon="6.63338">
        <ele>17.44</ele>
        <time>2015-09-27T13:22:04Z</time>
      </trkpt>
      <trkpt lat="43.44738" lon="6.63332">
        <ele>17.92</ele>
        <time>2015-09-27T13:22:09Z</time>
      </trkpt>
      <trkpt lat="43.44745" lon="6.63326">
        <ele>17.44</ele>
        <time>2015-09-27T13:22:16Z</time>
      </trkpt>
      <trkpt lat="43.44751" lon="6.63317">
        <ele>17.44</ele>
        <time>2015-09-27T13:22:23Z</time>
      </trkpt>
      <trkpt lat="43.4476" lon="6.63302">
        <ele>16.48</ele>
        <time>2015-09-27T13:22:36Z</time>
      </trkpt>
      <trkpt lat="43.44771" lon="6.63288">
        <ele>16</ele>
        <time>2015-09-27T13:22:51Z</time>
      </trkpt>
      <trkpt lat="43.44772" lon="6.63287">
        <ele>16</ele>
        <time>2015-09-27T13:22:55Z</time>
      </trkpt>
      <trkpt lat="43.44774" lon="6.63281">
        <ele>16</ele>
        <time>2015-09-27T13:22:59Z</time>
      </trkpt>
      <trkpt lat="43.44775" lon="6.63275">
        <ele>16</ele>
        <time>2015-09-27T13:23:12Z</time>
      </trkpt>
      <trkpt lat="43.44776" lon="6.63274">
        <ele>16</ele>
        <time>2015-09-27T13:23:31Z</time>
      </trkpt>
      <trkpt lat="43.44776" lon="6.63273">
        <ele>16</ele>
        <time>2015-09-27T13:23:48Z</time>
      </trkpt>
      <trkpt lat="43.44775" lon="6.63272">
        <ele>16</ele>
        <time>2015-09-27T13:24:14Z</time>
      </trkpt>
      <trkpt lat="43.44776" lon="6.63273">
        <ele>15.52</ele>
        <time>2015-09-27T13:24:35Z</time>
      </trkpt>
      <trkpt lat="43.44775" lon="6.63273">
        <ele>16</ele>
        <time>2015-09-27T13:24:52Z</time>
      </trkpt>
      <trkpt lat="43.44774" lon="6.63273">
        <ele>11.19</ele>
        <time>2015-09-27T13:25:20Z</time>
      </trkpt>
      <trkpt lat="43.44774" lon="6.63273">
        <ele>17.44</ele>
        <time>2015-09-27T13:25:21Z</time>
      </trkpt>
      <trkpt lat="43.44775" lon="6.63273">
        <ele>15.52</ele>
        <time>2015-09-27T13:25:45Z</time>
      </trkpt>
      <trkpt lat="43.44777" lon="6.63273">
        <ele>15.52</ele>
        <time>2015-09-27T13:26:15Z</time>
      </trkpt>
      <trkpt lat="43.44777" lon="6.63274">
        <ele>15.04</ele>
        <time>2015-09-27T13:26:39Z</time>
      </trkpt>
      <trkpt lat="43.44777" lon="6.63273">
        <ele>15.04</ele>
        <time>2015-09-27T13:27:03Z</time>
      </trkpt>
      <trkpt lat="43.44777" lon="6.63273">
        <ele>9.27</ele>
        <time>2015-09-27T13:27:09Z</time>
      </trkpt>
      <trkpt lat="43.44777" lon="6.63273">
        <ele>16</ele>
        <time>2015-09-27T13:27:10Z</time>
      </trkpt>
      <trkpt lat="43.44778" lon="6.63274">
        <ele>15.04</ele>
        <time>2015-09-27T13:27:34Z</time>
      </trkpt>
      <trkpt lat="43.44778" lon="6.63273">
        <ele>14.56</ele>
        <time>2015-09-27T13:27:44Z</time>
      </trkpt>
    </trkseg>
  </trk>
</gpx>